[[[{"header":{"parameterUnit":"kt","parameterCategory":2,"dx":1,"dy":1,"la1":29.285339999999998,"la2":30.599998999999997,"lo1":-89.70041500000002,"lo2":-87.6738589999976,"nx":112,"ny":82,"refTime":"2022-10-05T00:00:00:Z","depth":0,"parameterNumber":1,"parameterNumberName":"U-component_of_WINDS"},"data":[3.9554,4.0254,0.0,3.7146,3.9354,0.0,3.7991,3.9961,4.2472,4.2183,4.2714,4.3614,4.4935,0.0,0.0,0.0,0.0,0.0,0.0,4.7021,0.0,0.0,0.0,0.0,0.0,0.0,0.0,0.0,0.0,0.0,0.0,0.0,6.8301,6.8926,6.9996,7.0032,6.8962,7.0032,7.0032,6.8962,7.0032,7.0567,7.0567,7.0567,7.0567,7.0496,6.9426,6.8962,6.889,6.7856,6.7071,6.6536,6.6536,6.6536,6.6464,6.5929,6.5715,6.5715,6.5715,6.6072,6.6536,6.6536,6.6964,6.7642,6.8641,6.8962,6.9033,6.9533,7.0103,7.0424,6.9818,7.0531,7.1388,7.1388,7.1816,7.2208,7.2208,7.2208,7.2208,7.2208,7.2208,7.2208,7.2208,7.3029,7.3172,7.1602,7.1852,7.2565,7.3564,7.3707,7.4099,7.5134,7.5241,7.5241,7.5241,7.5241,7.5241,7.5241,7.5241,7.5241,7.5241,7.5241,7.4991,7.4384,7.4955,7.4955,7.4384,7.4955,7.5241,7.5241,7.5241,7.5229,0.0,0.0,3.8155,3.4706,3.7189,3.9652,3.6726,3.8638,4.0815,4.0007,4.1008,4.1902,4.1675,0.0,0.0,0.0,0.0,0.0,0.0,0.0,4.7413,0.0,0.0,0.0,0.0,0.0,0.0,0.0,0.0,0.0,0.0,6.6678,6.7249,6.7249,6.832,6.8391,6.7285,6.8355,6.8355,6.7285,6.8391,6.889,6.889,6.889,6.889,6.8855,6.7749,6.7249,6.7178,6.6143,6.5715,6.5715,6.5715,6.5715,6.5715,6.5715,6.5715,6.5715,6.5715,6.5715,6.5715,6.5715,6.5715,6.5894,6.6928,6.7249,6.7499,6.8605,6.889,6.889,6.889,6.9318,6.9711,6.9711,7.0139,7.0567,7.0567,7.0567,7.0567,7.0567,7.0567,7.0567,7.0567,7.0924,7.0888,6.9854,7.0175,7.1102,7.2672,7.2387,7.2886,7.4991,7.4777,7.4634,7.5205,7.5241,7.5241,7.5241,7.5241,7.5241,7.5241,7.5241,7.5241,7.5241,7.5241,7.5241,7.5241,7.5241,7.5241,7.5241,7.5241,7.5252,3.4456,3.4385,3.5675,3.4099,3.6348,3.8946,3.8946,4.1146,4.2574,4.034,4.1337,4.2305,4.1632,0.0,0.0,0.0,0.0,0.0,0.0,0.0,4.7271,0.0,0.0,0.0,0.0,0.0,0.0,0.0,0.0,0.0,6.5358,6.5715,6.5715,6.5715,6.5715,6.5715,6.5715,6.5715,6.5715,6.5715,6.5715,6.5715,6.5715,6.5715,6.5732,6.5732,6.5732,6.5732,6.5732,6.568,6.5715,6.5715,6.5715,6.5715,6.5715,6.5715,6.5715,6.5715,6.5715,6.5715,6.5715,6.5715,6.5715,6.5715,6.5715,6.5715,6.5715,6.5715,6.5715,6.5715,6.5715,6.6857,6.7944,6.7944,6.9247,7.0389,7.0389,7.0389,7.0389,7.0389,7.0389,7.0389,7.0389,6.9069,6.7944,6.7944,6.9354,7.096,7.2529,7.1388,7.1673,7.4741,7.3707,7.3421,7.5027,7.5169,7.5169,7.5241,7.5241,7.5241,7.5241,7.5241,7.5241,7.5241,7.5241,7.5241,7.5241,7.5241,7.5241,7.5241,7.5241,7.5217,3.1959,3.2702,3.4473,3.5136,3.7981,4.0573,4.0573,4.0343,4.0262,4.0727,3.9019,0.0,0.0,0.0,0.0,0.0,0.0,4.7339,0.0,4.9982,5.2123,0.0,0.0,0.0,0.0,0.0,0.0,0.0,0.0,6.1505,6.5501,6.5715,6.5715,6.5715,6.5715,6.5715,6.5715,6.5715,6.5715,6.5715,6.5715,6.5715,6.5715,6.6078,6.6235,6.6235,6.6235,6.6235,6.6271,6.585,6.5715,6.5715,6.5715,6.5715,6.5715,6.5715,6.5715,6.5715,6.5715,6.5715,6.5715,6.5715,6.5715,6.5715,6.5715,6.5715,6.5715,6.5715,6.5715,6.5715,6.5715,6.6036,6.6357,6.6357,6.6678,6.7035,6.7035,6.7035,6.7035,6.7035,6.7035,6.7035,6.7035,6.6643,6.6357,6.6357,6.675,6.7606,6.9176,6.8997,6.9568,7.1602,7.1459,7.1816,7.3386,7.3528,7.3992,7.5169,7.5241,7.5241,7.5241,7.5241,7.5241,7.5241,7.5241,7.5241,7.5241,7.5241,7.5241,7.5241,7.5248,7.5205,3.1152,3.2661,3.5318,3.5835,3.9057,4.1757,4.0507,4.054,4.0507,3.9521,0.0,0.0,0.0,0.0,0.0,0.0,4.5089,4.748,4.7556,0.0,5.305,0.0,0.0,0.0,0.0,0.0,0.0,0.0,6.279,6.2397,6.5537,6.5715,6.5715,6.5715,6.5715,6.5715,6.5715,6.5715,6.5715,6.5715,6.5715,6.5835,6.6064,6.6329,6.6651,6.6871,6.657,6.6479,6.6469,6.5901,6.5715,6.5715,6.5715,6.5715,6.5715,6.5715,6.5715,6.5715,6.5715,6.5715,6.5715,6.5715,6.5715,6.5715,6.5715,6.5715,6.5715,6.5715,6.5715,6.5715,6.5715,6.5715,6.5715,6.5715,6.5715,6.5715,6.5715,6.5715,6.5715,6.5715,6.5715,6.5715,6.5715,6.5715,6.5715,6.5715,6.5715,6.6286,6.7837,6.7445,6.7963,7.0317,6.9925,7.0139,7.178,7.2494,7.3243,7.4206,7.4848,7.5241,7.5241,7.5241,7.5241,7.5241,7.5241,7.5241,7.5241,7.5193,7.4336,7.2614,7.1694,7.1234,3.1516,3.3435,3.6715,3.6244,3.9403,4.1999,3.9865,0.0,4.2118,3.8666,0.0,3.9744,3.8617,0.0,0.0,0.0,4.5114,4.7074,4.8431,5.0635,5.2217,5.2479,5.7403,0.0,0.0,5.8188,6.0685,6.4859,6.2754,6.2504,6.5287,6.5608,6.5715,6.5715,6.5715,6.5715,6.5715,6.5732,6.5783,6.5783,6.585,6.6162,6.6606,6.6659,6.6999,6.7518,6.6957,6.6659,6.6614,6.6015,6.5783,6.5783,6.5732,6.5715,6.5715,6.5715,6.5715,6.5715,6.5715,6.5715,6.5715,6.5715,6.5715,6.5715,6.5715,6.5715,6.5715,6.5715,6.5715,6.5715,6.5715,6.5715,6.5715,6.5715,6.5715,6.5715,6.5715,6.5715,6.5715,6.5715,6.5715,6.5715,6.5715,6.5715,6.5715,6.5715,6.5715,6.6215,6.7552,6.6571,6.6821,6.9711,6.8676,6.8462,7.0139,7.153,7.2387,7.2658,7.3921,7.4777,7.4955,7.4955,7.5062,7.5241,7.5241,7.5169,7.4955,7.5132,7.293,6.8562,6.6599,6.5713,3.196,3.255,3.4388,3.6657,3.7609,3.8831,0.0,0.0,0.0,4.5002,4.4004,4.2904,4.3795,4.4035,4.4469,4.5581,4.8122,0.0,0.0,5.2661,0.0,5.7143,5.8402,0.0,6.0043,6.0399,6.0935,6.1862,6.254,6.3182,6.3789,6.5037,6.5715,6.5715,6.5715,6.5715,6.5715,6.6126,6.6329,6.6329,6.6864,6.7161,6.7243,6.7708,6.796,6.8066,6.7925,6.789,6.7781,6.6784,6.6329,6.6282,6.585,6.5715,6.5715,6.5715,6.5715,6.5715,6.5715,6.5715,6.5715,6.5715,6.5715,6.5715,6.5715,6.5715,6.5715,6.5715,6.5715,6.5715,6.5715,6.5715,6.5715,6.5715,6.5715,6.5715,6.5715,6.5715,6.5715,6.5715,6.5715,6.5715,6.5715,6.5715,6.5715,6.5715,6.5715,6.5822,6.6108,6.5894,6.5929,6.6571,6.6357,6.6821,6.8372,6.8819,6.9568,7.0924,7.1281,7.1994,7.3279,7.3314,7.3921,7.5205,7.5241,7.4599,7.3314,7.4618,7.2179,6.6339,6.5913,6.5681,3.1723,3.2576,3.4227,3.5972,3.7108,0.0,0.0,4.0672,4.1806,4.3949,4.385,4.3795,4.5209,4.5472,4.5817,4.6876,4.9243,5.1283,5.2235,5.3707,5.5408,5.73,5.7545,5.7867,5.8651,5.9401,5.9864,5.9864,6.1291,6.2219,6.2219,6.2932,6.3474,6.3729,6.4532,6.507,6.5311,6.642,6.6957,6.6957,6.732,6.7557,6.7855,6.8137,6.8335,6.8596,6.8373,6.8238,6.8134,6.6963,6.6695,6.6914,6.6318,6.5951,6.5715,6.5715,6.5715,6.5715,6.5715,6.5715,6.5715,6.5715,6.5715,6.5715,6.5715,6.5715,6.5715,6.5715,6.5715,6.5715,6.5715,6.5715,6.5715,6.5715,6.5715,6.5715,6.5715,6.5715,6.5715,6.5715,6.5715,6.5715,6.5715,6.5715,6.5715,6.5715,6.5715,6.5715,6.5715,6.5715,6.5715,6.5715,6.5715,6.6036,6.6821,6.7552,6.8372,6.9247,7.0103,7.0888,7.1673,7.1709,7.2101,7.2886,7.2886,7.2494,7.1709,7.1965,6.9873,6.57,6.5699,6.5715,3.1115,3.2725,3.4772,3.5488,3.7062,0.0,3.8432,4.031,4.2263,4.3093,4.4212,4.5373,4.6524,4.6721,4.7116,4.8234,4.9995,5.1843,5.3945,5.4228,5.4767,5.6187,5.6359,5.6359,5.6359,5.7545,5.8259,5.8259,5.9436,6.0257,6.0542,6.0971,6.1394,6.1801,6.3125,6.3995,6.443,6.5903,6.6823,6.7117,6.6898,6.7334,6.8367,6.8033,6.8261,6.8993,6.8566,6.8404,6.8303,6.7287,6.7041,6.74,6.6871,6.6366,6.585,6.585,6.585,6.5799,6.5732,6.5715,6.5715,6.5715,6.5715,6.5715,6.5715,6.5715,6.5715,6.5715,6.5715,6.5715,6.5715,6.5715,6.5715,6.5715,6.5715,6.5715,6.5715,6.5715,6.5715,6.5715,6.5715,6.5715,6.5715,6.5715,6.5715,6.5715,6.5715,6.5715,6.5715,6.5715,6.5715,6.5715,6.5715,6.5715,6.5715,6.6857,6.7552,6.7552,6.8855,6.9747,7.0068,7.0068,7.0246,7.0567,7.0567,7.0389,7.0068,6.8945,6.7445,6.5715,6.5715,6.5715,3.044,3.2436,3.4906,3.6227,3.678,0.0,4.3352,4.4729,4.6085,4.9911,5.0831,5.0996,5.116,5.116,5.1226,5.139,5.1586,5.2354,5.4027,5.4228,5.4767,5.6187,5.6359,5.6359,5.6359,5.6501,5.6608,5.6608,5.6832,5.751,5.8901,6.073,6.1758,6.1801,6.2328,6.2597,6.2671,6.3319,6.4399,6.5875,6.4865,6.5962,6.8864,6.736,6.7535,6.8993,6.8966,6.8901,6.8874,6.8271,6.7782,6.744,6.736,6.6914,6.6423,6.6423,6.6423,6.6329,6.585,6.5715,6.5715,6.5715,6.5715,6.5715,6.5715,6.5715,6.5715,6.5715,6.5715,6.5715,6.5715,6.5715,6.5715,6.5715,6.5715,6.5715,6.5715,6.5715,6.5715,6.5715,6.5715,6.5715,6.5715,6.5715,6.5715,6.5715,6.5715,6.5715,6.5715,6.5715,6.5715,6.5715,6.5715,6.5715,6.5715,6.5858,6.5965,6.5965,6.6143,6.6857,6.823,6.8301,6.9033,7.0531,7.0567,6.9818,6.8301,6.6821,6.5929,6.5715,6.5715,6.5715,3.1142,3.3019,3.4972,3.6371,0.0,0.0,4.1568,4.3241,4.5083,4.8103,4.9758,5.0897,5.1752,5.1883,5.1883,5.1883,5.1883,5.2491,5.4005,5.4228,5.4767,5.6187,5.6359,5.6359,5.6359,5.6359,5.6359,5.6359,5.6359,5.6644,5.7331,5.8164,5.8751,5.9088,6.0437,6.1275,6.1508,6.2908,6.3999,6.4697,6.4196,6.4683,6.6029,6.5318,6.5917,6.7524,6.7524,6.8085,6.8993,6.878,6.8373,6.7927,6.7927,6.7327,6.6479,6.6479,6.6282,6.6015,6.5783,6.5715,6.5715,6.5715,6.5715,6.5715,6.5715,6.5715,6.5715,6.5715,6.5715,6.5715,6.5715,6.5715,6.5715,6.5715,6.5715,6.5715,6.5715,6.5715,6.5715,6.5715,6.5715,6.5715,6.5715,6.5715,6.5715,6.5715,6.5715,6.5715,6.5715,6.5715,6.5715,6.5715,6.5715,6.5715,6.5715,6.5715,6.5715,6.5715,6.5715,6.6001,6.6678,6.6678,6.7,6.7713,6.7713,6.7392,6.6678,6.6036,6.5715,6.5715,6.5715,6.5715,3.1701,0.0,0.0,0.0,0.0,0.0,4.0733,4.25,4.4444,4.6396,4.8069,4.9615,5.1029,5.1292,5.116,5.0765,5.1029,5.1767,5.3164,5.3842,5.4661,5.5884,5.6233,5.6359,5.6359,5.6359,5.6359,0.0,5.6359,5.6359,5.6359,5.6359,5.6639,5.7256,5.8897,5.9916,6.0337,6.183,6.2851,6.3299,6.2813,6.3075,6.3935,6.3524,6.4197,6.5804,6.629,6.6889,6.761,6.7492,6.742,6.7332,6.7329,6.6963,6.6479,6.6479,6.6271,6.5901,6.5732,6.5715,6.5715,6.5715,6.5715,6.5715,6.5715,6.5715,6.5715,6.5715,6.5715,6.5715,6.5715,6.5715,6.5715,6.5715,6.5715,6.5715,6.5715,6.5715,6.5715,6.5715,6.5715,6.5715,6.5715,6.5715,6.5715,6.5715,6.5715,6.5715,6.5715,6.5715,6.5715,6.5715,6.5715,6.5715,6.5715,6.5715,6.5715,6.5715,6.5715,6.5715,6.5715,6.5715,6.5715,6.5715,6.5715,6.5715,6.5715,6.5715,6.5715,6.5715,6.5715,6.5715,0.0,0.0,0.0,3.7964,3.9224,4.0549,4.3368,4.4757,4.5839,4.726,4.7625,4.8102,4.9582,4.9845,4.9385,4.7998,4.8924,5.0123,5.0894,5.2857,5.4466,5.5194,5.5884,5.6359,5.6359,5.6359,5.6359,5.6359,5.6359,5.6359,5.6359,5.6359,5.6772,5.769,5.8144,5.8628,5.9126,5.9201,6.0084,6.1692,6.0046,6.0906,6.3898,6.2365,6.2552,6.4122,6.5767,6.5543,6.406,6.3701,6.4121,6.5018,6.5021,6.5622,6.6479,6.6479,6.6479,6.6376,6.585,6.5715,6.5715,6.5715,6.5715,6.5715,6.5715,6.5715,6.5715,6.5715,6.5715,6.5715,6.5715,6.5715,6.5715,6.5715,6.5715,6.5715,6.5715,6.5715,6.5715,6.5715,6.5715,6.5715,6.5715,6.5715,6.5715,6.5715,6.5715,6.5715,6.5715,6.5715,6.5715,6.5715,6.5715,6.5715,6.5715,6.5715,6.5715,6.5715,6.5715,6.5715,6.5715,6.5715,6.5715,6.5715,6.5715,6.5715,6.5715,6.5715,6.5715,6.5715,6.5715,6.5715,3.3144,3.4944,3.6411,3.8219,3.9614,4.0577,4.0903,4.2491,4.3939,4.4386,4.5724,4.719,4.8173,4.7543,4.7083,4.757,4.8064,4.8601,4.9403,5.141,5.3031,5.3701,5.5293,5.6359,5.6359,5.6359,5.6359,5.6359,5.6359,0.0,5.6359,5.6718,5.7018,5.7332,5.7724,5.8137,5.858,5.892,5.9388,5.9934,5.9351,5.9649,6.0719,6.0196,6.0832,6.2439,6.3,6.2925,6.2453,6.3106,6.358,6.3862,6.3512,6.3397,6.3372,6.3372,6.3143,6.288,6.2675,6.3289,6.4145,6.4145,6.4859,6.5715,6.5715,6.5715,6.5715,6.5715,6.5715,6.5715,6.5715,6.5715,6.5715,6.5715,6.5715,6.5715,6.5715,6.5715,6.5715,6.5715,6.5715,6.5715,6.5715,6.5715,6.5715,6.5715,6.5715,6.5715,6.5715,6.5715,6.5715,6.5715,6.5715,6.5715,6.5715,6.5715,6.5715,6.5715,6.5715,6.5715,6.5715,6.5715,6.5715,6.5715,6.5715,6.5715,6.5715,6.5715,6.5715,6.5715,6.5715,6.5715,3.3696,3.5222,3.6283,3.8087,3.9413,4.0177,3.9625,4.0864,4.224,4.2206,4.3594,4.5204,4.6178,4.5463,4.5012,4.5932,4.6491,4.7054,4.7501,4.9498,5.1165,5.1717,5.3317,5.4435,5.4683,5.4683,5.4683,5.4683,5.5226,5.5548,5.5548,5.6562,5.7173,5.7173,5.7656,5.8076,5.8313,5.8834,5.9089,5.9089,5.9089,5.9089,5.9089,5.9089,5.971,6.0719,6.0719,6.0719,6.0771,6.1331,6.1929,6.2425,6.1718,6.1632,6.1772,6.1599,6.1312,6.1006,6.1006,6.1684,6.254,6.254,6.3218,6.411,6.4681,6.4859,6.5002,6.5537,6.5715,6.5715,6.5715,6.5715,6.5715,6.5715,6.5715,6.5715,6.5715,6.5715,6.5715,6.5715,6.5715,6.5715,6.5715,6.5715,6.5715,6.5715,6.5715,6.5715,6.5715,6.5715,6.5715,6.5715,6.5715,6.5715,6.5715,6.5715,6.5715,6.5715,6.5715,6.5715,6.5715,6.5715,6.5715,6.5715,6.5715,6.5715,6.5715,6.5715,6.5715,6.5715,6.5715,6.5715,3.3463,3.4498,3.5143,3.7687,3.8875,3.9419,3.9397,4.0087,4.0678,4.074,4.1356,4.2367,4.3707,4.359,4.3368,4.3368,4.4486,4.5373,4.5373,4.7323,4.8873,4.9395,5.0218,5.1034,5.1653,5.173,5.173,5.173,5.3086,5.3942,5.4013,5.5954,5.7104,5.7176,5.7919,5.8341,5.8341,5.8834,5.9089,5.9089,5.9089,5.9089,5.9089,5.9089,5.9089,5.9089,5.9089,5.9089,5.9028,5.8516,5.9276,6.0637,5.9702,6.0245,6.1505,6.0994,6.0792,6.0792,6.0792,6.0828,6.0899,6.0899,6.097,6.1291,6.2825,6.3254,6.361,6.5144,6.5573,6.5608,6.568,6.5715,6.5715,6.5715,6.5715,6.5715,6.5715,6.5715,6.5715,6.5715,6.5715,6.5715,6.5715,6.5715,6.5715,6.5715,6.5715,6.5715,6.5715,6.5715,6.5715,6.5715,6.5715,6.5715,6.5715,6.5715,6.5715,6.5715,6.5715,6.5715,6.5715,6.5715,6.5715,6.5715,6.5715,6.5715,6.5715,6.5715,6.568,6.568,6.568,6.568,3.4848,3.5886,3.6254,3.7872,3.8431,3.8571,3.8622,3.872,3.9117,3.9698,4.0491,4.1206,4.1613,4.2564,4.3368,4.3368,4.3664,4.3894,4.3894,4.6121,4.7784,4.798,5.0028,5.1528,5.1653,5.173,5.173,5.173,5.2087,5.2801,5.3978,5.5186,5.6377,5.7514,5.8416,5.8896,5.8896,5.9028,5.9089,5.9089,5.9089,5.9089,5.9089,5.9089,5.9089,5.9089,5.9089,5.9089,5.9028,5.8516,5.8572,5.8855,5.8063,5.7966,5.8287,5.777,5.7581,5.7581,5.7581,5.833,5.9294,5.9294,6.0078,6.1113,6.1505,6.1612,6.1934,6.3539,6.3967,6.4253,6.5394,6.5715,6.5715,6.5715,6.5715,6.5715,6.5715,6.5715,6.5715,6.5715,6.5715,6.5715,6.5715,6.5715,6.5715,6.5715,6.5715,6.5715,6.5715,6.5715,6.5715,6.5715,6.5715,6.5715,6.5715,6.5715,6.5715,6.5715,6.5715,6.5715,6.5715,6.5715,6.5715,6.5715,6.5715,6.5715,6.5715,6.5715,6.5696,6.5743,6.5696,6.5692,3.4073,3.5451,3.6692,3.793,3.8274,3.8274,3.8274,3.8274,3.8425,3.8864,3.998,4.0803,4.0803,4.2223,4.3368,4.3368,4.3368,4.3368,4.3368,4.4873,4.6061,4.6348,4.8045,4.9349,4.9621,4.9661,4.9661,4.9661,5.0303,5.1052,5.1909,5.3263,5.4844,5.6622,5.7368,5.8174,5.9089,5.9089,5.9089,5.9089,5.9089,5.9089,5.9089,5.9089,5.9089,5.9089,5.9089,5.9089,5.9089,5.8784,5.867,5.858,5.7924,5.7656,5.7586,5.7143,5.6855,5.6718,5.6718,5.7118,5.7688,5.7688,5.8295,5.9115,5.9793,6.0007,6.0471,6.2754,6.2897,6.2718,6.4288,6.4848,6.4961,6.4732,6.5349,6.5965,6.5732,6.5715,6.5715,6.5715,6.5715,6.5501,6.4788,6.5251,6.5216,6.386,6.4823,6.5465,6.4788,6.5287,6.5715,6.5715,6.5715,6.5715,6.5715,6.5715,6.5715,6.5715,6.5715,6.5715,6.5715,6.5715,6.5715,6.5715,6.5715,6.5358,6.4681,6.4681,6.4339,6.3617,6.2262,6.2312,3.2975,3.4737,3.6876,3.8029,3.8274,3.8274,3.8274,3.8274,3.8274,3.8274,3.9518,4.0678,4.0803,4.2074,4.3225,4.3313,4.3368,4.3368,4.3368,4.386,4.4427,4.5029,4.5766,4.6411,4.6984,4.7021,4.7021,4.7021,4.827,4.9165,4.9379,5.1019,5.2929,5.4967,5.5461,5.6661,5.8715,5.8775,5.8887,5.9089,5.9089,5.9089,5.9089,5.9089,5.9089,5.9089,5.9089,5.9089,5.9089,5.9089,5.9089,5.9028,5.8516,5.8313,5.8284,5.7854,5.7516,5.7215,5.7215,5.6891,5.6457,5.6457,5.6448,5.6608,5.8009,5.8402,5.9008,6.1934,6.1791,6.1077,6.2647,6.3538,6.3927,6.3461,6.464,6.5762,6.5292,6.5176,6.5176,6.5176,6.5176,6.4747,6.3325,6.4181,6.4145,6.1434,6.3325,6.4609,6.3254,6.4253,6.5073,6.5073,6.5073,6.5073,6.5073,6.5073,6.518,6.5358,6.518,6.518,6.5394,6.5394,6.5287,6.5073,6.5073,6.4431,6.3075,6.3075,6.2183,6.0351,5.7632,5.7822,3.5376,3.6778,3.8029,3.8245,3.8274,3.8274,3.8274,3.8274,3.8274,3.8274,3.9012,3.9946,4.0678,4.1596,4.2479,4.3225,4.3368,4.3368,4.3368,4.4267,4.4983,4.5075,4.6137,4.6946,4.7021,4.7021,4.7021,4.7021,4.7271,4.7984,4.9308,5.0009,5.1254,5.3248,5.3769,5.5024,5.6981,5.6981,5.7728,5.9089,5.9089,5.9089,5.9089,5.9089,5.9089,5.9089,5.9089,5.9089,5.9089,5.9089,5.9089,5.9028,5.8516,5.8313,5.8284,5.7854,5.769,5.7621,5.7621,5.7369,5.7014,5.7014,5.6724,5.6395,5.668,5.6751,5.7143,5.9008,5.9294,5.9472,6.1042,6.2496,6.351,6.3396,6.295,6.2568,6.2502,6.2502,6.2502,6.2502,6.2502,6.225,6.1567,6.1648,6.1648,6.1113,6.147,6.172,6.147,6.1684,6.1827,6.1827,6.1827,6.1827,6.1827,6.1827,6.2397,6.3717,6.254,6.2397,6.3753,6.3789,6.3182,6.1862,6.1827,6.1684,6.1434,6.1434,5.9995,5.7171,5.6615,5.6639,3.3764,3.5297,3.7246,3.7246,3.7773,3.8274,3.8274,3.8274,3.8274,3.8274,3.8944,3.9619,4.001,4.1142,4.21,4.2568,4.3027,4.3368,4.3368,4.4065,4.4701,4.5029,4.5971,4.6683,4.6984,4.7021,4.7021,4.7021,4.7021,4.7378,4.8091,4.8317,4.9356,5.128,5.1573,5.2791,5.5021,5.5059,5.5949,5.7766,5.7766,5.8252,5.9052,5.8177,5.8252,5.9089,5.8809,5.8696,5.8696,5.8696,5.8696,5.867,5.8434,5.8313,5.8313,5.8107,5.7887,5.7724,5.7724,5.7623,5.7406,5.6896,5.676,5.6724,5.6457,5.6359,5.668,5.8259,5.8116,5.7867,5.9436,6.0564,6.1286,6.0983,6.1368,6.1808,6.1801,6.162,6.1394,6.1394,6.1394,6.1394,6.144,6.0564,5.9543,5.8723,5.9971,6.0721,5.9936,6.0507,6.1006,6.1006,6.1006,6.1006,6.1006,6.1006,6.1327,6.2112,6.1434,6.1363,6.2112,6.1363,6.0614,5.9829,6.0614,6.0614,5.9793,5.9793,5.864,5.6375,5.639,5.6365,3.2354,3.3959,3.6385,3.6676,3.7345,3.793,3.8245,3.8274,3.8274,3.8274,3.874,3.9222,3.9421,4.0709,4.1775,4.1952,4.277,4.3368,4.3368,4.3789,4.4314,4.4843,4.5558,4.6254,4.6796,4.6946,4.7021,4.7021,4.7021,4.7021,4.7021,4.7021,4.7779,4.942,4.9453,5.0633,5.3067,5.3129,5.4094,5.6046,5.6046,5.6943,5.8514,5.7168,5.728,5.8566,5.8484,5.8489,5.8489,5.8489,5.8489,5.8489,5.8489,5.8434,5.8341,5.8462,5.8197,5.7854,5.7854,5.7825,5.7586,5.6772,5.676,5.6891,5.6501,5.6359,5.6608,5.7867,5.7331,5.6644,5.7902,5.8859,5.9305,5.8636,5.9758,6.0959,6.1043,6.0667,6.0307,6.0307,6.0252,6.0334,6.061,5.9293,5.7795,5.6537,5.853,5.973,5.8513,5.9544,6.0298,6.0195,6.0195,6.0149,6.0007,6.0007,6.0185,6.0507,6.0221,6.0185,6.0507,5.9044,5.8223,5.8223,5.9401,5.9436,5.8223,5.8223,5.7581,5.6359,5.6359,5.6359,3.453,3.5581,3.6684,3.7859,3.7345,3.6848,3.8029,3.8274,3.8274,3.8274,3.8344,3.8632,3.9288,4.0267,4.1173,4.1834,4.277,4.3368,4.3368,4.3789,4.4165,4.4215,4.5336,4.6096,4.6137,4.6683,4.7021,4.7021,4.7021,4.7021,4.7021,4.7021,4.7277,4.7795,4.7864,4.8964,5.1336,5.1361,5.2359,5.4438,5.4438,5.5261,5.6794,5.6644,5.6644,5.6868,5.8356,5.9028,5.9028,5.9028,5.9028,5.9028,5.9028,5.8721,5.8369,5.8834,5.8696,5.8255,5.8255,5.8045,5.7656,5.7215,5.6802,5.6448,5.6404,5.6359,5.6395,5.6537,5.6466,5.6395,5.6537,5.8025,5.9209,5.81,5.7985,5.8196,5.8543,5.8328,5.8024,5.8024,5.7768,5.7365,5.693,5.6689,5.6501,5.6359,5.7018,5.7456,5.7311,5.7734,5.7881,5.7532,5.7528,5.7324,5.6832,5.6832,5.7438,5.883,5.7581,5.7438,5.8865,5.7438,5.6573,5.6573,5.6715,5.6715,5.6573,5.6573,5.6501,5.6359,5.6359,5.6359,3.237,3.3475,3.4627,3.5291,3.6868,3.8029,3.7246,3.741,3.7788,3.8209,3.8274,3.8523,3.9288,4.0203,4.105,4.1834,4.277,4.3368,4.3368,4.3518,4.3789,4.4065,4.4937,4.5636,4.6013,4.6644,4.7021,4.7021,4.7021,4.7021,4.7021,4.7021,4.7132,4.7277,4.7517,4.8185,4.9353,4.9521,5.0611,5.2718,5.2718,5.3017,5.3616,5.3616,5.4176,5.5186,5.5859,5.5972,5.578,5.681,5.7219,5.7293,5.8235,5.8489,5.8341,5.8553,5.8489,5.8313,5.8313,5.8226,5.8014,5.7658,5.737,5.7181,5.7181,5.7181,5.7181,5.7181,5.7181,5.7181,5.7181,5.7806,5.839,5.813,5.8076,5.8137,5.8284,5.8014,5.7724,5.7724,5.7443,5.7137,5.7181,5.673,5.6457,5.6802,5.6724,5.6802,5.7134,5.7018,5.6978,5.7134,5.685,5.6589,5.6404,5.6359,5.6608,5.7296,5.6715,5.6608,5.7296,5.668,5.6359,5.6359,5.6359,5.6359,5.6359,5.6359,5.6359,5.6359,5.6359,5.6359,3.1525,3.2596,3.3795,3.4375,3.6279,3.7758,3.6897,3.7378,3.8079,3.8278,3.8454,3.8769,3.905,4.0203,4.1295,4.1596,4.26,4.3368,4.3368,4.3368,4.3465,4.386,4.464,4.5257,4.5723,4.653,4.7021,4.7021,4.7021,4.7021,4.7021,4.7021,4.7021,4.7021,4.7415,4.7801,4.8215,4.8448,4.9384,5.0961,5.0961,5.0961,5.0961,5.1484,5.2344,5.3503,5.4027,5.4009,5.3798,5.5495,5.6461,5.7019,5.8107,5.8462,5.8341,5.8489,5.8462,5.8313,5.8313,5.8313,5.8255,5.7891,5.7656,5.7552,5.7552,5.7552,5.7552,5.7552,5.7621,5.7724,5.7724,5.7924,5.8204,5.8462,5.8553,5.8553,5.8553,5.8197,5.7887,5.7887,5.7623,5.7369,5.7552,5.714,5.6814,5.6891,5.676,5.676,5.7094,5.6844,5.6724,5.7134,5.6808,5.6545,5.6404,5.6359,5.6359,5.6359,5.6359,5.6359,5.6359,5.6359,5.6359,5.6359,5.6359,5.6359,5.6359,5.6359,5.6359,5.6359,5.6359,5.6359,3.341,3.3984,3.4902,3.6231,3.5583,3.5087,3.6909,3.8631,3.9536,3.853,3.8944,3.9252,3.8454,4.0331,4.1716,4.0927,4.2223,4.3368,4.3368,4.3368,4.3368,4.3368,4.4382,4.5075,4.5075,4.6295,4.7021,4.7021,4.7021,4.7021,4.7021,4.7021,4.7021,4.7021,4.7415,4.7801,4.8215,4.8448,4.8826,4.9185,4.9185,4.9185,4.9259,5.0961,5.1709,5.1821,5.3503,5.4214,5.4363,5.5934,5.7541,5.9052,5.9052,5.8747,5.8369,5.8896,5.8784,5.8313,5.8313,5.8313,5.8255,5.7891,5.7443,5.7173,5.7173,5.7173,5.7173,5.7173,5.7443,5.7724,5.7724,5.8387,5.9089,5.9089,5.9089,5.9089,5.9089,5.8696,5.8313,5.8313,5.7983,5.7586,5.7215,5.7443,5.7407,5.6501,5.6808,5.7134,5.7173,5.7134,5.7134,5.7173,5.7134,5.6932,5.6404,5.6359,5.6359,5.6359,5.6359,5.6359,5.6359,5.6359,5.6359,5.6359,5.6359,5.6359,5.6359,5.6359,5.6359,5.6359,5.6359,5.6359,3.3596,3.4002,3.4158,3.5662,3.6385,3.7219,3.9267,3.978,3.9902,3.9983,3.9715,3.9554,3.9976,4.0678,4.1508,4.2396,4.3004,4.3368,4.3368,4.3368,4.3368,4.3368,4.4416,4.5075,4.5075,4.6295,4.7021,4.7021,4.7021,4.7021,4.7021,4.7021,4.7021,4.7021,4.7679,4.8072,4.8215,4.8737,4.9069,4.9185,4.9185,4.9185,4.9185,4.9708,4.997,5.0007,5.055,5.0774,5.0811,5.1297,5.2494,5.4251,5.6495,5.7959,5.8858,5.9028,5.9005,5.8834,5.8834,5.8606,5.8341,5.859,5.8358,5.7951,5.7951,5.7951,5.7951,5.7951,5.8045,5.8197,5.8563,5.8871,5.9089,5.9089,5.9089,5.9089,5.9089,5.8944,5.8834,5.8834,5.8434,5.8107,5.7951,5.7858,5.7656,5.7333,5.7443,5.748,5.7212,5.7586,5.7758,5.7215,5.7173,5.7094,5.6932,5.6589,5.6359,5.6359,5.6682,5.6724,5.6404,5.6359,5.6359,5.6359,5.6359,5.5869,5.4763,5.4763,5.4228,5.3193,5.2467,5.214,3.5951,3.6238,3.6161,3.74,3.7842,3.8404,3.9892,3.9562,3.9028,3.9344,3.9528,3.9748,4.0329,4.1632,4.2815,4.355,4.39,4.3992,4.3433,4.3368,4.3368,4.3368,4.4416,4.5075,4.5075,4.6295,4.7021,4.7021,4.7021,4.7021,4.7021,4.7021,4.7095,4.7277,4.7863,4.8234,4.8368,4.8907,4.9185,4.9185,4.9185,4.9185,4.9185,4.9185,4.9185,4.9185,4.9185,4.9185,4.9222,4.9857,5.0774,5.197,5.4625,5.6681,5.814,5.814,5.8551,5.9089,5.9089,5.8896,5.867,5.9005,5.8721,5.8313,5.8313,5.8313,5.8313,5.8313,5.8462,5.8696,5.9005,5.9089,5.9089,5.9089,5.9089,5.9089,5.9089,5.9089,5.9089,5.9089,5.8834,5.8553,5.8341,5.8293,5.8113,5.7792,5.7854,5.7789,5.7443,5.7792,5.7887,5.7443,5.7369,5.7369,5.7369,5.7061,5.6814,5.6675,5.5976,5.5402,5.5054,5.5054,5.5054,5.5054,5.4887,5.4338,5.3375,5.3205,5.2658,5.1695,5.1042,5.0752,3.9659,3.9869,4.0077,4.0641,3.9822,3.9054,3.9512,3.8637,3.7646,3.749,3.8766,3.9881,3.9969,4.2844,4.4987,4.4206,4.4942,4.5143,4.3729,4.3532,4.3532,4.3532,4.4449,4.5075,4.5075,4.6295,4.7021,4.7021,4.7021,4.7021,4.7021,4.7021,4.7205,4.7581,4.7984,4.8342,4.8569,4.8991,4.9147,4.9128,4.9109,4.9165,4.9185,4.9146,4.9109,4.9128,4.9128,4.9128,4.924,5.0867,5.1522,5.1709,5.3391,5.4924,5.6233,5.6345,5.7392,5.8715,5.8715,5.8827,5.8925,5.8925,5.8672,5.8369,5.8341,5.8313,5.8313,5.8313,5.8696,5.9089,5.9089,5.9089,5.9089,5.9089,5.9089,5.9089,5.9089,5.9089,5.9089,5.9089,5.9052,5.8896,5.8369,5.8696,5.8707,5.7891,5.8076,5.8197,5.7825,5.7825,5.7825,5.7792,5.7682,5.7609,5.7609,5.7465,5.7222,5.6891,5.4377,5.2929,5.2897,5.2897,5.2828,5.2833,5.2499,5.2213,5.2068,5.1682,5.148,5.1373,5.1373,5.1373,3.98,4.0209,4.0627,4.0662,4.1753,4.2881,4.3115,4.1312,3.9817,4.0534,4.0243,4.0193,4.1248,4.2191,4.2963,4.346,4.5521,4.659,4.5176,4.4979,4.4979,4.4979,4.5092,4.5075,4.5075,4.6295,4.7021,4.7021,4.7021,4.7021,4.7021,4.7021,4.7095,4.7169,4.7832,4.8243,4.8288,4.8885,4.9032,4.8745,4.8547,4.8704,4.9185,4.8644,4.851,4.8745,4.8745,4.8745,4.8804,4.9499,4.9745,4.9932,5.1634,5.2531,5.3017,5.4289,5.5036,5.5373,5.5373,5.6158,5.713,5.713,5.7945,5.8834,5.8434,5.8313,5.8313,5.8313,5.8696,5.9089,5.9089,5.9089,5.9089,5.9089,5.9089,5.9089,5.9089,5.9089,5.9089,5.9089,5.8747,5.8462,5.8341,5.8137,5.8082,5.8167,5.8255,5.8284,5.8197,5.8526,5.8617,5.8226,5.7117,5.6405,5.6385,5.4939,5.408,5.4299,5.3714,5.3157,5.2897,5.2897,5.2735,5.2428,5.2357,5.156,5.007,4.9954,4.9269,4.8127,4.8127,4.8127,4.2182,4.275,4.3164,4.2844,4.3798,4.4677,4.4024,4.2456,4.1221,4.147,4.1165,4.0989,4.1545,4.269,4.3713,4.4265,4.5603,4.636,4.5603,4.4913,4.4486,4.4486,4.4586,4.4654,4.4654,4.5809,4.6605,4.6605,4.6872,4.7021,4.7021,4.7021,4.7132,4.7276,4.7743,4.8014,4.8215,4.8691,4.8789,4.8617,4.8644,4.8841,4.9185,4.8644,4.8448,4.8617,0.0,4.8617,4.864,4.9011,4.9185,4.9259,5.0213,5.055,5.0774,5.2457,5.3055,5.3167,5.3952,5.4775,5.5485,5.5485,5.6121,5.6787,5.6549,5.6946,5.7505,5.7505,5.718,5.6868,5.6868,5.6868,5.6868,5.6868,5.6868,5.6868,5.6868,5.6868,5.6868,5.6868,5.662,5.6425,5.6425,5.6245,5.6192,5.6412,5.6425,5.6425,5.6425,5.6681,5.6764,5.6463,5.5705,5.5184,5.5197,5.4156,5.3586,5.3796,5.2345,5.1396,5.1198,5.1172,5.0974,5.0591,5.0477,4.9818,4.8605,4.8384,4.7842,4.7021,4.7021,4.7021,4.4972,4.5696,4.6199,4.5843,4.5757,4.541,4.4095,4.3038,4.2178,4.1786,4.1891,4.1994,4.1704,4.3608,4.5242,4.5439,4.5308,4.5242,4.5439,4.4453,4.3696,4.3696,4.4045,4.4265,4.4265,4.547,4.6213,4.6213,4.6722,4.7021,4.7021,4.7021,4.7169,4.7515,4.7581,4.777,4.813,4.8357,4.8522,4.8617,4.887,4.9069,4.9147,4.8722,4.8569,4.8617,0.0,4.8617,4.864,4.9011,4.9185,4.9185,4.9185,4.9185,4.9334,5.0811,5.1335,5.1522,5.2943,5.3616,5.384,5.384,5.4027,5.4214,5.4214,5.5149,5.6158,5.5859,5.5036,5.4214,5.4214,5.4214,5.4214,5.4214,5.4214,5.4214,5.4214,5.4214,5.4214,5.4214,5.4193,5.4113,5.4113,5.4069,5.4047,5.4113,5.4113,5.4134,5.4214,5.4214,5.4214,5.4214,5.3969,5.3798,5.384,5.3557,5.3387,5.3466,5.0774,4.9185,4.9185,4.9185,4.8991,4.8579,4.8383,4.8036,4.7614,4.7312,4.7095,4.7021,4.7021,4.7021,4.5078,4.6233,4.7454,4.7709,4.696,4.6121,4.5871,4.434,4.3173,4.3736,4.313,4.271,4.3543,4.3698,4.4091,4.5275,4.4486,4.4124,4.5308,4.5275,4.5143,4.5143,4.5059,4.4937,4.4937,4.6096,4.6872,4.6872,4.6984,4.7021,4.7021,4.7021,4.7058,4.7132,4.745,4.7647,4.7743,4.777,4.8057,4.8617,4.8446,4.8657,4.9185,4.8547,4.8383,4.8617,4.8617,0.0,4.864,4.9011,4.9185,4.9185,4.9185,4.9185,4.9222,4.9446,4.9558,4.9596,4.9857,5.0886,5.2083,5.2083,5.3055,5.4214,5.4214,5.4401,5.4289,5.2868,5.3316,5.4214,5.4214,5.4214,5.4214,5.4214,5.4214,5.4214,5.4214,5.4214,5.4214,5.4214,5.3881,5.3574,5.3574,5.3308,5.3194,5.3523,5.3574,5.3711,5.4193,5.4214,5.4214,5.4214,5.2675,5.1713,5.2062,5.0492,4.9592,4.9932,4.9446,4.9185,4.9185,4.9185,4.8991,4.8579,4.8569,4.8215,4.7614,4.7548,4.7346,4.7021,4.7021,4.7021,4.5615,4.6734,4.7989,4.8188,4.8045,4.7839,4.7828,4.6953,4.6066,4.5925,4.5047,4.4195,4.4145,4.3685,4.3828,4.5242,4.5571,4.5603,4.5505,4.4814,4.4321,4.4321,4.4256,4.4267,4.4558,4.5426,4.6137,4.6491,4.6834,4.7021,4.7021,4.7021,4.7021,4.7021,4.7205,4.7415,4.7614,4.7832,4.8178,4.8617,4.8691,4.8885,4.9147,4.8667,4.8473,4.8617,4.8617,4.8617,4.864,4.9011,4.9185,4.9185,4.9185,4.9185,4.9185,4.9185,4.9185,4.9185,4.9185,4.9671,5.0363,5.0363,5.0886,5.1484,5.1484,5.1484,5.1335,5.055,5.0886,5.1484,5.1484,5.1484,5.1484,5.1484,5.1484,5.1484,5.1484,5.1484,5.1484,5.1484,5.1287,5.114,5.114,5.0964,5.0916,5.1118,5.114,5.1244,5.1465,5.1484,5.1484,5.1484,5.0615,5.0147,5.0343,4.9459,4.8991,4.9147,4.9185,4.9185,4.9185,4.9185,4.9109,4.8912,4.8722,4.8372,4.7924,4.7924,4.7743,4.7346,4.7346,4.7241,4.6274,0.0,4.8205,4.8225,4.8699,4.9185,0.0,4.8864,4.8383,4.7639,4.6523,4.5409,4.449,4.3789,4.3729,4.4814,4.5899,4.6228,4.5143,4.4058,4.3499,4.3828,4.3696,4.3851,4.4603,4.5083,4.5514,4.6013,4.6683,4.7021,4.7021,4.7021,4.7021,4.7021,4.7021,4.7241,4.7614,4.8014,4.8315,4.8497,4.887,4.9032,4.9032,4.8745,4.864,4.8745,4.8745,4.8745,4.8767,4.9069,4.9185,4.9185,4.9185,4.9185,4.9185,4.9185,4.9185,4.9185,4.9185,4.9185,4.9185,4.9185,4.9185,4.9185,4.9185,4.9185,4.9185,4.9185,4.9185,4.9185,4.9185,4.9109,4.9051,4.9185,4.9109,4.9051,4.9147,4.9185,4.9185,4.9185,4.9185,4.9185,4.9185,4.9185,4.9185,4.9185,4.9185,4.9185,4.9185,4.9185,4.9185,4.9185,4.9185,4.9185,4.9185,4.9185,4.9185,4.9185,4.9185,4.9185,4.9185,4.9185,4.9185,4.9185,4.8891,4.863,4.8457,4.8298,4.7954,4.7517,4.7517,4.7347,0.0,4.7595,4.8205,4.8225,4.8699,4.9185,4.9185,4.887,0.0,4.8206,4.681,4.5537,4.5132,4.4098,4.3401,4.3499,4.3598,4.3631,4.3532,4.3433,4.3861,4.5176,4.4589,4.4671,4.6151,4.6109,4.6013,4.6054,4.6683,4.7021,4.7021,4.7021,4.7021,4.7021,4.7021,4.7241,4.7614,4.8014,4.8215,4.8243,4.8497,4.864,4.864,4.8617,4.8789,4.9128,4.9128,4.9128,4.9128,4.9147,4.9185,4.9185,4.9185,4.9185,4.9185,4.9185,4.9185,4.9185,4.9185,4.9185,4.9185,4.9185,4.9185,4.9185,4.9185,4.9185,4.9185,4.9185,4.9185,4.9185,4.9185,4.8912,4.8745,4.9109,4.8912,4.8745,4.9109,4.9185,4.9185,4.9185,4.9185,4.9185,4.9185,4.9185,4.9185,4.9185,4.9185,4.9185,4.9185,4.9185,4.9185,4.9185,4.9185,4.9185,4.9185,4.9185,4.9185,4.9185,4.9185,4.9185,4.9185,4.9185,4.9185,4.9185,4.9165,4.9128,4.9109,4.8472,4.7801,4.7095,4.7095,4.7058,4.6985,4.7595,4.8208,4.8213,4.8689,4.9185,4.9185,4.8891,4.8522,4.8261,4.6881,4.5537,4.5177,4.4149,4.3664,4.4551,4.4683,4.4683,4.4683,4.4683,4.4551,4.4223,4.3849,4.4023,4.4906,4.5314,4.5636,4.6054,4.6683,4.7021,4.7021,4.7021,4.7021,4.7021,4.7021,4.7241,4.7614,4.7807,4.7954,4.8215,4.8485,4.8617,4.8579,4.887,4.9032,4.9185,4.9185,4.9185,0.0,4.9185,4.9185,4.9185,4.9185,4.9185,4.9185,4.9185,4.9185,4.9185,4.9185,4.9185,4.9185,4.9185,4.9185,4.9185,4.9185,4.9185,4.9185,4.9185,4.9185,4.9185,4.9185,4.9051,4.9011,4.9128,4.8891,4.8722,4.9109,4.8864,4.862,4.8804,4.8691,4.862,4.8767,4.8811,4.8891,4.9128,4.9185,4.9185,4.9185,4.9185,4.9185,4.9185,4.9185,4.9185,4.9185,4.9185,4.9185,4.9185,4.9185,4.9185,4.9185,4.9185,4.9185,4.9185,4.9185,4.9185,4.9185,4.8928,4.8446,4.7739,4.7551,4.7277,4.6447,4.6878,4.7383,4.7399,4.796,4.8568,4.9073,4.8804,4.8372,4.7955,4.6595,4.5349,4.4902,4.3996,4.3696,4.465,4.4814,4.4814,4.4814,4.442,4.3762,4.2776,4.2677,4.2626,4.2457,4.3069,4.3654,4.4048,4.5113,4.5823,4.605,4.6473,4.6621,4.6307,4.6771,4.7205,4.745,4.7711,4.7863,4.8043,4.8398,4.8617,4.8579,4.8891,4.9089,4.9185,4.9185,4.9185,4.9185,4.9185,4.9185,4.9185,4.9185,4.9185,4.9185,4.9185,4.9185,4.9185,4.9185,4.9185,4.9185,4.9185,4.9185,4.9185,4.9185,4.9185,4.9185,4.9185,4.9185,4.9185,4.9185,4.9089,4.9011,4.9128,4.8826,4.8583,4.8949,4.8667,4.8383,4.8569,4.846,4.8383,4.8569,4.8522,4.8559,4.8841,4.8949,4.8991,4.8991,4.9109,4.9185,4.9185,4.9185,4.9185,4.9185,4.9185,4.9185,4.9185,4.9185,4.9185,4.9185,4.9185,4.9185,4.9185,4.9185,4.9185,4.9185,4.9069,4.876,4.8342,4.7984,4.7614,4.5124,4.516,4.5697,4.5665,4.6233,4.7222,4.8774,4.8644,4.7992,4.738,4.6062,4.489,4.4265,4.3685,4.3368,4.3313,4.3368,4.3368,4.328,4.2085,4.1132,4.1165,4.1165,4.0573,3.9011,3.9437,3.9816,3.985,4.1753,4.3215,4.3853,4.5253,4.5595,4.4702,4.62,4.6985,4.7021,4.7801,4.8014,4.7647,4.8294,4.8617,4.8617,4.8617,4.8811,4.9185,4.9185,4.9185,4.9185,4.9185,4.9185,4.9185,4.9185,4.9185,4.9185,4.9185,4.9185,4.9185,4.9185,4.9185,4.9185,4.9185,4.9185,4.9185,4.9185,4.9185,4.9185,4.9185,4.9185,4.9185,4.9185,4.8891,4.8685,4.9089,4.8667,4.8288,4.8546,4.8617,4.8593,4.8617,4.8593,4.8593,4.8617,4.8383,4.8215,4.8215,4.8435,4.8617,4.8617,4.8933,4.9185,4.9185,4.9185,4.9185,4.9185,4.9185,4.9185,4.9185,4.9185,4.9185,4.9185,4.9185,4.9185,4.9185,4.9185,4.9185,4.9185,4.8789,4.8579,4.8556,4.8268,4.7948,4.5016,4.5051,4.5202,4.4255,4.4189,4.4857,4.6717,4.6622,4.6296,4.6701,4.5891,4.489,4.4366,4.3751,4.3115,4.2479,4.209,4.147,4.0374,3.9461,3.8721,3.8263,3.8209,3.821,3.8192,3.835,3.8846,3.9771,4.0804,4.17,4.2237,4.2273,4.2308,4.253,4.3314,4.4274,4.5416,4.5625,4.6365,4.7647,4.8094,4.8435,4.8579,4.8891,4.9051,4.9185,4.9185,4.9185,4.9185,4.9185,4.9185,4.9185,4.9185,4.9185,4.9185,4.9185,4.9185,4.9185,4.9185,4.9185,4.9185,4.9185,4.9185,4.9185,4.9185,4.9185,4.9185,4.9185,4.9185,4.9185,4.9185,4.9109,4.9032,4.9165,4.8826,4.8497,4.8593,4.8241,4.8007,4.8288,4.8085,4.8057,4.8522,4.8383,4.8379,4.8819,4.8722,4.8685,4.8954,4.9109,4.9185,4.9185,4.9185,4.9185,4.9185,4.9185,4.9185,4.9185,4.9185,4.9185,4.9185,4.9185,4.9185,4.9185,4.9185,4.9185,4.9185,4.7932,4.7073,4.6501,4.5306,4.4483,4.4199,4.4036,4.3989,4.2752,4.2503,4.3229,4.5694,4.5846,4.5618,4.6125,4.5634,4.4877,4.4081,4.3323,4.2463,4.142,4.0894,4.0043,3.838,3.7742,3.7238,3.6534,3.6183,3.6068,3.6169,3.6449,3.6789,3.7319,3.8525,3.9147,3.9116,3.9358,3.9828,4.0656,4.1577,4.2602,4.3774,4.3908,4.4533,4.569,4.6727,4.7374,4.7712,4.8572,4.9032,4.9185,4.9185,4.9109,4.897,4.9109,4.9089,4.897,4.9109,4.9185,4.9185,4.9185,4.9185,4.9185,4.9185,4.9185,4.9185,4.9185,4.9185,4.9185,4.9185,4.9185,4.9185,4.9185,4.9185,4.9185,4.9185,4.9185,4.9128,4.8991,4.8583,4.8215,4.8215,4.7918,4.7711,4.7924,4.7894,4.7977,4.8383,4.8315,4.8352,4.8751,4.8677,4.8663,4.8912,4.9089,4.9185,4.9185,4.9185,4.9185,4.9185,4.9185,4.9185,4.9259,4.9259,4.9259,4.9353,4.9353,4.9316,4.9259,4.9259,4.8942,4.8232,4.7315,4.6269,4.5117,4.4055,4.3306,4.3064,4.2513,4.2354,4.1108,4.0923,4.1891,4.5205,4.5615,4.5359,4.5595,4.5296,4.464,4.3465,4.2382,4.1286,3.9921,3.9474,3.8616,3.6691,3.6324,3.6028,3.5393,3.4691,3.4022,3.3495,3.4022,3.4203,3.3668,3.542,3.6161,3.5373,3.6681,3.7923,3.8863,4.0373,4.147,4.21,4.2335,4.2574,4.2777,4.4597,4.5667,4.6101,4.7549,4.8423,4.8736,4.8886,4.8767,4.8477,4.8957,4.8991,4.8685,4.9032,4.9185,4.9185,4.9185,4.9185,4.9185,4.9185,4.9185,4.9185,4.9185,4.9185,4.9185,4.9185,4.9185,4.9185,4.9185,4.9185,4.9185,4.9185,4.9185,4.9089,4.8745,4.816,4.7675,4.7647,4.7614,4.7614,4.7614,4.7894,4.8187,4.8206,4.8243,4.8243,4.8298,4.8485,4.8617,4.864,4.897,4.9185,4.9185,4.9185,4.9185,4.9185,4.9185,4.9259,4.9391,4.9391,4.9447,4.9577,4.9577,4.9502,4.9372,4.926,4.8419,4.6866,4.6567,4.5577,4.3992,4.3657,4.3252,4.3163,4.2205,4.1254,3.946,3.8682,3.9249,4.2725,4.2929,4.288,4.4811,4.4762,4.3913,4.256,4.0788,3.9024,3.7379,3.5898,3.4384,3.2746,3.2665,3.2524,3.1892,3.1623,3.1709,3.2075,3.2736,3.3194,3.3621,3.4495,3.4962,3.4795,3.545,3.5986,3.6225,3.7321,3.8582,3.9953,4.0285,4.1266,4.2777,4.351,4.4058,4.4468,4.4983,4.5262,4.5427,4.6773,4.7279,4.7353,4.8661,4.9128,4.9089,4.9128,4.9185,4.9185,4.9185,4.9185,4.9185,4.9185,4.9185,4.9185,4.9185,4.9185,4.9185,4.9185,4.9185,4.9185,4.9185,4.9185,4.9185,4.9185,4.9185,4.9185,4.9089,4.87,4.8241,4.7739,4.7614,4.7614,4.7614,4.7675,4.7918,4.8423,4.8368,4.8405,4.8885,4.8745,4.8722,4.9011,4.9128,4.9185,4.9185,4.9185,4.9222,4.9316,4.9353,4.9391,4.9503,4.9535,4.9538,4.9576,4.9576,4.9538,4.9538,4.8239,4.7372,4.7016,4.4343,4.258,4.1716,4.051,3.9564,4.2876,4.1836,4.0831,3.798,3.7161,3.7712,4.0317,4.0515,4.0736,4.2615,4.239,4.1579,4.0859,3.8605,3.6423,3.5026,3.3414,3.1785,3.0031,3.083,3.133,3.062,3.0841,3.1252,3.1686,3.1911,3.2392,3.3097,3.376,3.3976,3.37,3.4215,3.4824,3.5353,3.6161,3.7045,3.8127,3.8524,3.9224,4.0281,4.122,4.1889,4.227,4.3355,4.3952,4.42,4.5205,4.5523,4.5448,4.642,4.6737,4.6657,4.7652,4.8045,4.8157,4.8905,4.9185,4.9185,4.9185,4.9185,4.8923,4.7372,4.7409,4.8026,4.7852,4.8415,4.9109,4.8797,4.8782,4.887,4.8774,4.8804,4.887,4.8751,4.8654,4.8423,4.777,4.7448,4.7346,4.7346,4.7481,4.7739,4.8085,4.8278,4.851,4.8848,4.8891,4.8933,4.9165,4.9185,4.9185,4.9185,4.9222,4.9316,4.9391,4.9452,4.9528,4.963,4.9598,4.9569,4.9645,4.9657,4.9275,4.8393,4.755,4.6308,4.4605,4.2831,4.1405,4.0253,3.9209,3.8432,3.9276,3.9731,3.9987,3.2727,3.3566,3.6309,3.6593,3.6858,3.7582,3.927,3.8846,3.8141,3.8163,3.5583,3.3212,3.2417,3.0757,2.9254,2.8098,2.951,3.0471,2.9998,3.0529,3.0971,3.1089,3.1079,3.1423,3.2169,3.248,3.2499,3.224,3.2888,3.3756,3.4799,3.5406,3.6018,3.6662,3.7193,3.7405,3.7441,3.8907,3.9777,4.0136,4.1879,4.2846,4.3172,4.3676,4.3697,4.3445,4.4069,4.4107,4.4023,4.5729,4.6417,4.6567,4.7858,4.8344,4.8344,4.8344,4.8344,4.7895,4.5203,4.5223,4.6289,4.5974,4.6967,4.8051,4.7495,4.7561,4.7731,4.7532,4.7647,4.7731,4.7495,4.7768,4.7889,4.7339,4.7131,4.7021,4.7021,4.7276,4.7548,4.7614,4.8085,4.8473,4.8522,4.8848,4.9089,4.9089,4.9128,4.9185,4.9222,4.9316,4.9372,4.943,4.956,4.9634,4.9773,4.9659,4.9657,4.9712,4.9464,4.8618,4.7087,4.6645,4.4927,4.2044,4.1742,4.0834,3.9346,3.8803,3.8491,2.6297,3.2278,3.7169,1.5962,2.2968,3.3749,2.8885,2.889,3.089,3.4219,3.4284,3.3708,3.3886,3.0693,2.8327,2.907,2.6079,2.4452,2.6726,2.7237,2.7693,2.8379,2.8561,2.8621,2.8648,2.9134,2.9771,3.0584,2.9315,2.9144,3.0379,3.128,3.2148,3.2811,3.3571,3.449,3.5592,3.6523,3.7001,3.7034,3.8147,3.8707,3.8776,3.9606,4.0001,4.0146,4.1523,4.2121,4.2162,4.3691,4.4289,4.4271,4.4567,4.4642,4.468,4.4867,4.4941,4.4941,4.4941,4.4941,4.4904,4.4455,4.433,4.4303,4.4262,4.4206,4.4095,4.3997,4.4263,4.4537,4.4516,4.4516,4.4537,4.4516,4.5122,4.5704,4.5649,4.6377,4.7021,4.7021,4.7095,4.7241,4.7548,4.7675,4.7894,4.8206,4.851,4.8663,4.8663,4.8991,4.9222,4.9353,4.9353,4.9469,4.967,4.9729,4.9733,4.9773,4.9735,4.9683,4.9602,4.8306,4.7446,4.7231,4.4454,4.2742,4.2175,4.0703,3.9612,3.8937,3.8882,3.8579,1.9829,1.8249,1.64,0.3042,0.7183,1.4281,1.3467,1.6121,1.9943,2.4106,2.5618,2.6322,2.652,2.4818,2.3237,2.2931,2.1819,2.1319,2.2649,2.468,2.6174,2.6611,2.7199,2.7477,2.7399,2.7195,2.7587,2.8821,2.6887,2.6471,2.8168,2.8969,2.9966,3.1227,3.2015,3.3179,3.4799,3.5943,3.6627,3.6935,3.737,3.7712,3.7993,3.8474,3.8758,3.8955,3.9772,4.0267,4.0567,4.1277,4.1614,4.1689,4.2548,4.2885,4.2997,4.3969,4.4306,4.4306,4.4306,4.2967,4.1258,4.1258,4.1816,4.2477,4.227,4.2722,4.3273,4.2915,4.3019,4.3259,4.3119,4.3332,4.3542,4.3298,4.3911,4.4446,4.396,4.4299,4.4615,4.4451,4.513,4.5773,4.5948,4.6906,4.7679,4.7832,4.8268,4.8283,4.737,4.8411,4.8886,4.8026,4.8009,4.7778,4.7114,4.7039,4.7039,4.7039,4.7785,4.7794,4.6755,4.698,4.6214,4.4328,4.2972,4.178,4.0747,3.9947,3.9401,3.9189,3.8842,3.8536,1.0991,0.5216,-0.0358,-1.1017,-0.8354,-0.2877,-0.2046,0.2121,0.7152,1.1758,1.4381,1.6201,1.7473,1.6563,1.5754,1.5918,1.5924,1.6405,1.7677,2.0662,2.3054,2.3876,2.4896,2.5634,2.5807,2.5212,2.4481,2.3692,2.219,2.2294,2.4453,2.5452,2.7015,2.9228,3.0136,3.1585,3.3659,3.454,3.5462,3.6488,3.6999,3.738,3.7671,3.8071,3.8414,3.8601,3.8919,3.9189,3.9467,3.9346,3.9292,3.9425,4.053,4.0995,4.1195,4.2411,4.2876,4.2929,4.2929,4.1146,3.8845,3.8788,3.9595,4.0485,4.0194,4.0962,4.1744,4.1287,4.1338,4.1539,4.1354,4.164,4.1922,4.1644,4.223,4.2711,4.2139,4.2288,4.2458,4.2379,4.3206,4.3954,4.406,4.5367,4.6383,4.6383,4.7315,4.7444,4.5828,4.6975,4.754,4.642,4.6375,4.6029,4.4989,4.4913,4.4834,4.4723,4.5697,4.5691,4.4292,4.5038,4.4311,4.1816,4.1421,4.0721,3.9506,3.9445,3.9432,3.9424,3.8881,3.8528,-0.4584,-0.3413,-0.277,-2.8528,-2.1273,-0.9231,-1.4627,-1.2068,-0.7102,-0.2261,0.0342,0.284,0.633,0.4762,0.4207,0.841,0.7242,0.7451,1.2295,1.4374,1.6442,1.9588,2.0863,2.1949,2.3007,2.31,2.0101,1.2842,1.3246,1.5075,1.8186,2.0154,2.2853,2.6533,2.7515,2.9172,3.1603,3.1707,3.2909,3.531,3.7172,3.8039,3.8065,3.8601,3.8826,3.8882,3.926,3.943,3.943,3.9046,3.8919,3.8882,3.8732,3.8795,3.8993,3.8843,3.8927,3.9142,3.9142,3.9012,3.8863,3.8579,3.8393,3.8288,3.8226,3.802,3.7834,3.7775,3.8036,3.8345,3.8318,3.8345,3.8371,3.8345,3.9251,4.002,4.0024,4.0867,4.1788,4.2278,4.2072,4.1893,4.2421,4.2781,4.2998,4.2998,4.4939,4.5754,4.4102,4.4293,4.4605,4.4809,4.484,4.4841,4.4913,4.4913,4.4677,4.4188,4.4244,4.3995,4.3421,4.2073,4.1243,4.1093,3.9597,3.8918,3.9108,3.9221,3.9326,3.9454,3.9164,3.8587,-1.4975,-2.1479,-2.6942,-3.9922,-3.6923,-3.0637,-3.014,-2.5594,-1.9705,-1.3376,-0.878,-0.5042,-0.249,-0.1127,-0.0463,-0.0468,0.0782,0.2369,0.4255,0.791,1.1156,1.3049,1.5443,1.6541,1.5673,1.2293,0.8762,0.5337,0.6783,0.8904,1.135,1.2904,1.5836,2.0518,2.1003,2.3069,2.7056,2.7116,2.8438,3.1099,3.3961,3.6071,3.7349,3.7795,3.8136,3.8391,3.868,3.8937,3.9101,3.9189,3.926,3.9243,3.9158,3.9193,3.9243,3.9158,3.9193,3.9083,3.7988,3.7541,3.7369,3.7262,3.7398,3.7592,3.7592,3.7542,3.7525,3.7525,3.7613,3.7735,3.7735,3.7903,3.8039,3.7792,3.8252,3.856,3.8073,3.8334,3.8653,3.8858,3.8721,3.9037,4.0534,4.0802,4.1318,4.2571,4.2968,4.2922,4.2329,4.351,4.4078,4.3158,4.3061,4.2691,4.1724,4.1326,4.1078,4.0882,4.1668,4.1391,3.9802,4.0265,3.9855,3.8388,3.7848,3.7802,3.83,3.8524,3.887,3.9325,3.8905,3.8385,-1.9706,-3.0557,-3.9624,-4.556,-4.6014,-4.4171,-4.0971,-3.6058,-3.0481,-2.463,-1.9385,-1.5089,-1.2896,-1.0645,-0.9352,-1.0071,-0.8117,-0.6103,-0.4894,-0.0776,0.2949,0.5124,0.7913,0.9298,0.8223,0.1699,-0.2972,-0.4088,-0.2158,0.0155,0.2611,0.4455,0.7584,1.247,1.2618,1.4957,1.9949,1.963,2.1272,2.4914,2.8583,3.1329,3.3106,3.5724,3.7489,3.8514,3.8767,3.8963,3.9158,3.9307,3.9308,3.9179,3.9064,3.9086,3.9155,3.8899,3.8594,3.8176,3.6945,3.5683,3.4622,3.4822,3.5261,3.5758,3.6035,3.6717,3.7252,3.7125,3.7283,3.7466,3.738,3.7531,3.7649,3.738,3.7375,3.7278,3.6799,3.6522,3.6451,3.6662,3.6522,3.6941,3.8604,3.8879,3.9426,4.0953,4.0669,4.0279,4.0279,4.1684,4.2345,4.1405,4.1338,4.0926,3.988,3.9335,3.8994,3.888,3.9886,3.9784,3.8244,3.8856,3.8566,3.7076,3.638,3.6276,3.6792,3.7388,3.8029,3.8604,3.856,3.8134,-1.9226,-2.9474,-3.8314,-4.5567,-4.7844,-4.7923,-4.6434,-4.2951,-3.9155,-3.5913,-3.1558,-2.75,-2.4814,-2.4009,-2.2912,-2.0236,-1.949,-1.8086,-1.473,-1.1569,-0.8078,-0.4027,-0.172,-0.0078,0.0692,-0.8147,-1.4358,-1.5593,-1.3846,-1.1324,-0.8101,-0.5126,-0.1685,0.2325,0.2474,0.4925,1.0106,0.9101,1.1285,1.65,2.0766,2.3371,2.4668,3.1571,3.6148,3.8682,3.8925,3.929,3.9625,3.9397,3.9042,3.8672,3.8272,3.8376,3.8516,3.6993,3.5894,3.5076,3.4785,3.2542,2.9919,3.0768,3.1476,3.2161,3.3248,3.505,3.6696,3.6237,3.6728,3.7309,3.6933,3.6868,3.6868,3.6799,3.6487,3.6127,3.6089,3.5637,3.5473,3.5977,3.571,3.5671,3.6696,3.6901,3.7196,3.7931,3.8039,3.8101,3.8101,3.8652,3.9227,3.9634,3.9653,3.9662,3.9617,3.9265,3.888,3.8542,3.9107,3.9314,3.907,3.7979,3.7338,3.7295,3.5278,3.435,3.4567,3.5845,3.6712,3.7268,3.8174,3.7672,-2.0813,-3.1628,-3.9108,-4.464,-4.8168,-4.9763,-4.7679,-4.6202,-4.3844,-3.8634,-3.4892,-3.1707,-2.8753,-2.6962,-2.5637,-2.4708,-2.3492,-2.2241,-2.0813,-1.7976,-1.5538,-1.4124,-1.1506,-1.1841,-1.6924,-1.9267,-2.1166,-2.2691,-2.0927,-1.8798,-1.6565,-1.4846,-1.224,-0.8618,-0.8469,-0.6686,-0.2881,-0.3136,-0.151,0.1924,0.4185,0.5419,0.5821,0.8804,1.5378,2.4474,2.4751,3.0547,3.98,3.9627,3.9463,3.9378,3.928,3.9303,3.7165,1.8782,1.1815,1.1377,1.0456,0.9291,0.9037,1.4125,1.8235,2.1949,2.584,2.9933,3.3324,3.4193,3.4634,3.4798,3.4708,3.5519,3.5952,3.4376,3.4714,3.5231,3.4369,3.4064,3.4019,3.4163,3.4445,3.4892,3.554,3.6382,3.7001,3.7228,3.726,3.7441,3.8012,3.844,3.8919,3.9588,3.9636,3.9575,3.9363,3.8956,3.879,3.9157,3.9168,3.9012,3.8682,3.8312,3.7734,3.6777,3.5229,3.4395,3.4195,3.4457,3.4781,3.5234,3.6035,3.533,-1.6376,-2.7264,-3.6671,-4.2226,-4.636,-4.8786,-4.7521,-4.6856,-4.5322,-4.1282,-3.7949,-3.5315,-3.3531,-3.1982,-3.0943,-3.1013,-3.0201,-2.9101,-2.7693,-2.566,-2.3551,-2.1693,-2.2303,-2.4649,-2.9203,-2.8297,-2.7963,-2.9146,-2.7739,-2.6259,-2.4769,-2.317,-2.1165,-1.89,-1.863,-1.7129,-1.421,-1.4586,-1.3366,-1.0524,-0.7907,-0.6474,-0.6019,-0.2567,0.3225,1.0645,1.1812,1.6892,2.4302,2.3824,2.4102,2.4838,2.4449,2.4901,2.3974,0.8679,0.228,0.1063,-0.0277,-0.1991,-0.2783,0.1913,0.5482,0.8672,1.2565,1.9764,2.6146,2.4296,2.9349,3.4514,3.0882,3.2398,3.4459,3.2498,3.2562,3.2861,3.2201,3.2083,3.2083,3.2083,3.2637,3.3411,3.4237,3.5198,3.5949,3.6168,3.6592,3.7129,3.7792,3.8222,3.8689,3.9265,3.9477,3.947,3.919,3.8469,3.8166,3.854,3.8704,3.8717,3.847,3.8264,3.7589,3.6416,3.4764,3.334,3.2254,3.2261,3.2228,3.2198,3.11,2.8413,-0.985,-1.971,-3.1504,-3.8581,-4.3263,-4.6153,0.0,-4.5772,-4.4856,-4.3239,-4.0564,-3.8426,-3.8249,-3.7492,-3.7004,-3.7532,-3.7599,-3.6838,-3.4609,-3.3504,-3.1582,-2.8174,-3.2777,-3.6395,-3.6868,-3.5251,-3.4378,-3.4965,-3.4097,-3.3175,-3.2322,-3.01,-2.8682,-2.8171,-2.7701,-2.6434,-2.4231,-2.5142,-2.4268,-2.1511,-1.7639,-1.5568,-1.4894,-0.9202,-0.61,-0.4956,-0.1173,0.0473,0.0541,0.1138,0.1796,0.2374,0.2847,0.2827,0.2285,0.0397,-0.1847,-0.415,-0.5718,-0.8473,-1.0889,-0.8482,-0.7101,-0.5828,-0.3246,0.6408,1.5342,0.9864,2.067,3.2197,2.4939,2.7402,3.1483,2.9947,2.9365,2.9061,2.8721,2.8976,2.9288,2.9373,3.0324,3.1482,3.2704,3.3666,3.4412,3.4882,3.5915,3.6831,3.7375,3.8009,3.852,3.8822,3.9213,3.937,3.9107,3.798,3.737,3.7437,3.8097,3.8516,3.8605,3.8079,3.7259,3.6221,3.3881,3.1736,2.9775,2.9669,2.9316,2.8761,2.4451,1.9038,0.0,0.0,0.0,0.0,0.0,0.0,0.0,-4.5329,-4.5731,-4.2039,-4.1176,-4.0709,-3.9427,-3.9028,-3.901,-3.9333,-3.9338,-3.9194,-3.8718,-3.799,-3.7473,-3.7224,-3.8278,-3.9098,-3.9186,-3.8828,-3.9014,-3.9938,-3.8608,-3.756,-3.7144,-3.5398,-3.4272,-3.3951,-3.4056,-3.3782,-3.3092,-3.3486,-3.3197,-3.2177,-3.1213,-3.142,-3.2538,-3.0576,-3.0248,-3.0517,-1.8586,-1.3412,-1.2599,-0.2383,-0.2752,-0.8894,0.0258,-0.7142,-2.3369,-2.6303,-2.7814,-2.8575,-3.0009,-3.1078,-3.0832,-2.5014,-2.0654,-1.6871,-1.2041,-0.6496,-0.1662,-0.0742,0.5268,1.1764,1.3548,1.8617,2.2889,2.1672,2.2202,2.2463,2.014,2.1671,2.3823,2.4632,2.6796,2.8999,3.0601,3.2349,3.3479,3.3614,3.4346,3.5384,3.6866,3.752,3.8138,3.8799,3.9213,3.9408,3.9257,3.8053,3.7602,3.8214,3.8418,3.8734,3.9283,3.8455,3.7583,3.6622,3.3457,3.1269,3.0185,2.7433,2.6423,2.6899,1.8331,1.2527,0.0,0.0,0.0,0.0,0.0,0.0,0.0,0.0,0.0,0.0,0.0,-3.9531,-3.8716,0.0,-4.043,-4.1282,-4.1729,-4.1856,-4.145,-4.1133,-4.1695,-4.3773,-4.3099,-4.2531,-4.2745,-4.186,-4.1574,-4.2299,-4.1609,-4.1068,-4.091,-3.9128,-3.8156,-3.8263,-3.7347,-3.6982,-3.732,-3.7434,-3.7491,-3.7417,-3.7234,-3.7343,-3.7672,-3.7306,-3.7207,-3.6928,-3.0086,-2.696,-2.6203,-1.9752,-1.9494,-2.2679,-1.7028,-2.19,-3.215,-3.3589,-3.4513,-3.5323,-3.6888,-3.7708,-3.748,-3.3827,-3.1053,-2.859,-2.5438,-1.8983,-1.3045,-1.4542,-0.6499,0.2406,0.1895,0.6379,1.0836,0.9896,1.1336,1.23,0.9907,1.273,1.6221,1.7857,2.1446,2.4913,2.7242,2.8778,3.0313,3.1916,3.3485,3.4866,3.6172,3.7145,3.736,3.6422,3.6625,3.6757,3.6547,3.5581,3.5988,3.8236,3.8494,3.8311,3.7655,3.7472,3.6714,3.5271,3.2881,3.0669,2.8613,2.5413,2.3517,2.2648,1.5471,0.8238,0.0,0.0,0.0,0.0,0.0,0.0,0.0,0.0,0.0,0.0,0.0,0.0,0.0,0.0,0.0,-4.2853,-4.3864,-4.4317,-4.3897,-4.3882,-4.4938,-4.7772,-4.6677,-4.5801,-4.616,-4.4725,-4.3958,-4.4341,-4.4108,-4.3948,-4.4018,-4.2123,-4.1241,-4.1583,-3.9962,-3.9362,-4.0051,-4.009,-4.0113,-4.0089,-3.9822,0.0,-3.8127,-3.7998,-3.7369,-3.6417,-3.6662,-3.6522,-3.6163,-3.6311,-3.5399,-3.3977,-3.4325,-3.4366,-3.4101,-3.3954,-3.4509,-3.5561,-3.724,-3.822,-3.871,-3.8342,-3.7998,-3.7631,-3.6938,-3.0107,0.0,-2.7884,-1.78,-0.6446,-0.9824,-0.6226,-0.1778,-0.2122,-0.0478,0.0776,-0.1026,0.2654,0.7128,0.9891,1.4819,1.9748,2.3409,2.4689,2.6106,2.8902,3.1735,3.3835,3.4669,3.6401,3.6835,3.4996,3.4977,3.4985,3.4698,3.3313,3.4054,3.7666,3.7547,3.6628,3.5068,3.5283,3.4444,3.2392,3.0912,2.9107,2.6795,2.3994,2.1956,2.0416,1.3676,0.6036,0.0,0.0,0.0,0.0,0.0,0.0,0.0,0.0,0.0,0.0,0.0,0.0,0.0,0.0,0.0,0.0,-4.4766,-4.5872,-4.695,-4.7089,-4.7229,-4.7643,-4.7772,-4.7894,-4.7921,-4.771,-4.77,-4.799,-4.6694,-4.6064,-4.6438,-4.4923,0.0,0.0,0.0,-4.3809,-4.3571,-4.3785,-4.3162,-4.1718,-4.1325,-4.0391,-3.8882,-3.7882,-3.7311,-3.7136,-3.6523,-3.6235,-3.62,-3.6888,-3.6955,-3.6523,-3.6814,-3.621,-3.5259,-3.5962,-3.6333,-3.675,-3.8336,0.0,0.0,-3.9211,-3.9263,-3.9158,-3.8845,-3.8146,-3.7321,-3.6809,-3.1563,-2.5219,-2.1519,-1.6709,-1.2461,-1.1118,-1.0571,-1.0816,-1.238,-0.8757,-0.3726,0.1033,0.6933,1.3219,1.9947,2.1282,2.1714,2.2676,2.7153,3.0635,3.1209,3.462,3.7372,3.8218,0.0,0.0,3.7654,3.4044,3.317,3.6369,3.403,3.2416,3.2316,3.1174,2.9651,2.7815,2.5382,2.4999,2.6852,2.3816,2.3586,2.5598,1.1063,0.7047,0.0,0.0,0.0,0.0,0.0,0.0,0.0,0.0,0.0,0.0,0.0,0.0,0.0,0.0,0.0,0.0,-4.06,-4.3107,-4.3776,-4.5395,-4.6592,-4.6791,-4.7979,-4.8804,-4.8862,-4.8882,-4.8942,-4.9145,-4.8574,-4.8221,-4.8303,-4.6902,-4.602,-4.5816,-4.5024,-4.4571,-4.4447,-4.4495,-4.3653,-4.1968,-4.145,-4.0327,-3.8694,-3.7577,-3.709,-3.7129,-3.7708,-3.7428,-3.6732,-3.8423,-3.825,0.0,0.0,0.0,0.0,0.0,-3.6547,-3.6982,-3.7788,-3.8513,-3.9141,-3.9557,-3.9532,-3.9368,-3.9417,-3.9605,-3.9681,-3.8799,-3.6673,-3.3808,-3.003,-2.7311,-2.5215,-2.3935,-2.2359,-2.1412,-2.2303,-1.8456,-1.3067,-0.7347,-0.0374,0.0,0.843,1.3497,1.8201,2.147,2.6235,2.9871,3.1312,3.4332,3.6112,3.5574,3.5756,3.5731,3.5191,3.255,0.0,0.0,0.0,3.4347,3.546,3.3861,0.0,0.0,0.0,0.0,0.0,0.0,0.0,0.0,2.0814,1.8015,0.0,0.0,0.0,0.0,0.0,0.0,0.0,0.0,0.0,0.0,0.0,0.0,0.0,0.0,0.0,0.0,-3.3797,-3.6836,-3.6311,-4.0451,-4.397,-4.5346,-4.7334,-4.8631,-4.8748,-4.9151,-4.9465,-4.9584,-4.9555,-4.9544,-4.9441,-4.8487,-4.7908,-4.7812,-4.6639,-4.6013,-4.6081,-4.5956,-4.5045,-4.335,-4.2635,-4.1414,-3.9802,-3.8841,-3.8335,-3.8233,-3.9566,-3.939,-3.8302,-4.0221,-3.9694,-3.7872,-3.9422,-3.8717,-3.6714,-3.6335,-3.6314,-3.6592,-3.7252,-3.8146,-3.9051,-3.963,-3.96,-3.9417,-3.9591,-3.9748,-3.9734,-3.9324,-3.8947,-3.8167,-3.5796,-3.4915,-3.4373,-3.3483,-3.1691,-3.0196,-3.0199,-2.674,-2.1869,-1.5995,-0.9111,-0.3689,-0.1844,0.6647,1.4732,1.9391,2.4731,2.8863,3.0623,3.3834,3.556,3.4541,3.4846,3.4873,3.4251,3.1803,3.25,3.7592,3.5276,3.4886,3.7604,3.4665,3.1754,2.9252,2.5439,2.305,0.0,0.0,0.0,0.0,0.0,0.0,0.0,0.0,0.0,0.0,0.0,0.0,0.0,0.0,0.0,0.0,0.0,0.0,0.0,0.0,0.0,0.0,0.0,0.0,-2.4048,-3.1927,-3.9373,-4.3178,-4.5683,-4.7116,-4.7135,-4.8591,-4.9584,-4.9555,-4.9555,-4.9546,-4.9584,-4.9649,-4.9688,-4.9683,-4.9727,-4.9731,-4.9616,-4.9462,-4.8551,-4.6876,-4.5946,-4.4692,-4.3174,-4.252,-4.1859,-4.1282,-4.2,-4.1895,-4.1319,-4.2035,-4.1313,-3.9814,-4.0245,-3.9615,-3.8236,-3.6714,-3.5864,-3.5689,-3.7325,-3.8245,-3.8787,-3.9433,-3.9636,-3.9636,-3.9636,-3.9742,-3.981,-3.9506,-3.9326,-3.9087,-3.8348,-3.7858,-3.7453,-3.6918,-3.6729,-3.6415,-3.5513,-3.3448,-3.021,-2.5197,-2.0045,-1.448,-0.7887,0.2556,1.1177,1.4533,2.1468,0.0,2.7652,3.2561,3.6462,3.7834,3.8192,3.8017,3.7289,3.2987,3.2129,3.6331,3.2021,3.1559,3.6601,3.0676,2.7069,2.6544,2.5169,2.3988,2.3078,0.0,0.0,0.0,0.0,0.0,0.0,0.0,0.0,0.0,0.0,0.0,0.0,0.0,0.0,0.0,0.0,0.0,0.0,0.0,0.0,0.0,0.0,0.0,0.0,-2.474,-3.2112,-4.1063,-4.397,-4.5288,-4.5364,-4.5961,-4.6831,-4.8063,-4.8129,-4.8596,-4.9655,-4.9826,-4.9872,-4.9768,-4.9723,-4.968,-4.9606,-4.9523,-4.8608,-4.691,-4.6165,-4.4954,-4.3295,-4.1858,-4.1119,-4.0956,-4.1753,-4.1657,-4.107,-4.2814,-4.31,-4.2351,-4.1505,-3.984,-3.7632,-3.5708,-3.4639,-3.4348,-3.5475,-3.6354,-3.7292,-3.9079,-3.9643,-3.9638,-3.9545,-3.9659,-3.9802,-3.9522,-3.9497,-3.9474,-3.9127,-3.8969,-3.88,-3.8418,-3.8359,-3.8006,-3.6759,-3.5646,-3.3498,-2.8791,-2.1953,-1.5739,-1.1773,0.1188,1.2267,1.5767,2.1624,2.6508,2.895,3.2805,3.5891,3.7424,3.8116,3.8166,3.7359,3.4518,3.3828,3.6399,3.3414,3.2812,3.5592,3.2188,2.9491,2.7905,2.8145,2.5608,2.0291,0.0,0.0,0.0,0.0,0.0,0.0,0.0,0.0,0.0,0.0,0.0,0.0,0.0,0.0,0.0,0.0,0.0,0.0,0.0,0.0,0.0,0.0,0.0,0.0,0.0,0.0,-3.7295,-4.0736,0.0,-4.3193,-4.3396,-4.4337,-4.6396,-4.7066,-4.7874,-4.8821,-4.9507,-4.9848,-4.977,-4.9629,-4.9517,-4.9432,-4.9403,-4.8732,-4.7539,-4.6992,-4.6109,-4.5017,-4.331,-4.2432,-4.2254,-4.2813,-4.2768,-4.2297,-4.3584,-4.4005,-4.3595,-4.1676,-3.94,-3.7012,-3.5125,-3.3938,-3.3369,-3.402,-3.4976,-3.6172,-3.7601,-3.7819,-3.757,-3.7969,-3.7391,-3.6738,-3.7461,-3.7829,-3.8095,-3.8577,-3.8898,-3.9073,-3.9173,-3.9236,-3.8998,-3.7936,-3.7404,-3.6233,-3.3235,-2.3965,-1.5776,-1.3199,0.1095,1.3488,1.7378,2.2099,2.6394,2.9711,3.2885,3.5481,3.7151,3.7934,3.8076,3.7394,3.5346,3.4817,3.6461,3.3881,3.3009,3.4495,3.2061,2.9737,2.776,2.7633,2.5564,0.0,0.0,0.0,0.0,0.0,0.0,0.0,0.0,0.0,0.0,0.0,0.0,0.0,0.0,0.0,0.0,0.0,0.0,0.0,0.0,0.0,0.0,0.0,0.0,0.0,0.0,0.0,-3.1505,-3.5475,0.0,0.0,0.0,0.0,-4.3601,-4.5368,-4.6464,-4.6952,-4.854,-4.9488,-4.9493,-4.9371,-4.9234,-4.9082,-4.9214,-4.9108,-4.8774,-4.8374,-4.8178,-4.813,-4.6697,-4.568,-4.5075,-4.5029,-4.5029,-4.5029,-4.4311,-4.3862,-4.331,-4.047,-3.8114,-3.618,-3.4544,-3.324,-3.2306,-3.2815,-3.3908,-3.5126,-3.5304,-3.4318,-3.3283,-3.4438,-3.2413,0.0,0.0,-3.3391,-3.4069,-3.6027,-3.6863,-3.759,-3.8933,-3.9321,-3.9306,-3.9104,-3.8727,-3.8269,0.0,-2.5535,-1.4593,-1.1674,0.0,1.4728,1.8766,2.2627,2.6265,2.9649,3.2697,3.5293,3.7126,3.7788,3.7899,3.7359,3.538,3.4882,3.6461,3.3273,3.1951,3.337,3.0286,2.776,2.621,2.4204,0.0,0.0,0.0,0.0,0.0,0.0,0.0,0.0,0.0,0.0,0.0,0.0,0.0,0.0,0.0,0.0,0.0,0.0,0.0,0.0,0.0,0.0,0.0,0.0,0.0,0.0,-0.184,-1.404,-1.9325,-2.3223,-2.4413,0.0,0.0,0.0,0.0,0.0,0.0,-4.2859,-4.4592,-4.5405,-4.5679,-4.5571,-4.6196,-4.7543,-4.7618,-4.7977,-4.8656,-4.8323,-4.8068,-4.7707,-4.6078,-4.5246,-4.5029,-4.42,-4.4267,-4.496,-4.3226,-4.1043,-3.8477,-3.6238,-3.3517,-3.0763,-2.8856,-2.7354,-2.6457,-2.879,-2.9219,-2.9625,-3.5676,-3.1964,-2.4964,-2.4209,0.0,0.0,0.0,0.0,-1.6505,-2.3625,-2.4067,-2.4952,-3.3995,-3.5843,-3.6134,-3.8079,-3.8495,-3.5977,0.0,-1.6906,-0.782,-0.2733,0.8884,0.0,1.7938,2.2025,2.6029,2.8624,3.2257,3.5306,3.7149,3.7772,3.7899,3.7359,3.5313,3.4785,3.6461,3.3273,3.1951,3.337,2.9714,2.667,2.4847,0.0,0.0,0.0,0.0,0.0,0.0,0.0,0.0,0.0,0.0,0.0,0.0,0.0,0.0,0.0,0.0,0.0,0.0,0.0,0.0,0.0,0.0,0.0,0.0,0.0,0.0,0.0,0.8889,-0.2986,-0.7632,-1.1197,-1.2456,0.0,0.0,0.0,0.0,0.0,0.0,0.0,0.0,0.0,-4.051,-4.1103,-4.2187,-4.3976,-4.4927,-4.5273,-4.504,-4.5567,-4.5639,-4.5218,-4.4098,-4.3456,-4.3203,-4.2874,-4.1273,-3.8744,-3.7582,-3.5745,-3.3309,0.0,0.0,0.0,0.0,-1.6429,-1.4993,-1.6345,-1.7013,-1.8008,-2.2279,0.0,0.0,0.0,0.0,0.0,0.0,0.0,-0.6786,0.0,0.0,-1.5233,-2.9336,-2.9622,-2.8591,-3.5456,-3.1169,-2.4078,0.0,-0.8526,-0.0792,0.2739,1.2126,0.0,0.0,0.0,2.5443,2.8233,3.1659,3.4707,3.7064,3.78,3.7898,3.7359,3.5446,3.4919,3.6461,3.3273,3.1504,3.1984,2.8617,2.5542,0.0,0.0,0.0,0.0,0.0,0.0,0.0,0.0,0.0,0.0,0.0,0.0,0.0,0.0,0.0,0.0,0.0,0.0,0.0,0.0,0.0,0.0,0.0,0.0,0.0,0.0,0.0,0.0,0.0,1.1255,0.4451,0.0,0.0,0.0,0.0,0.0,0.0,0.0,0.0,0.0,0.0,0.0,0.0,0.0,-3.4294,-3.5771,-3.8874,-3.9267,-3.7076,-4.0199,-4.0914,-3.9601,-4.0232,-4.0031,-3.9116,-3.7983,0.0,-2.7256,-2.7471,0.0,0.0,0.0,0.0,0.0,0.0,0.0,0.0,0.0,0.0,0.0,0.0,0.0,0.0,0.0,0.0,0.0,0.0,0.0,0.0,0.0,0.0,-0.5802,-2.2559,-2.058,-1.7661,0.0,-1.8875,-0.8526,-0.7676,-0.051,0.5803,0.0,0.0,0.0,0.0,0.0,0.0,2.7708,3.0847,3.3988,3.691,3.769,3.7852,3.7459,3.5651,3.5125,3.6511,3.2998,3.0576,3.0017,2.7668,0.0,0.0,0.0,0.0,0.0,0.0,0.0,0.0,0.0,0.0,0.0,0.0,0.0,0.0,0.0,0.0,0.0,0.0,0.0,0.0,0.0,0.0,0.0,0.0,0.0,0.0,0.0,0.0,0.0,0.0,0.0,0.0,0.0,0.0,0.0,0.0,0.0,0.0,0.0,0.0,0.0,0.0,0.0,0.0,0.0,0.0,0.0,0.0,0.0,0.0,-3.0592,-3.2465,-2.601,-3.2107,-3.3328,-3.0086,-1.8564,-1.1432,-0.8148,-1.0361,0.0,0.0,0.0,0.0,0.0,0.0,0.0,0.0,0.0,0.0,0.0,0.0,0.0,0.0,0.0,0.0,0.0,0.0,0.0,0.0,0.0,0.0,0.0,0.0,-0.6323,-0.3114,-0.3092,0.0,0.0,0.0,0.0,0.0,0.0,0.0,0.0,0.0,0.0,0.0,2.5271,2.9848,3.3788,3.627,3.719,3.7723,3.7922,3.5697,3.5029,3.6893,3.1781,2.8872,0.0,0.0,0.0,0.0,0.0,0.0,0.0,0.0,0.0,0.0,0.0,0.0,0.0,0.0,0.0,0.0,0.0,0.0,0.0,0.0,0.0,0.0,0.0,0.0,0.0,0.0,0.0,0.0,0.0,0.0,0.0,0.0,0.0,0.0,0.0,0.0,0.0,0.0,0.0,0.0,0.0,0.0,0.0,0.0,0.0,0.0,0.0,0.0,0.0,0.0,0.0,0.0,0.0,0.0,0.0,0.0,0.0,0.0,-0.4458,0.0714,0.0,0.0,0.0,0.0,0.0,0.0,0.0,0.0,0.0,0.0,0.0,0.0,0.0,0.0,0.0,0.0,0.0,0.0,0.0,0.0,0.0,0.0,0.0,0.0,0.0,0.0,0.0,0.0,0.0,0.0,0.0,0.0,0.0,0.0,0.0,0.0,0.0,0.0,0.0,0.0,2.4688,2.9168,3.3283,3.6048,3.7379,3.8044,3.8122,3.6276,3.5157,3.5205,3.1423,0.0,0.0,0.0,0.0,0.0,0.0,0.0,0.0,0.0,0.0,0.0,0.0,0.0,0.0,0.0,0.0,0.0,0.0,0.0,0.0,0.0,0.0,0.0,0.0,0.0,0.0,0.0,0.0,0.0,0.0,0.0,0.0,0.0,0.0,0.0,0.0,0.0,0.0,0.0,0.0,0.0,0.0,0.0,0.0,0.0,0.0,0.0,0.0,0.0,0.0,0.0,0.0,0.0,0.0,0.0,0.0,0.0,0.0,0.0,0.9442,1.1647,0.0,0.0,0.0,0.0,0.0,0.0,0.0,0.0,0.0,0.0,0.0,0.0,0.0,0.0,0.0,0.0,0.0,0.0,0.0,0.0,0.0,0.0,0.0,0.0,0.0,0.0,0.0,0.0,0.0,0.0,0.0,0.0,0.0,0.0,0.0,0.0,0.0,0.0,0.0,0.0,2.4295,2.8661,3.2798,3.5805,3.7476,3.8347,3.8238,3.6785,3.5224,3.3666,3.0997,0.0,0.0,0.0,0.0,0.0,0.0,0.0,0.0,0.0,0.0,0.0,0.0,0.0,0.0,0.0,0.0,0.0,0.0,0.0,0.0,0.0,0.0,0.0,0.0,0.0,0.0,0.0,0.0,0.0,0.0,0.0,0.0,0.0,0.0,0.0,0.0,0.0,0.0,0.0,0.0,0.0,0.0,0.0,0.0,0.0,0.0,0.0,0.0,0.0,0.0,0.0,0.0,0.0,0.0,0.0,0.0,0.0,0.0,0.0,0.0,0.0,0.0,0.0,0.0,0.0,0.0,0.0,0.0,0.0,0.0,0.0,0.0,0.0,0.0,0.0,0.0,0.0,0.0,0.0,0.0,0.0,0.0,0.0,0.0,0.0,0.0,0.0,0.0,0.0,0.0,0.0,0.0,0.0,0.0,0.0,0.0,0.0,0.0,0.0,0.0,0.0,2.2859,2.8043,3.2592,3.5046,3.699,3.8269,3.8608,3.6787,3.5174,3.4204,0.0,0.0,0.0,0.0,0.0,0.0,0.0,0.0,0.0,0.0,0.0,0.0,0.0,0.0,0.0,0.0,0.0,0.0,0.0,0.0,0.0,0.0,0.0,0.0,0.0,0.0,0.0,0.0,0.0,0.0,0.0,0.0,0.0,0.0,0.0,0.0,0.0,0.0,0.0,0.0,0.0,0.0,0.0,0.0,0.0,0.0,0.0,0.0,0.0,0.0,0.0,0.0,0.0,0.0,0.0,0.0,0.0,0.0,0.0,0.0,0.0,0.0,0.0,0.0,0.0,0.0,0.0,0.0,0.0,0.0,0.0,0.0,0.0,0.0,0.0,0.0,0.0,0.0,0.0,0.0,0.0,0.0,0.0,0.0,0.0,0.0,0.0,0.0,0.0,0.0,0.0,0.0,0.0,0.0,0.0,0.0,0.0,0.0,0.0,0.0,0.0,0.0,2.2736,2.7991,3.2624,3.5069,3.7129,3.8459,3.8791,3.7325,3.5099,3.2087,0.0,0.0,0.0,0.0,0.0,0.0,0.0,0.0,0.0,0.0,0.0,0.0,0.0,0.0,0.0,0.0,0.0,0.0,0.0,0.0,0.0,0.0,0.0,0.0,0.0,0.0,0.0,0.0,0.0,0.0,0.0,0.0,0.0,0.0,0.0,0.0,0.0,0.0,0.0,0.0,0.0,0.0,0.0,0.0,0.0,0.0,0.0,0.0,0.0,0.0,0.0,0.0,0.0,0.0,0.0,0.0,0.0,0.0,0.0,0.0,0.0,0.0,0.0,0.0,0.0,0.0,0.0,0.0,0.0,0.0,0.0,0.0,0.0,0.0,0.0,0.0,0.0,0.0,0.0,0.0,0.0,0.0,0.0,0.0,0.0,0.0,0.0,0.0,0.0,0.0,0.0,0.0,0.0,0.0,0.0,0.0,0.0,0.0,0.0,0.0,0.0,0.0,2.2786,2.7697,3.2277,3.4974,3.7206,3.8611,3.8742,3.748,3.4886,3.0601,0.0,0.0,0.0,0.0,0.0,0.0,0.0,0.0,0.0,0.0,0.0,0.0,0.0,0.0,0.0,0.0,0.0,0.0,0.0,0.0,0.0,0.0,0.0,0.0,0.0,0.0,0.0,0.0,0.0,0.0,0.0,0.0,0.0,0.0,0.0,0.0,0.0,0.0,0.0,0.0,0.0,0.0,0.0,0.0,0.0,0.0,0.0,0.0,0.0,0.0,0.0,0.0,0.0,0.0,0.0,0.0,0.0,0.0,0.0,0.0,0.0,0.0,0.0,0.0,0.0,0.0,0.0,0.0,0.0,0.0,0.0,0.0,0.0,0.0,0.0,0.0,0.0,0.0,0.0,0.0,0.0,0.0,0.0,0.0,0.0,0.0,0.0,0.0,0.0,0.0,0.0,0.0,0.0,0.0,0.0,0.0,0.0,0.0,0.0,0.0,0.0,0.0,2.2648,2.7082,3.1382,3.4635,3.7193,3.8642,3.8492,3.7046,3.4486,0.0,0.0,0.0,0.0,0.0,0.0,0.0,0.0,0.0,0.0,0.0,0.0,0.0,0.0,0.0,0.0,0.0,0.0,0.0,0.0,0.0,0.0,0.0,0.0,0.0,0.0,0.0,0.0,0.0,0.0,0.0,0.0,0.0,0.0,0.0,0.0,0.0,0.0,0.0,0.0,0.0,0.0,0.0,0.0,0.0,0.0,0.0,0.0,0.0,0.0,0.0,0.0,0.0,0.0,0.0,0.0,0.0,0.0,0.0,0.0,0.0,0.0,0.0,0.0,0.0,0.0,0.0,0.0,0.0,0.0,0.0,0.0,0.0,0.0,0.0,0.0,0.0,0.0,0.0,0.0,0.0,0.0,0.0,0.0,0.0,0.0,0.0,0.0,0.0,0.0,0.0,0.0,0.0,0.0,0.0,0.0,0.0,0.0,0.0,0.0,0.0,0.0,0.0,2.2629,2.7051,3.1382,3.4748,3.7271,3.8672,3.862,3.7088,3.4486,3.0562,0.0,0.0,0.0,0.0,0.0,0.0,0.0,0.0,0.0,0.0,0.0,0.0,0.0,0.0,0.0,0.0,0.0,0.0,0.0,0.0,0.0,0.0,0.0,0.0,0.0,0.0,0.0,0.0,0.0,0.0,0.0,0.0,0.0,0.0,0.0,0.0,0.0,0.0,0.0,0.0,0.0,0.0,0.0,0.0,0.0,0.0,0.0,0.0,0.0,0.0,0.0,0.0,0.0,0.0,0.0,0.0,0.0,0.0,0.0,0.0,0.0,0.0,0.0,0.0,0.0,0.0,0.0,0.0,0.0,0.0,0.0,0.0,0.0,0.0,0.0,0.0,0.0,0.0,0.0,0.0,0.0,0.0,0.0,0.0,0.0,0.0,0.0,0.0,0.0,0.0,0.0,0.0,0.0,0.0,0.0,0.0,0.0,0.0,0.0,0.0,0.0,0.0,0.0,2.6785,3.1085,3.4148,3.6877,3.8458,3.8467,3.6876,3.4338,3.0753,0.0,0.0,0.0,0.0,0.0,0.0,0.0,0.0,0.0,0.0,0.0,0.0,0.0,0.0,0.0,0.0,0.0,0.0,0.0,0.0,0.0,0.0,0.0,0.0,0.0,0.0,0.0,0.0,0.0,0.0,0.0,0.0,0.0,0.0,0.0,0.0,0.0,0.0,0.0,0.0,0.0,0.0,0.0,0.0,0.0,0.0,0.0,0.0,0.0,0.0,0.0,0.0,0.0,0.0,0.0,0.0,0.0,0.0,0.0,0.0,0.0,0.0,0.0,0.0,0.0,0.0,0.0,0.0,0.0,0.0,0.0,0.0,0.0,0.0,0.0,0.0,0.0,0.0,0.0,0.0,0.0,0.0,0.0,0.0,0.0,0.0,0.0,0.0,0.0,0.0,0.0,0.0,0.0,0.0,0.0,0.0,0.0,0.0,0.0,0.0,0.0,0.0,0.0,2.6299,3.0513,3.3115,3.621,3.8111,3.8064,3.6424,3.4073,3.1038,2.832,0.0,0.0,0.0,0.0,0.0,0.0,0.0,0.0,0.0,0.0,0.0,0.0,0.0,0.0,0.0,0.0,0.0,0.0,0.0,0.0,0.0,0.0,0.0,0.0,0.0,0.0,0.0,0.0,0.0,0.0,0.0,0.0,0.0,0.0,0.0,0.0,0.0,0.0,0.0,0.0,0.0,0.0,0.0,0.0,0.0,0.0,0.0,0.0,0.0,0.0,0.0,0.0,0.0,0.0,0.0,0.0,0.0,0.0,0.0,0.0,0.0,0.0,0.0,0.0,0.0,0.0,0.0,0.0,0.0,0.0,0.0,0.0,0.0,0.0,0.0,0.0,0.0,0.0,0.0,0.0,0.0,0.0,0.0,0.0,0.0,0.0,0.0,0.0,0.0,0.0,0.0,0.0,0.0,0.0,0.0,0.0,0.0,0.0,0.0,0.0,0.0,0.0,2.6922,3.074,3.42,3.6694,3.8025,3.7811,3.6314,3.3966,3.0639,2.8158,0.0,0.0,0.0,0.0,0.0,0.0,0.0,0.0,0.0,0.0,0.0,0.0,0.0,0.0,0.0,0.0,0.0,0.0,0.0,0.0,0.0,0.0,0.0,0.0,0.0,0.0,0.0,0.0,0.0,0.0,0.0,0.0,0.0,0.0,0.0,0.0,0.0,0.0,0.0,0.0,0.0,0.0,0.0,0.0,0.0,0.0,0.0,0.0,0.0,0.0,0.0,0.0,0.0,0.0,0.0,0.0,0.0,0.0,0.0,0.0,0.0,0.0,0.0,0.0,0.0,0.0,0.0,0.0,0.0,0.0,0.0,0.0,0.0,0.0,0.0,0.0,0.0,0.0,0.0,0.0,0.0,0.0,0.0,0.0,0.0,0.0,0.0,0.0,0.0,0.0,0.0,0.0,0.0,0.0,0.0,0.0,0.0,0.0,0.0,0.0,0.0,0.0,2.5916,2.853,3.3481,3.621,3.7591,3.7397,3.6074,3.3921,3.0799,2.8791,0.0,0.0,0.0,0.0,0.0,0.0,0.0,0.0,0.0,0.0,0.0,0.0,0.0,0.0,0.0,0.0,0.0,0.0,0.0,0.0,0.0,0.0,0.0,0.0,0.0,0.0,0.0,0.0,0.0,0.0,0.0,0.0,0.0,0.0,0.0,0.0,0.0,0.0,0.0,0.0,0.0,0.0,0.0,0.0,0.0,0.0,0.0,0.0,0.0,0.0,0.0,0.0,0.0,0.0,0.0,0.0,0.0,0.0,0.0,0.0,0.0,0.0,0.0,0.0,0.0,0.0,0.0,0.0,0.0,0.0,0.0,0.0,0.0,0.0,0.0,0.0,0.0,0.0,0.0,0.0,0.0,0.0,0.0,0.0,0.0,0.0,0.0,0.0,0.0,0.0,0.0,0.0,0.0,0.0,0.0,0.0,0.0,0.0,0.0,0.0,0.0,0.0,0.0,2.6324,3.1883,3.5225,3.7044,3.6943,3.5814,3.3941,3.12,0.0,0.0,0.0,0.0,0.0,0.0,0.0,0.0,0.0,0.0,0.0,0.0,0.0,0.0,0.0,0.0,0.0,0.0,0.0,0.0,0.0,0.0,0.0,0.0,0.0,0.0,0.0,0.0,0.0,0.0,0.0,0.0,0.0,0.0,0.0,0.0,0.0,0.0,0.0,0.0,0.0,0.0,0.0,0.0,0.0,0.0,0.0,0.0,0.0,0.0,0.0,0.0,0.0,0.0,0.0,0.0,0.0,0.0,0.0,0.0,0.0,0.0,0.0,0.0,0.0,0.0,0.0,0.0,0.0,0.0,0.0,0.0,0.0,0.0,0.0,0.0,0.0,0.0,0.0,0.0,0.0,0.0,0.0,0.0,0.0,0.0,0.0,0.0,0.0,0.0,0.0,0.0,0.0,0.0,0.0,0.0,0.0,0.0,0.0,0.0,0.0,0.0,0.0,0.0,2.8306,3.0493,3.4361,3.6829,3.6953,3.5651,3.386,3.1542,0.0,0.0,0.0,0.0,0.0,0.0,0.0,0.0,0.0,0.0,0.0,0.0,0.0,0.0]}],[{"header":{"parameterUnit":"kt","parameterCategory":2,"dx":1,"dy":1,"la1":29.285339999999998,"la2":30.599998999999997,"lo1":-89.70041500000002,"lo2":-87.6738589999976,"nx":112,"ny":82,"refTime":"2022-10-05T00:00:00:Z","depth":0,"parameterNumber":2,"parameterNumberName":"V-component_of_WINDS"},"data":[1.7096,1.7295,0.0,1.7718,1.9514,0.0,2.0735,2.0914,2.083,2.012,1.8684,1.7621,1.7587,0.0,0.0,0.0,0.0,0.0,0.0,1.7114,0.0,0.0,0.0,0.0,0.0,0.0,0.0,0.0,0.0,0.0,0.0,0.0,2.5028,2.5087,2.5477,2.549,2.51,2.549,2.549,2.51,2.549,2.5684,2.5684,2.5684,2.5684,2.5658,2.5269,2.51,2.5074,2.4697,2.4412,2.4217,2.4217,2.4217,2.4191,2.3996,2.3918,2.3918,2.3918,2.4048,2.4217,2.4217,2.4373,2.462,2.4983,2.51,2.5126,2.5308,2.5516,2.5632,2.5412,2.5671,2.5983,2.5983,2.6139,2.6282,2.6282,2.6282,2.6282,2.6282,2.6282,2.6282,2.6282,2.658,2.6632,2.6061,2.6152,2.6412,2.6775,2.6827,2.697,2.7346,2.7385,2.7385,2.7385,2.7385,2.7385,2.7385,2.7385,2.7385,2.7385,2.7385,2.7294,2.7074,2.7282,2.7282,2.7074,2.7282,2.7385,2.7385,2.7385,2.7195,0.0,0.0,1.7893,1.6834,1.9983,2.2893,2.1204,2.1527,2.1816,2.0826,1.9231,1.7786,1.7049,0.0,0.0,0.0,0.0,0.0,0.0,0.0,1.7257,0.0,0.0,0.0,0.0,0.0,0.0,0.0,0.0,0.0,0.0,2.4269,2.4477,2.4477,2.4866,2.4892,2.449,2.4879,2.4879,2.449,2.4892,2.5074,2.5074,2.5074,2.5074,2.5061,2.4659,2.4477,2.4451,2.4074,2.3918,2.3918,2.3918,2.3918,2.3918,2.3918,2.3918,2.3918,2.3918,2.3918,2.3918,2.3918,2.3918,2.3983,2.436,2.4477,2.4568,2.497,2.5074,2.5074,2.5074,2.523,2.5373,2.5373,2.5529,2.5684,2.5684,2.5684,2.5684,2.5684,2.5684,2.5684,2.5684,2.5814,2.5801,2.5425,2.5542,2.5879,2.645,2.6347,2.6528,2.7294,2.7217,2.7165,2.7372,2.7385,2.7385,2.7385,2.7385,2.7385,2.7385,2.7385,2.7385,2.7385,2.7385,2.7385,2.7385,2.7385,2.7385,2.7385,2.7385,2.7018,1.1529,1.4507,1.8869,1.8514,2.0565,2.2599,2.2599,2.3875,2.421,2.1336,2.0385,1.9503,1.7351,0.0,0.0,0.0,0.0,0.0,0.0,0.0,1.7205,0.0,0.0,0.0,0.0,0.0,0.0,0.0,0.0,0.0,2.3789,2.3918,2.3918,2.3918,2.3918,2.3918,2.3918,2.3918,2.3918,2.3918,2.3918,2.3918,2.3918,2.3918,2.3762,2.3762,2.3762,2.3762,2.3762,2.3905,2.3918,2.3918,2.3918,2.3918,2.3918,2.3918,2.3918,2.3918,2.3918,2.3918,2.3918,2.3918,2.3918,2.3918,2.3918,2.3918,2.3918,2.3918,2.3918,2.3918,2.3918,2.4334,2.4898,2.4898,2.5204,2.5619,2.5619,2.5619,2.5619,2.5619,2.5619,2.5619,2.5619,2.5139,2.4898,2.4898,2.5243,2.5827,2.6399,2.5983,2.6087,2.7204,2.6827,2.6723,2.7307,2.7359,2.7359,2.7385,2.7385,2.7385,2.7385,2.7385,2.7385,2.7385,2.7385,2.7385,2.7385,2.7385,2.7385,2.7385,2.7385,2.7006,1.0616,1.3212,1.6443,1.7423,2.0515,2.3425,2.3425,2.3292,2.3128,2.2925,2.0747,0.0,0.0,0.0,0.0,0.0,0.0,1.8528,0.0,1.8192,1.8971,0.0,0.0,0.0,0.0,0.0,0.0,0.0,0.0,2.2386,2.384,2.3918,2.3918,2.3918,2.3918,2.3918,2.3918,2.3918,2.3918,2.3918,2.3918,2.3918,2.3918,2.243,2.1841,2.1841,2.1841,2.1841,2.1853,2.3319,2.3918,2.3918,2.3918,2.3918,2.3918,2.3918,2.3918,2.3918,2.3918,2.3918,2.3918,2.3918,2.3918,2.3918,2.3918,2.3918,2.3918,2.3918,2.3918,2.3918,2.3918,2.4035,2.4152,2.4152,2.4269,2.4399,2.4399,2.4399,2.4399,2.4399,2.4399,2.4399,2.4399,2.4256,2.4152,2.4152,2.4295,2.4607,2.5178,2.5113,2.5321,2.6061,2.6009,2.6139,2.671,2.6762,2.6931,2.7359,2.7385,2.7385,2.7385,2.7385,2.7385,2.7385,2.7385,2.7385,2.7385,2.7385,2.7385,2.7385,2.6462,2.5895,1.0272,1.3612,1.7226,1.8062,2.1317,2.4108,2.3387,2.3406,2.3387,2.2817,0.0,0.0,0.0,0.0,0.0,0.0,1.9023,1.9304,1.8494,0.0,1.9309,0.0,0.0,0.0,0.0,0.0,0.0,0.0,2.2854,2.2711,2.3853,2.3918,2.3918,2.3918,2.3918,2.3918,2.3918,2.3918,2.3918,2.3918,2.3918,2.3475,2.2587,2.1552,2.0536,1.9808,2.067,2.0961,2.1117,2.3175,2.3918,2.3918,2.3918,2.3918,2.3918,2.3918,2.3918,2.3918,2.3918,2.3918,2.3918,2.3918,2.3918,2.3918,2.3918,2.3918,2.3918,2.3918,2.3918,2.3918,2.3918,2.3918,2.3918,2.3918,2.3918,2.3918,2.3918,2.3918,2.3918,2.3918,2.3918,2.3918,2.3918,2.3918,2.3918,2.3918,2.3918,2.4126,2.4859,2.4715,2.4736,2.5593,2.5451,2.5529,2.6126,2.6386,2.6658,2.7009,2.7243,2.7385,2.7385,2.7385,2.7385,2.7385,2.7385,2.7385,2.7385,2.7182,2.6873,2.6609,2.5918,2.54,1.0622,1.4886,1.9419,1.9576,2.218,2.4371,2.3132,0.0,2.4317,2.2324,0.0,2.1244,2.0533,0.0,0.0,0.0,2.0204,1.9982,2.0185,1.9691,1.9264,1.9101,2.0893,0.0,0.0,2.1179,2.2088,2.3607,2.2841,2.275,2.3763,2.3879,2.3918,2.3918,2.3918,2.3918,2.3918,2.3762,2.3619,2.3619,2.3319,2.2298,2.0682,2.038,1.937,1.7776,1.9516,2.038,2.0525,2.2731,2.3619,2.3619,2.3762,2.3918,2.3918,2.3918,2.3918,2.3918,2.3918,2.3918,2.3918,2.3918,2.3918,2.3918,2.3918,2.3918,2.3918,2.3918,2.3918,2.3918,2.3918,2.3918,2.3918,2.3918,2.3918,2.3918,2.3918,2.3918,2.3918,2.3918,2.3918,2.3918,2.3918,2.3918,2.3918,2.3918,2.3918,2.41,2.4754,2.423,2.4321,2.5373,2.4996,2.4918,2.5529,2.6035,2.6347,2.6266,2.6905,2.7217,2.7282,2.7282,2.732,2.7385,2.7385,2.7359,2.7282,2.679,2.6184,2.5634,2.5565,2.5225,1.2509,1.5179,1.7806,1.9286,2.0955,2.2645,0.0,0.0,0.0,2.5851,2.515,2.4397,2.4904,2.4787,2.4397,2.3602,2.4387,0.0,0.0,2.1678,0.0,2.094,2.1256,0.0,2.1854,2.1984,2.2178,2.2516,2.2763,2.2996,2.3217,2.3672,2.3918,2.3918,2.3918,2.3918,2.3918,2.2286,2.1552,2.1552,1.9965,1.8941,1.8648,1.7038,1.6002,1.5714,1.6151,1.6299,1.6586,2.01,2.1552,2.1696,2.3319,2.3918,2.3918,2.3918,2.3918,2.3918,2.3918,2.3918,2.3918,2.3918,2.3918,2.3918,2.3918,2.3918,2.3918,2.3918,2.3918,2.3918,2.3918,2.3918,2.3918,2.3918,2.3918,2.3918,2.3918,2.3918,2.3918,2.3918,2.3918,2.3918,2.3918,2.3918,2.3918,2.3918,2.3918,2.3957,2.4061,2.3983,2.3996,2.423,2.4152,2.4321,2.5054,2.5048,2.5321,2.5814,2.5944,2.6204,2.6671,2.6684,2.6905,2.7372,2.7385,2.7152,2.6684,2.6424,2.5915,2.4968,2.448,2.4231,1.3876,1.6598,1.9761,1.9837,2.0995,0.0,0.0,2.3482,2.4626,2.5246,2.5189,2.5285,2.6101,2.6253,2.6186,2.585,2.6183,2.5709,2.353,2.3772,2.3377,2.1281,2.0945,2.1062,2.1347,2.162,2.1789,2.1789,2.2308,2.2646,2.2646,2.2906,2.2633,2.1788,2.1906,2.1614,2.0749,1.999,1.9516,1.9516,1.8511,1.7629,1.6604,1.5574,1.4681,1.38,1.4689,1.5128,1.5417,1.9359,2.0391,1.9662,2.1708,2.3031,2.3918,2.3918,2.3918,2.3918,2.3918,2.3918,2.3918,2.3918,2.3918,2.3918,2.3918,2.3918,2.3918,2.3918,2.3918,2.3918,2.3918,2.3918,2.3918,2.3918,2.3918,2.3918,2.3918,2.3918,2.3918,2.3918,2.3918,2.3918,2.3918,2.3918,2.3918,2.3918,2.3918,2.3918,2.3918,2.3918,2.3918,2.3918,2.3918,2.4035,2.4321,2.4754,2.5054,2.5204,2.5516,2.5801,2.6087,2.61,2.6243,2.6528,2.6528,2.6386,2.61,2.5838,2.5259,2.4401,2.4075,2.3918,1.4841,1.7861,2.1728,2.0386,2.1076,0.0,2.1194,2.3273,2.5269,2.4755,2.5398,2.6196,2.6861,2.6975,2.7202,2.7848,2.7428,2.6701,2.5442,2.5287,2.4098,2.1007,2.0652,2.0652,2.0652,2.0945,2.1205,2.1205,2.1633,2.1932,2.2036,2.1741,2.099,1.9634,1.9601,1.8956,1.7566,1.7351,1.7282,1.7358,1.699,1.601,1.4532,1.4461,1.3733,1.2321,1.395,1.454,1.483,1.8345,1.9224,1.8218,1.9808,2.1563,2.3319,2.3319,2.3319,2.3462,2.3762,2.3918,2.3918,2.3918,2.3918,2.3918,2.3918,2.3918,2.3918,2.3918,2.3918,2.3918,2.3918,2.3918,2.3918,2.3918,2.3918,2.3918,2.3918,2.3918,2.3918,2.3918,2.3918,2.3918,2.3918,2.3918,2.3918,2.3918,2.3918,2.3918,2.3918,2.3918,2.3918,2.3918,2.3918,2.3918,2.3918,2.4334,2.4754,2.4754,2.5061,2.5386,2.5503,2.5503,2.5567,2.5684,2.5684,2.5619,2.5503,2.4924,2.4382,2.3918,2.3918,2.3918,1.4929,1.752,2.0255,2.0081,2.0178,0.0,2.3907,2.5565,2.7011,2.8816,2.9347,2.9442,2.9537,2.9537,2.9575,2.967,2.9634,2.8574,2.5625,2.5287,2.4098,2.1007,2.0652,2.0652,2.0652,2.0705,2.0744,2.0744,2.0685,2.0932,2.1438,2.0467,1.9769,1.9634,1.8167,1.736,1.7233,1.5494,1.472,1.4906,1.2903,1.2225,1.2608,1.2181,1.206,1.2321,1.2471,1.2615,1.2765,1.4979,1.6743,1.807,1.8365,1.9662,2.1262,2.1262,2.1262,2.1552,2.3319,2.3918,2.3918,2.3918,2.3918,2.3918,2.3918,2.3918,2.3918,2.3918,2.3918,2.3918,2.3918,2.3918,2.3918,2.3918,2.3918,2.3918,2.3918,2.3918,2.3918,2.3918,2.3918,2.3918,2.3918,2.3918,2.3918,2.3918,2.3918,2.3918,2.3918,2.3918,2.3918,2.3918,2.3918,2.3918,2.3918,2.397,2.4009,2.4009,2.4074,2.4334,2.5002,2.5028,2.5126,2.5671,2.5684,2.5412,2.5028,2.4321,2.3996,2.3918,2.3918,2.3918,1.7351,1.8968,1.9988,2.0057,0.0,0.0,2.473,2.5854,2.7357,2.9912,2.975,2.9385,2.9879,2.9955,2.9955,2.9955,2.9955,2.8798,2.5759,2.5287,2.4098,2.1007,2.0652,2.0652,2.0652,2.0652,2.0652,2.0652,2.0652,2.0757,2.0867,2.0454,1.98,1.8772,1.7187,1.5989,1.4909,1.3372,1.2585,1.2576,1.1753,1.1405,1.1643,1.1517,1.1623,1.1906,1.1906,1.2005,1.2321,1.3058,1.4689,1.6308,1.6308,1.8198,2.0961,2.0961,2.1696,2.2731,2.3619,2.3918,2.3918,2.3918,2.3918,2.3918,2.3918,2.3918,2.3918,2.3918,2.3918,2.3918,2.3918,2.3918,2.3918,2.3918,2.3918,2.3918,2.3918,2.3918,2.3918,2.3918,2.3918,2.3918,2.3918,2.3918,2.3918,2.3918,2.3918,2.3918,2.3918,2.3918,2.3918,2.3918,2.3918,2.3918,2.3918,2.3918,2.3918,2.3918,2.3918,2.4022,2.4269,2.4269,2.4386,2.4646,2.4646,2.4529,2.4269,2.4035,2.3918,2.3918,2.3918,2.3918,1.9331,0.0,0.0,0.0,0.0,0.0,2.5084,2.6557,2.8314,2.97,2.9169,2.8645,2.9461,2.9613,2.9537,2.9309,2.9461,2.8695,2.593,2.5394,2.4337,2.1592,2.0885,2.0652,2.0652,2.0652,2.0652,0.0,2.0652,2.0652,2.0652,2.0652,1.9641,1.7505,1.5919,1.4384,1.2687,1.1599,1.1082,1.1161,1.1076,1.1122,1.1273,1.1201,1.132,1.1603,1.1689,1.1794,1.2074,1.2509,1.387,1.5855,1.5699,1.7943,2.0961,2.0961,2.1853,2.3175,2.3762,2.3918,2.3918,2.3918,2.3918,2.3918,2.3918,2.3918,2.3918,2.3918,2.3918,2.3918,2.3918,2.3918,2.3918,2.3918,2.3918,2.3918,2.3918,2.3918,2.3918,2.3918,2.3918,2.3918,2.3918,2.3918,2.3918,2.3918,2.3918,2.3918,2.3918,2.3918,2.3918,2.3918,2.3918,2.3918,2.3918,2.3918,2.3918,2.3918,2.3918,2.3918,2.3918,2.3918,2.3918,2.3918,2.3918,2.3918,2.3918,2.3918,2.3918,2.3918,2.3918,2.3918,0.0,0.0,0.0,2.407,2.4989,2.5092,2.5038,2.8103,3.0484,2.8819,2.7913,2.7772,2.8626,2.8778,2.8512,2.7572,2.8246,2.8214,2.6635,2.578,2.4678,2.3003,2.1592,2.0652,2.0652,2.0652,2.0652,2.0652,2.0652,2.0652,2.0652,2.0652,1.9134,1.5728,1.3959,1.2328,1.0559,1.0572,1.0594,1.0878,1.0588,1.0739,1.1267,1.0997,1.103,1.1306,1.1596,1.1557,1.144,1.3105,1.5246,1.7574,1.727,1.8662,2.0961,2.0961,2.0961,2.1407,2.3319,2.3918,2.3918,2.3918,2.3918,2.3918,2.3918,2.3918,2.3918,2.3918,2.3918,2.3918,2.3918,2.3918,2.3918,2.3918,2.3918,2.3918,2.3918,2.3918,2.3918,2.3918,2.3918,2.3918,2.3918,2.3918,2.3918,2.3918,2.3918,2.3918,2.3918,2.3918,2.3918,2.3918,2.3918,2.3918,2.3918,2.3918,2.3918,2.3918,2.3918,2.3918,2.3918,2.3918,2.3918,2.3918,2.3918,2.3918,2.3918,2.3918,2.3918,2.3918,2.3918,2.3918,2.3751,2.5857,2.832,2.9459,2.7354,2.5478,2.7073,2.8526,2.9637,2.9378,2.8989,2.8495,2.7953,2.7449,2.7183,2.7326,2.761,2.7357,2.5717,2.4936,2.3889,2.2244,2.1225,2.0652,2.0652,2.0652,2.0652,2.0652,2.0652,0.0,2.0652,1.9529,1.8389,1.7255,1.5602,1.3823,1.2185,1.1053,1.0605,1.0568,1.0599,1.0652,1.0706,1.0614,1.0726,1.101,1.1109,1.1095,1.1153,1.2983,1.4387,1.5185,1.613,1.788,1.9829,1.9829,2.0669,2.1805,2.2502,2.3035,2.3347,2.3347,2.3607,2.3918,2.3918,2.3918,2.3918,2.3918,2.3918,2.3918,2.3918,2.3918,2.3918,2.3918,2.3918,2.3918,2.3918,2.3918,2.3918,2.3918,2.3918,2.3918,2.3918,2.3918,2.3918,2.3918,2.3918,2.3918,2.3918,2.3918,2.3918,2.3918,2.3918,2.3918,2.3918,2.3918,2.3918,2.3918,2.3918,2.3918,2.3918,2.3918,2.3918,2.3918,2.3918,2.3918,2.3918,2.3918,2.3918,2.3918,2.3918,2.3918,2.5623,2.8777,3.21,3.2101,2.9835,2.7742,2.8395,2.8747,2.8895,2.9279,2.8855,2.8247,2.7747,2.6646,2.5987,2.6519,2.6842,2.6622,2.5657,2.4949,2.3859,2.2353,2.1271,2.0488,2.0038,2.0038,2.0038,2.0038,2.0101,2.0218,2.0218,1.8925,1.8027,1.8027,1.5854,1.4077,1.3061,1.1303,1.0552,1.0552,1.0552,1.0552,1.0552,1.0552,1.0528,1.0706,1.0706,1.0706,1.0852,1.2757,1.3588,1.3982,1.6393,1.811,1.9477,2.0015,2.1112,2.2204,2.2204,2.2451,2.2763,2.2763,2.3009,2.3334,2.3542,2.3607,2.3659,2.3853,2.3918,2.3918,2.3918,2.3918,2.3918,2.3918,2.3918,2.3918,2.3918,2.3918,2.3918,2.3918,2.3918,2.3918,2.3918,2.3918,2.3918,2.3918,2.3918,2.3918,2.3918,2.3918,2.3918,2.3918,2.3918,2.3918,2.3918,2.3918,2.3918,2.3918,2.3918,2.3918,2.3918,2.3918,2.3918,2.3918,2.3918,2.3918,2.3918,2.3918,2.3918,2.3918,2.3918,2.3918,2.5677,2.8819,3.2062,3.2046,3.2046,3.1496,2.9286,2.8726,2.8748,2.8659,2.7764,2.7121,2.7845,2.6451,2.5038,2.5038,2.5684,2.6196,2.6196,2.5427,2.4501,2.3164,2.1705,2.0232,1.8928,1.8828,1.8828,1.8828,1.9322,1.9633,1.9659,1.8586,1.7868,1.7891,1.471,1.2934,1.2934,1.1303,1.0552,1.0552,1.0552,1.0552,1.0552,1.0552,1.0552,1.0552,1.0552,1.0552,1.0674,1.2305,1.3277,1.4139,1.7543,1.914,1.9688,2.1449,2.2126,2.2126,2.2126,2.2139,2.2165,2.2165,2.2191,2.2308,2.2867,2.3022,2.3152,2.3711,2.3866,2.3879,2.3905,2.3918,2.3918,2.3918,2.3918,2.3918,2.3918,2.3918,2.3918,2.3918,2.3918,2.3918,2.3918,2.3918,2.3918,2.3918,2.3918,2.3918,2.3918,2.3918,2.3918,2.3918,2.3918,2.3918,2.3918,2.3918,2.3918,2.3918,2.3918,2.3918,2.3918,2.3918,2.3918,2.3918,2.3918,2.3918,2.3918,2.3918,2.3905,2.3905,2.3905,2.3905,2.5668,2.8801,3.2075,3.2061,3.2105,3.1937,3.1275,3.1215,3.0838,2.9644,2.8749,2.8188,2.8333,2.6597,2.5038,2.5038,2.5209,2.5342,2.5342,2.3881,2.2664,2.2246,2.0594,1.9266,1.8928,1.8828,1.8828,1.8828,1.8958,1.9218,1.9646,1.7004,1.5635,1.6221,1.295,1.1182,1.1182,1.0674,1.0552,1.0552,1.0552,1.0552,1.0552,1.0552,1.0552,1.0552,1.0552,1.0552,1.0674,1.2305,1.3119,1.3588,1.6924,1.8416,1.8658,2.0316,2.0958,2.0958,2.0958,2.123,2.1581,2.1581,2.1867,2.2243,2.2386,2.2425,2.2542,2.3126,2.3282,2.3386,2.3802,2.3918,2.3918,2.3918,2.3918,2.3918,2.3918,2.3918,2.3918,2.3918,2.3918,2.3918,2.3918,2.3918,2.3918,2.3918,2.3918,2.3918,2.3918,2.3918,2.3918,2.3918,2.3918,2.3918,2.3918,2.3918,2.3918,2.3918,2.3918,2.3918,2.3918,2.3918,2.3918,2.3918,2.3918,2.3918,2.3918,2.3918,2.3749,2.3281,2.3749,2.3424,2.7963,3.0278,3.2037,3.211,3.2115,3.2115,3.2115,3.2115,3.1816,3.0913,2.9583,2.857,2.857,2.6641,2.5038,2.5038,2.5038,2.5038,2.5038,2.3484,2.2217,2.1613,2.0024,1.8697,1.8183,1.8075,1.8075,1.8075,1.8309,1.8582,1.8893,1.6666,1.5338,1.5172,1.2587,1.0913,1.0552,1.0552,1.0552,1.0552,1.0552,1.0552,1.0552,1.0552,1.0552,1.0552,1.0552,1.0552,1.0552,1.156,1.1937,1.2185,1.4845,1.5854,1.6105,1.7743,1.8886,1.9529,1.9529,2.0226,2.0997,2.0997,2.1218,2.1516,2.1763,2.1841,2.201,2.2841,2.2893,2.2828,2.3399,2.2964,2.2526,2.3401,2.3141,2.2875,2.3762,2.3918,2.3918,2.3918,2.3918,2.384,2.3581,2.375,2.3737,2.3243,2.3594,2.3827,2.3581,2.3763,2.3918,2.3918,2.3918,2.3918,2.3918,2.3918,2.3918,2.3918,2.3918,2.3918,2.3918,2.3918,2.3918,2.3918,2.3918,2.3789,2.3542,2.3542,2.3259,2.2684,2.297,2.2834,3.0884,3.2111,3.2056,3.2052,3.2115,3.2115,3.2115,3.2115,3.2115,3.2115,3.0323,2.8748,2.857,2.6804,2.5208,2.5133,2.5038,2.5038,2.5038,2.369,2.2272,2.1117,1.9663,1.8399,1.7217,1.7114,1.7114,1.7114,1.7569,1.7773,1.7851,1.6824,1.5678,1.46,1.2932,1.1528,1.0485,1.0364,1.0383,1.0552,1.0552,1.0552,1.0552,1.0552,1.0552,1.0552,1.0552,1.0552,1.0552,1.0552,1.0552,1.0674,1.2305,1.3061,1.3188,1.4962,1.6492,1.7766,1.7766,1.8898,2.027,2.027,2.0406,2.0744,2.1114,2.1256,2.1477,2.2542,2.249,2.223,2.2802,2.1878,2.108,2.2785,2.1942,2.1209,2.2961,2.34,2.34,2.34,2.34,2.3247,2.3048,2.336,2.3347,2.236,2.3048,2.3516,2.3022,2.3386,2.3685,2.3685,2.3685,2.3685,2.3685,2.3685,2.3724,2.3789,2.3724,2.3724,2.3802,2.3802,2.3763,2.3685,2.3685,2.3451,2.2957,2.2957,2.2633,2.2115,2.2123,2.2051,3.0888,3.2112,3.2052,3.2091,3.2115,3.2115,3.2115,3.2115,3.2115,3.2115,3.1032,2.9693,2.8748,2.7402,2.6159,2.5208,2.5038,2.5038,2.5038,2.2921,2.1215,2.1019,1.8875,1.7319,1.7114,1.7114,1.7114,1.7114,1.7205,1.7465,1.7825,1.637,1.5182,1.4268,1.2661,1.1195,1.0047,1.0047,1.0179,1.0552,1.0552,1.0552,1.0552,1.0552,1.0552,1.0552,1.0552,1.0552,1.0552,1.0552,1.0552,1.0674,1.2305,1.3061,1.3188,1.4962,1.5728,1.598,1.598,1.713,1.8525,1.8525,1.9393,2.0665,2.077,2.0796,2.094,2.1477,2.1581,2.1646,2.2217,2.2438,2.2646,2.3074,2.1369,1.9728,2.0308,2.0308,2.0308,2.0308,2.0308,2.0829,2.2105,2.2438,2.2438,2.2243,2.2373,2.2464,2.2373,2.2451,2.2503,2.2503,2.2503,2.2503,2.2503,2.2503,2.2711,2.3191,2.2763,2.2711,2.3204,2.3217,2.2996,2.2516,2.2503,2.2451,2.236,2.236,2.1985,2.1518,2.2016,2.1742,3.1485,3.2062,3.2093,3.2093,3.2119,3.2115,3.2115,3.2115,3.2115,3.2115,3.1117,3.0127,2.9606,2.8012,2.6692,2.6086,2.5471,2.5038,2.5038,2.3307,2.1802,2.1117,1.9277,1.7803,1.7217,1.7114,1.7114,1.7114,1.7114,1.7244,1.7504,1.6755,1.5799,1.4825,1.406,1.2674,1.082,1.0827,1.0622,1.0186,1.0186,1.0271,1.0545,1.0258,1.0271,1.0552,1.1431,1.1808,1.1808,1.1808,1.1808,1.1937,1.2687,1.3061,1.3061,1.395,1.4836,1.5602,1.5602,1.6116,1.7005,1.8762,1.9406,1.9393,2.027,2.0652,2.077,2.1205,2.1153,2.1062,2.1633,2.1298,2.0953,2.2045,2.0832,1.9488,1.9634,2.0319,2.099,2.099,2.099,2.099,2.0856,2.1298,2.1672,2.1373,2.1828,2.21,2.1815,2.2023,2.2204,2.2204,2.2204,2.2204,2.2204,2.2204,2.2321,2.2607,2.236,2.2334,2.2607,2.2334,2.2062,2.1776,2.2062,2.2062,2.1763,2.1763,2.1488,2.0938,2.1224,2.1074,3.0436,3.0711,3.0939,3.1882,3.2037,3.211,3.2091,3.2115,3.2115,3.2115,3.1371,3.0643,3.0386,2.8637,2.7129,2.6855,2.5826,2.5038,2.5038,2.39,2.2579,2.1509,2.0046,1.8688,1.7613,1.7319,1.7114,1.7114,1.7114,1.7114,1.7114,1.7114,1.6568,1.5345,1.5237,1.4042,1.1643,1.1535,1.1006,0.9882,0.9882,1.0041,1.0318,1.008,1.01,1.0458,1.1899,1.2432,1.2432,1.2432,1.2432,1.2432,1.2432,1.2687,1.2934,1.256,1.357,1.4962,1.4962,1.5224,1.6105,1.9134,1.9406,1.8898,2.0147,2.0652,2.0744,2.1062,2.0867,2.0757,2.1075,1.9837,1.8841,1.9904,1.9416,1.8637,1.8227,1.9566,2.0765,2.0765,2.1041,2.0922,1.9986,2.0561,2.1036,2.0718,2.1014,2.1152,2.0721,2.0648,2.0909,2.1316,2.1316,2.1448,2.1841,2.1841,2.1906,2.2023,2.1919,2.1906,2.2023,2.149,2.1192,2.1192,2.162,2.1633,2.1192,2.1192,2.0958,2.0652,2.0652,2.0652,2.5203,2.6209,2.7145,3.107,3.2037,3.2031,3.2052,3.2115,3.2115,3.2115,3.2032,3.1564,3.0558,2.9256,2.8034,2.7038,2.5826,2.5038,2.5038,2.39,2.2869,2.2772,2.0542,1.8976,1.8875,1.7803,1.7114,1.7114,1.7114,1.7114,1.7114,1.7114,1.651,1.507,1.4977,1.3809,1.1381,1.1269,1.0772,0.9599,0.9599,0.9744,1.0014,0.9988,0.9988,1.0027,1.0552,1.0674,1.0674,1.0674,1.0674,1.0674,1.0674,1.168,1.2807,1.1303,1.1808,1.3316,1.3316,1.4204,1.5854,1.7766,1.9282,2.0406,2.0529,2.0652,2.0665,2.0718,2.0691,2.0665,2.0718,1.9697,1.8385,1.6523,1.5945,1.5457,1.392,1.4949,1.6091,1.6091,1.7386,1.8916,2.03,2.0633,2.0705,2.0652,1.9355,1.8392,1.8345,1.7102,1.6734,1.8278,1.8415,1.9041,2.0685,2.0685,2.0906,2.1412,2.0958,2.0906,2.1425,2.0906,2.0731,2.0731,2.0783,2.0783,2.0731,2.0731,2.0705,2.0652,2.0652,2.0652,2.7161,2.9486,2.9314,2.8451,3.0122,3.2052,3.2093,3.0838,3.0192,3.1778,3.2115,3.1756,3.0558,2.9344,2.8213,2.7038,2.5826,2.5038,2.5038,2.4622,2.39,2.3061,2.1313,1.9962,1.9177,1.7905,1.7114,1.7114,1.7114,1.7114,1.7114,1.7114,1.6806,1.6279,1.5439,1.4045,1.2191,1.1319,1.0412,0.9296,0.9296,0.9348,0.9454,0.9454,0.9553,0.9731,0.9849,1.05,1.1475,1.1558,1.1641,1.1656,1.198,1.2432,1.2934,1.2312,1.2432,1.3061,1.3061,1.3443,1.433,1.599,1.6994,1.7619,1.7619,1.7619,1.7619,1.7619,1.7619,1.7619,1.7619,1.726,1.633,1.4493,1.4077,1.3823,1.3188,1.433,1.5602,1.5602,1.6879,1.8015,1.7619,1.9257,2.027,1.9282,1.9393,1.9282,1.8151,1.8389,1.8513,1.8151,1.9022,1.99,2.0529,2.0652,2.0744,2.0854,2.0783,2.0744,2.0854,2.077,2.0652,2.0652,2.0652,2.0652,2.0652,2.0652,2.0652,2.0652,2.0652,2.0652,2.5076,2.7717,2.8357,2.7712,2.8857,3.0169,3.0146,2.9732,2.9885,3.1695,3.184,3.1395,3.0923,2.9344,2.7854,2.7402,2.6105,2.5038,2.5038,2.5038,2.4716,2.369,2.2014,2.0625,1.9762,1.8095,1.7114,1.7114,1.7114,1.7114,1.7114,1.7114,1.7114,1.7114,1.575,1.4273,1.2807,1.1408,1.016,0.8986,0.8986,0.8986,0.8986,0.9078,0.923,0.9434,0.9526,1.0254,1.1312,1.1543,1.1744,1.186,1.2219,1.256,1.2934,1.2432,1.256,1.3061,1.3061,1.3061,1.3316,1.4972,1.5854,1.6367,1.6367,1.6367,1.6367,1.6367,1.598,1.5602,1.5602,1.4845,1.3705,1.256,1.2312,1.2312,1.2312,1.357,1.4836,1.4836,1.6116,1.713,1.6367,1.7879,1.901,1.8898,1.9406,1.9406,1.8276,1.9158,1.9393,1.8151,1.9146,2.0024,2.0529,2.0652,2.0652,2.0652,2.0652,2.0652,2.0652,2.0652,2.0652,2.0652,2.0652,2.0652,2.0652,2.0652,2.0652,2.0652,2.0652,2.0652,1.6025,1.7597,2.2022,3.0,2.8814,2.5727,2.5724,2.8979,3.2016,3.2045,3.1117,3.0667,3.184,2.9168,2.722,2.8392,2.6641,2.5038,2.5038,2.5038,2.5038,2.5038,2.2614,2.1019,2.1019,1.8587,1.7114,1.7114,1.7114,1.7114,1.7114,1.7114,1.7114,1.7114,1.575,1.4273,1.2807,1.1408,1.0045,0.8783,0.8783,0.8783,0.8797,0.8986,0.9118,0.9137,0.9434,0.9559,0.9586,0.9863,1.0146,1.0545,1.0545,1.1552,1.2807,1.1182,1.156,1.3061,1.3061,1.3061,1.3316,1.4972,1.6743,1.8027,1.8027,1.8027,1.8027,1.8027,1.6879,1.5602,1.5602,1.3078,1.0552,1.0552,1.0552,1.0552,1.0552,1.1808,1.3061,1.3061,1.4457,1.6105,1.7766,1.6743,1.6733,2.0147,1.9146,1.8151,1.8027,1.8151,1.8151,1.8027,1.8151,1.8773,2.0529,2.0652,2.0652,2.0652,2.0652,2.0652,2.0652,2.0652,2.0652,2.0652,2.0652,2.0652,2.0652,2.0652,2.0652,2.0652,2.0652,2.0652,1.8719,1.9237,2.0626,2.3159,2.4542,2.5342,2.5623,2.6706,2.807,2.9451,3.0064,3.0214,2.9716,2.8748,2.7604,2.6364,2.5584,2.5038,2.5038,2.5038,2.5038,2.5038,2.2631,2.1019,2.1019,1.8587,1.7114,1.7114,1.7114,1.7114,1.7114,1.7114,1.7114,1.7114,1.4805,1.3332,1.2807,1.0471,0.9205,0.8783,0.8783,0.8783,0.8783,0.8877,0.8923,0.893,0.8913,0.8953,0.8959,0.9045,0.9256,0.9566,0.9962,1.0611,1.1175,1.0674,1.0803,1.1303,1.1303,1.2057,1.2934,1.232,1.3205,1.4583,1.4583,1.4583,1.4583,1.4583,1.4204,1.357,1.2448,1.131,1.0552,1.0552,1.0552,1.0552,1.0552,1.0925,1.1303,1.1303,1.2687,1.395,1.4583,1.5098,1.5854,1.6983,1.6743,1.6754,1.7902,1.6105,1.5476,1.7766,1.8027,1.8276,1.8773,1.99,2.0652,2.0652,1.9517,1.9393,2.0529,2.0652,2.0652,2.0652,2.0652,2.0335,1.9932,1.9932,1.9737,1.9361,1.9356,1.9365,2.0031,1.9984,2.0044,1.9991,2.1084,2.2622,2.4927,2.5447,2.571,2.6538,2.7678,2.8352,2.7588,2.7555,2.7408,2.6297,2.5859,2.5399,2.5076,2.5038,2.5038,2.5038,2.2631,2.1019,2.1019,1.8587,1.7114,1.7114,1.7114,1.7114,1.7114,1.7114,1.6909,1.6279,1.4064,1.2586,1.206,0.9839,0.8783,0.8783,0.8783,0.8783,0.8783,0.8783,0.8783,0.8783,0.8783,0.8783,0.879,0.8903,0.8953,0.9164,0.9632,0.9994,1.0252,1.0252,1.0324,1.0552,1.0552,1.1182,1.1937,1.0803,1.168,1.3061,1.3061,1.3061,1.3061,1.3061,1.256,1.1808,1.0803,1.0552,1.0552,1.0552,1.0552,1.0552,1.0552,1.0552,1.0552,1.0552,1.1303,1.2312,1.2934,1.3324,1.4086,1.535,1.4962,1.5214,1.6879,1.535,1.4836,1.6879,1.713,1.713,1.713,1.8128,1.901,1.9653,1.7783,1.7203,1.8287,1.8287,1.8287,1.8287,1.8899,1.8976,1.8509,1.9103,1.9166,1.8815,1.883,1.8849,2.0426,2.0096,1.9764,1.9822,1.8358,1.8211,2.3507,2.4496,2.4215,2.354,2.4578,2.5653,2.5586,2.5998,2.6632,2.7623,2.7004,2.6063,2.5247,2.5133,2.5133,2.5133,2.2648,2.1019,2.1019,1.8587,1.7114,1.7114,1.7114,1.7114,1.7114,1.7114,1.6485,1.5117,1.3646,1.2165,1.0879,0.9412,0.8777,0.8884,0.8991,0.8891,0.8783,0.8998,0.8991,0.8884,0.8884,0.8884,0.8904,0.9084,0.9085,0.9118,0.9414,0.9685,0.9915,0.9935,1.012,1.0485,1.0485,1.0505,1.039,1.039,1.1538,1.2807,1.2934,1.3061,1.3061,1.3061,1.1808,1.0552,1.0552,1.0552,1.0552,1.0552,1.0552,1.0552,1.0552,1.0552,1.0552,1.0552,1.0545,1.1182,1.2807,1.1808,1.1944,1.4972,1.4077,1.357,1.5224,1.5224,1.5224,1.535,1.5321,1.5302,1.5302,1.5398,1.6138,1.7529,1.5592,1.443,1.4545,1.4545,1.4651,1.4776,1.6051,1.6713,1.6792,1.8175,1.8737,1.8698,1.8698,1.8698,2.3914,2.0932,1.7771,1.7786,1.6132,1.5501,1.9649,1.8936,1.8461,2.1779,2.4061,2.5729,2.6405,2.662,2.6457,2.5856,2.6547,2.6899,2.6082,2.5968,2.5968,2.5968,2.2976,2.1019,2.1019,1.8587,1.7114,1.7114,1.7114,1.7114,1.7114,1.7114,1.6909,1.6588,1.4169,1.2701,1.2376,0.9946,0.9198,1.025,1.1319,1.0797,0.8783,1.0895,1.1311,1.025,1.025,1.025,1.0151,0.9174,0.8883,0.8917,0.9104,0.9263,0.9348,0.9573,0.9704,0.9764,0.9764,0.9902,1.0074,1.0074,1.0478,1.1303,1.2687,1.3061,1.3061,1.3061,1.1808,1.0552,1.0552,1.0552,1.0552,1.0552,1.0552,1.0552,1.0552,1.0552,1.0552,1.0552,1.1552,1.256,1.2934,1.3823,1.4213,1.3697,1.3316,1.3188,1.357,1.244,1.2192,1.3443,1.3186,1.2893,1.3147,1.3953,1.4238,1.3538,1.2896,1.3254,1.4545,1.4545,1.5122,1.6154,1.6508,1.7002,1.7608,1.7935,1.7932,1.7517,1.7517,1.7517,2.2075,1.9258,1.7112,1.7093,1.4231,1.2076,1.4517,1.5558,1.6654,1.9228,2.1888,2.4144,2.521,2.6032,2.6395,2.5685,2.6329,2.6766,2.6329,2.5931,2.5684,2.5684,2.3458,2.19,2.19,1.9563,1.8007,1.8007,1.7408,1.7114,1.7114,1.7114,1.6806,1.6163,1.4597,1.3541,1.2807,1.0683,1.0037,1.0667,1.0895,1.0159,0.8783,1.0895,1.1408,1.0667,0.0,1.0667,1.0561,0.9305,0.8783,0.8797,0.8854,0.8913,0.8953,0.925,0.9355,0.9375,0.9513,0.9658,0.9784,0.9784,0.9896,1.0269,1.112,1.1457,1.1569,1.1569,1.0856,1.0027,1.0027,1.0027,1.0027,1.0027,1.0027,1.0027,1.0027,1.0027,1.0027,1.0027,1.075,1.1352,1.1352,1.2212,1.2457,1.1605,1.1352,1.1352,1.1352,1.0633,1.0393,1.1359,1.108,1.0977,1.1105,1.1635,1.1757,1.0945,1.065,1.0925,1.182,1.1932,1.2591,1.3911,1.4593,1.5469,1.6499,1.7252,1.7413,1.7114,1.7114,1.7114,1.8513,1.7085,1.6929,1.6009,1.2154,0.893,1.018,1.3364,1.6191,1.6671,1.9312,2.1861,2.3355,2.4924,2.612,2.6234,2.6158,2.612,2.6234,2.5665,2.5228,2.5228,2.3666,2.2676,2.2676,2.0244,1.8789,1.8789,1.7701,1.7114,1.7114,1.7114,1.6588,1.5324,1.5117,1.4377,1.3122,1.1945,1.1091,1.0667,0.9832,0.9205,0.8777,1.0356,1.0879,1.0667,0.0,1.0667,1.0561,0.9305,0.8783,0.8783,0.8783,0.8783,0.881,0.8959,0.9052,0.9085,0.9335,0.9454,0.9493,0.9493,0.9526,0.9559,0.9559,0.9724,0.9902,0.9849,0.9704,0.9559,0.9559,0.9559,0.9559,0.9559,0.9559,0.9559,0.9559,0.9559,0.9559,0.9559,0.9678,0.9907,0.9907,1.0143,1.0261,0.9907,0.9907,0.9789,0.9559,0.9559,0.9559,0.9559,0.9638,0.9728,0.9493,0.9564,0.9654,0.9428,0.8953,0.8783,0.8783,0.8783,0.9412,1.0659,1.1839,1.3322,1.5013,1.6175,1.6909,1.7114,1.7114,1.7114,1.8557,1.7056,1.5993,1.1234,0.8916,0.8444,1.059,1.157,1.2788,1.5703,1.8197,2.0601,2.2667,2.4222,2.5456,2.6139,2.5684,2.5475,2.6158,2.6139,2.6063,2.6063,2.3207,2.1313,2.1313,1.8976,1.7408,1.7408,1.7217,1.7114,1.7114,1.7114,1.7012,1.6806,1.5647,1.4909,1.4597,1.4377,1.3102,1.0667,1.1743,1.101,0.8783,1.1319,1.1839,1.0667,1.0667,0.0,1.0561,0.9305,0.8783,0.8783,0.8783,0.8783,0.879,0.883,0.885,0.8857,0.8903,0.8973,0.9184,0.9184,0.9355,0.9559,0.9559,0.9592,0.9573,0.9322,0.9401,0.9559,0.9559,0.9559,0.9559,0.9559,0.9559,0.9559,0.9559,0.9559,0.9559,0.9559,1.0718,1.1632,1.1632,1.2798,1.3263,1.1866,1.1632,1.1172,0.9678,0.9559,0.9559,0.9559,1.0358,1.0521,0.9297,1.0044,1.009,0.8917,0.883,0.8783,0.8783,0.8783,0.9412,1.0659,1.0879,1.2357,1.5013,1.522,1.5957,1.7114,1.7114,1.7114,1.8546,1.7125,1.5708,1.0133,0.8472,0.8543,0.9622,1.0624,1.2021,1.4811,1.7405,2.0025,2.2493,2.409,2.5304,2.612,2.631,2.6329,2.6272,2.5874,2.5589,2.5589,2.4154,2.2921,2.2094,2.0344,1.8875,1.8196,1.7511,1.7114,1.7114,1.7114,1.7114,1.7114,1.6485,1.575,1.5013,1.4169,1.2797,1.0667,1.0683,0.9946,0.8777,1.0789,1.1302,1.0667,1.0667,1.0667,1.0561,0.9305,0.8783,0.8783,0.8783,0.8783,0.8783,0.8783,0.8783,0.8783,0.8783,0.887,0.888,0.888,0.8973,0.9078,0.9078,0.9078,0.9052,0.8913,0.8973,0.9078,0.9078,0.9078,0.9078,0.9078,0.9078,0.9078,0.9078,0.9078,0.9078,0.9078,0.9737,1.0288,1.0288,1.0949,1.1171,1.04,1.0288,0.9961,0.919,0.9078,0.9078,0.9078,0.961,0.9634,0.899,0.939,0.9412,0.8777,0.8783,0.8783,0.8783,0.8783,0.8991,0.9618,1.0356,1.1725,1.3855,1.3855,1.4597,1.5957,1.5957,1.6382,1.8228,0.0,1.5779,1.0141,0.8697,0.8783,0.0,1.0052,1.1839,1.3885,1.6704,1.9627,2.2061,2.39,2.5247,2.5874,2.65,2.669,2.6063,2.5437,2.5114,2.5304,2.4848,2.4182,2.3343,2.1624,2.0145,1.9177,1.7803,1.7114,1.7114,1.7114,1.7114,1.7114,1.7114,1.6382,1.5013,1.3541,1.227,1.1196,0.9832,0.9198,0.9198,1.025,1.0561,1.025,1.025,1.025,1.0144,0.9205,0.8783,0.8783,0.8783,0.8783,0.8783,0.8783,0.8783,0.8783,0.8783,0.8783,0.8783,0.8783,0.8783,0.8783,0.8783,0.8783,0.8783,0.8783,0.8783,0.8783,0.8783,0.8991,0.9091,0.8783,0.8991,0.9091,0.8777,0.8783,0.8783,0.8783,0.8783,0.8783,0.8783,0.8783,0.8783,0.8783,0.8783,0.8783,0.8783,0.8783,0.8783,0.8783,0.8783,0.8783,0.8783,0.8783,0.8783,0.8783,0.8783,0.8783,0.8783,0.8783,0.8783,0.8783,0.9725,1.0781,1.1857,1.2491,1.3751,1.5439,1.5439,1.6072,0.0,1.7089,1.5779,1.0141,0.8697,0.8783,0.8783,0.9832,0.0,1.2692,1.6118,1.9329,2.0806,2.3324,2.5057,2.5114,2.5171,2.519,2.5133,2.5076,2.5323,2.6082,2.4336,2.3378,2.4153,2.1135,1.9177,1.9076,1.7803,1.7114,1.7114,1.7114,1.7114,1.7114,1.7114,1.6382,1.5013,1.3541,1.2807,1.2701,1.1196,1.0561,1.0561,1.0667,1.0037,0.8884,0.8884,0.8884,0.8884,0.8777,0.8783,0.8783,0.8783,0.8783,0.8783,0.8783,0.8783,0.8783,0.8783,0.8783,0.8783,0.8783,0.8783,0.8783,0.8783,0.8783,0.8783,0.8783,0.8783,0.8783,0.8783,0.9618,1.025,0.8991,0.9618,1.025,0.8991,0.8783,0.8783,0.8783,0.8783,0.8783,0.8783,0.8783,0.8783,0.8783,0.8783,0.8783,0.8783,0.8783,0.8783,0.8783,0.8783,0.8783,0.8783,0.8783,0.8783,0.8783,0.8783,0.8783,0.8783,0.8783,0.8783,0.8783,0.8891,0.8884,0.8991,1.1637,1.4273,1.6909,1.6909,1.7012,1.7101,1.7089,1.6013,1.1575,0.9574,0.8783,0.8783,0.9725,1.1091,1.2481,1.6028,1.9329,2.0708,2.3228,2.5209,2.5722,2.5798,2.5798,2.5798,2.5798,2.5722,2.5532,2.4808,2.4027,2.3501,2.1492,1.9962,1.9076,1.7803,1.7114,1.7114,1.7114,1.7114,1.7114,1.7114,1.6382,1.5013,1.4388,1.3751,1.2807,1.1417,1.0667,1.0659,0.9832,0.9198,0.8783,0.8783,0.8783,0.0,0.8783,0.8783,0.8783,0.8783,0.8783,0.8783,0.8783,0.8783,0.8783,0.8783,0.8783,0.8783,0.8783,0.8783,0.8783,0.8783,0.8783,0.8783,0.8783,0.8783,0.8783,0.8783,0.9091,0.9305,0.8884,0.9725,1.0356,0.8991,1.0052,1.1002,1.0151,1.0683,1.1002,1.0144,0.9931,0.9725,0.8884,0.8783,0.8783,0.8783,0.8783,0.8783,0.8783,0.8783,0.8783,0.8783,0.8783,0.8783,0.8783,0.8783,0.8783,0.8783,0.8783,0.8783,0.8783,0.8783,0.8783,0.8783,0.9732,1.1743,1.4481,1.5336,1.6279,1.7135,1.7062,1.6084,1.1708,0.954,0.8564,0.8763,1.0151,1.1725,1.3187,1.6729,1.9954,2.1297,2.3516,2.5228,2.5779,2.5874,2.5874,2.5874,2.5646,2.5266,2.4697,2.464,2.4117,2.2932,2.1591,2.0472,1.9611,1.8571,1.7819,1.7332,1.7607,1.7431,1.6855,1.7023,1.66,1.5647,1.4701,1.4064,1.3437,1.1619,1.0667,1.0659,0.9725,0.9098,0.8783,0.8783,0.8783,0.8783,0.8783,0.8783,0.8783,0.8783,0.8783,0.8783,0.8783,0.8783,0.8783,0.8783,0.8783,0.8783,0.8783,0.8783,0.8783,0.8783,0.8783,0.8783,0.8783,0.8783,0.8783,0.8783,0.9098,0.9305,0.8884,1.0045,1.0993,0.9626,1.0789,1.1839,1.0879,1.1522,1.1839,1.0879,1.1091,1.1099,1.0159,0.9626,0.9412,0.9412,0.8991,0.8783,0.8783,0.8783,0.8783,0.8783,0.8783,0.8783,0.8783,0.8783,0.8783,0.8783,0.8783,0.8783,0.8783,0.8783,0.8783,0.8783,0.9205,1.0364,1.2165,1.3646,1.5013,1.7096,1.711,1.5735,1.0124,0.8464,0.8327,0.871,1.0895,1.3197,1.4486,1.8144,2.1411,2.2676,2.409,2.5038,2.5133,2.5038,2.5038,2.5114,2.4298,2.3747,2.3766,2.3766,2.3425,2.2637,2.1413,2.0617,2.0634,2.0139,1.9241,1.7941,1.8629,1.819,1.6381,1.6816,1.7101,1.7114,1.4273,1.3541,1.4909,1.2041,1.0667,1.0667,1.0667,0.9931,0.8783,0.8783,0.8783,0.8783,0.8783,0.8783,0.8783,0.8783,0.8783,0.8783,0.8783,0.8783,0.8783,0.8783,0.8783,0.8783,0.8783,0.8783,0.8783,0.8783,0.8783,0.8783,0.8783,0.8783,0.8783,0.8783,0.9725,1.0348,0.9098,1.0789,1.2376,1.0985,1.0667,1.0773,1.0667,1.0773,1.0773,1.0667,1.1839,1.2807,1.2807,1.1628,1.0667,1.0667,0.9512,0.8783,0.8783,0.8783,0.8783,0.8783,0.8783,0.8783,0.8783,0.8783,0.8783,0.8783,0.8783,0.8783,0.8783,0.8783,0.8783,0.8783,1.0037,1.0659,1.0765,1.2146,1.3636,1.7167,1.5512,1.382,1.1445,1.0609,1.0253,0.993,1.1841,1.4265,1.5967,1.8775,2.1411,2.2728,2.4127,2.5397,2.6159,2.5041,2.4672,2.6219,2.4898,2.4078,2.473,2.4813,2.446,2.3634,2.3157,2.2315,2.0704,1.9572,1.8349,1.728,1.8271,1.8286,1.6753,1.6194,1.6114,1.653,1.571,1.5177,1.4909,1.3112,1.1628,1.0659,0.9725,0.9091,0.8783,0.8783,0.8783,0.8783,0.8783,0.8783,0.8783,0.8783,0.8783,0.8783,0.8783,0.8783,0.8783,0.8783,0.8783,0.8783,0.8783,0.8783,0.8783,0.8783,0.8783,0.8783,0.8783,0.8783,0.8783,0.8783,0.8991,0.9198,0.8891,1.0045,1.1196,1.0773,1.2252,1.3426,1.2376,1.2997,1.3102,1.1091,1.1839,1.2174,1.0266,1.0356,1.0348,0.9405,0.8991,0.8783,0.8783,0.8783,0.8783,0.8783,0.8783,0.8783,0.8783,0.8783,0.8783,0.8783,0.8783,0.8783,0.8783,0.8783,0.8783,0.8783,0.8884,0.9898,1.1702,1.1928,1.3177,1.6966,1.4841,1.3239,1.2057,1.1091,1.0378,1.034,1.1963,1.4274,1.7131,1.9488,2.1526,2.3438,2.4887,2.5894,2.6134,2.5183,2.49,2.6132,2.4276,2.3156,2.4182,2.361,2.3089,2.2931,2.2555,2.1996,2.1007,2.0055,1.8988,1.762,1.8457,1.8256,1.6633,1.6168,1.5928,1.5933,1.5333,1.4793,1.4297,1.3068,1.1812,1.0359,0.9772,0.9198,0.8783,0.8783,0.8991,0.9519,0.8991,0.9098,0.9519,0.8991,0.8783,0.8783,0.8783,0.8783,0.8783,0.8783,0.8783,0.8783,0.8783,0.8783,0.8783,0.8783,0.8783,0.8783,0.8783,0.8783,0.8783,0.8783,0.8783,0.8884,0.9412,1.0993,1.2357,1.2357,1.374,1.4701,1.3855,1.396,1.3531,1.1839,1.227,1.228,1.0585,1.0569,1.0455,0.9618,0.9098,0.8783,0.8783,0.8783,0.8783,0.8783,0.8783,0.8783,0.8797,0.8797,0.8797,0.8702,0.8702,0.8696,0.8797,0.8797,0.863,0.8505,0.8237,0.8889,1.0312,1.0678,1.1908,1.6531,1.495,1.3762,1.2274,1.0679,0.9768,1.0436,1.1797,1.4084,1.819,2.0167,2.2014,2.4716,2.6099,2.6556,2.5801,2.5513,2.5439,2.5572,2.3252,2.1862,2.2875,2.1572,2.0849,2.1545,2.0849,2.0551,2.1345,2.1178,2.0355,1.8709,1.8993,1.8292,1.6396,1.662,1.6336,1.5427,1.4063,1.3322,1.318,1.2368,1.128,0.9904,1.0215,0.9742,0.8703,0.873,0.9369,1.0415,0.9184,0.9412,1.0348,0.9198,0.8783,0.8783,0.8783,0.8783,0.8783,0.8783,0.8783,0.8783,0.8783,0.8783,0.8783,0.8783,0.8783,0.8783,0.8783,0.8783,0.8783,0.8783,0.8783,0.9098,1.025,1.2567,1.469,1.4909,1.5013,1.5013,1.5013,1.396,1.2912,1.2692,1.2701,1.2701,1.2491,1.1417,1.0667,1.0561,0.9519,0.8783,0.8783,0.8783,0.8783,0.8783,0.8783,0.8797,0.8709,0.8487,0.8385,0.8296,0.8296,0.8284,0.8373,0.8575,0.8537,0.8158,0.8106,0.8036,0.8054,0.8981,1.0284,1.5391,1.5361,1.563,1.1689,1.1642,1.2753,1.2961,1.4677,1.7107,1.9951,2.1591,2.3349,2.5953,2.6488,2.7072,2.8682,2.6928,2.591,2.7599,2.5406,2.3957,2.4917,2.4706,2.4222,2.3735,2.2815,2.2075,2.1419,2.0727,2.0084,1.9686,1.9048,1.8435,1.7962,1.6519,1.5784,1.594,1.4862,1.3908,1.318,1.2169,1.0985,0.9553,0.8744,0.8287,0.801,0.8247,0.8443,0.867,0.869,0.8884,0.9098,0.8884,0.8783,0.8783,0.8783,0.8783,0.8783,0.8783,0.8783,0.8783,0.8783,0.8783,0.8783,0.8783,0.8783,0.8783,0.8783,0.8783,0.8783,0.8783,0.8783,0.8783,0.9098,1.0463,1.2252,1.4481,1.5013,1.5013,1.5013,1.469,1.374,1.1514,1.206,1.2069,0.9946,1.025,1.0356,0.9305,0.8884,0.8783,0.8783,0.8783,0.879,0.8696,0.8702,0.8709,0.8729,0.6521,0.5207,0.5211,0.5211,0.5207,0.5207,0.7533,0.8566,0.8184,0.7819,0.8566,1.0015,0.9167,1.0324,1.831,1.7651,1.6704,1.5249,1.4638,1.4476,1.4774,1.5755,1.7712,2.148,2.3136,2.486,2.782,2.8697,2.9102,2.9783,2.8162,2.7147,2.8251,2.5984,2.4588,2.5466,2.5198,2.4748,2.4314,2.3829,2.3105,2.2219,2.1198,2.0923,2.1366,2.0457,1.9402,1.8502,1.6958,1.6012,1.5793,1.4692,1.389,1.338,1.3195,1.2309,1.0932,1.0009,0.9242,0.8592,0.8174,0.8335,0.8937,0.8499,0.8662,0.9281,0.8724,0.8472,0.8491,0.8623,0.8783,0.8783,0.8783,0.8783,0.8737,0.8353,0.8359,0.8576,0.9302,0.9192,0.8991,1.0372,1.0258,0.9832,1.0478,1.0151,0.9832,1.0585,1.0675,1.1514,1.4377,1.5531,1.5957,1.5957,1.5428,1.4481,1.2997,1.2261,1.1311,0.9938,0.9725,0.9512,0.8891,0.8783,0.8783,0.8783,0.879,0.8696,0.8709,0.7391,0.5972,0.467,0.3142,0.2273,0.2276,-0.0433,-0.0645,0.2219,0.6471,0.8478,0.7865,0.7649,0.8048,0.8924,0.9233,1.0298,1.8003,1.707,1.5751,1.8328,1.766,1.6547,1.7552,1.7877,1.9149,2.3247,2.5227,2.7206,3.0085,3.1343,3.1793,3.1305,2.9963,2.9,2.8969,2.6688,2.523,2.5848,2.5278,2.4857,2.4952,2.4721,2.4221,2.3479,2.2849,2.2756,2.3317,2.2393,2.0991,1.929,1.8235,1.7083,1.5941,1.4557,1.3892,1.3906,1.3873,1.3213,1.2079,1.1222,1.0188,0.9078,0.8095,0.8395,0.9433,0.8267,0.8474,0.9458,0.8475,0.808,0.8106,0.8439,0.8524,0.8524,0.8524,0.8524,0.8445,0.7971,0.8076,0.8579,0.9772,0.9662,0.9667,1.1952,1.1528,1.08,1.1961,1.1329,1.08,1.1952,1.1799,1.194,1.436,1.5999,1.7114,1.7114,1.6163,1.522,1.5013,1.2997,1.1302,1.1091,0.9938,0.9098,0.9098,0.8884,0.8783,0.879,0.8696,0.8373,0.7277,0.499,0.2493,0.0109,0.0,-0.0433,-0.1519,-0.6183,-0.6509,-0.1644,0.3466,0.6314,0.6847,0.7266,0.7384,0.7292,0.9137,1.0224,0.259,0.5401,0.9267,1.4499,1.8269,2.15,2.4345,2.5673,2.6266,2.6376,2.8896,3.1433,3.2297,3.3204,3.4363,3.6059,3.3681,3.1723,3.1992,2.9986,2.8304,2.7888,2.7701,2.7639,2.7665,2.6931,2.6109,2.5212,2.628,2.6357,2.5043,2.4219,2.325,2.2236,2.1284,1.9913,1.8037,1.607,1.5138,1.5057,1.2211,1.0734,1.0481,0.8509,0.7504,0.735,0.7415,0.7522,0.7719,0.7802,0.7909,0.8006,0.7858,0.7872,0.7878,0.7911,0.7924,0.7924,0.7924,0.7924,0.7918,0.7839,0.8517,0.9417,0.961,1.0206,1.0994,1.1378,1.0627,0.9772,0.9869,0.9869,0.9772,0.9869,1.188,1.3864,1.4174,1.5743,1.7114,1.7114,1.6909,1.6382,1.522,1.469,1.396,1.2692,1.1311,1.0455,1.0455,0.9412,0.879,0.8702,0.8702,0.6732,0.1626,0.076,0.0434,0.0,0.0,-0.2278,-0.7413,-0.83,-0.8366,-0.7586,-0.5852,-0.196,0.4061,0.6083,0.7521,0.8365,0.862,0.9887,-0.5639,-0.1797,0.3899,1.1762,1.7448,2.2097,2.5733,2.8785,3.1005,3.1415,3.3843,3.6063,3.667,3.6794,3.7187,3.8353,3.5431,3.3144,3.3265,3.1306,2.9714,2.9426,2.904,2.8829,2.8746,2.8783,2.8195,2.6876,2.8707,2.9143,2.756,2.6661,2.5594,2.4288,2.3367,2.1753,1.929,1.724,1.5926,1.5299,1.3879,1.2802,1.207,1.0579,0.9484,0.8815,0.8273,0.7736,0.7153,0.7278,0.7338,0.7351,0.7502,0.7562,0.7582,0.7753,0.7812,0.7812,0.7812,0.7963,0.8207,0.8207,0.8698,0.9417,1.0148,1.085,1.1595,1.312,1.2641,1.1794,1.2568,1.1814,1.0856,1.1501,1.1561,1.1909,1.3335,1.4287,1.5145,1.596,1.6426,1.6434,1.5821,1.5354,1.4805,1.4169,1.2146,1.0594,1.0502,0.941,0.873,0.8793,0.7282,0.4495,0.0308,0.0,0.0,0.0,-0.2923,-0.5763,-0.8349,-0.8389,-0.8357,-0.8116,-0.6039,-0.283,0.1512,0.3407,0.5537,0.7706,0.8967,1.0056,-1.3572,-1.0635,-0.5113,0.8152,1.5466,2.0797,2.6002,3.0336,3.3645,3.514,3.7708,3.9848,4.0426,3.9986,3.974,4.0411,3.7289,3.4785,3.4881,3.3066,3.1586,3.1257,3.0744,3.0281,3.0083,3.0584,3.0639,3.0054,3.1691,3.1988,3.0467,2.9538,2.822,2.6433,2.5512,2.3693,2.0931,1.9442,1.7874,1.6055,1.5042,1.4069,1.3155,1.1821,1.0653,0.9803,0.8628,0.7706,0.7048,0.7292,0.7371,0.7485,0.797,0.7969,0.7728,0.8244,0.8237,0.7956,0.7956,0.8184,0.8612,0.8866,0.9415,1.0094,1.1053,1.1552,1.2266,1.4317,1.3932,1.3197,1.4239,1.3129,1.1922,1.2732,1.1811,1.1345,1.3185,1.3842,1.4413,1.5215,1.5939,1.6434,1.6146,1.529,1.4625,1.4625,1.2347,1.0518,1.0265,0.9237,0.849,0.8499,0.5797,0.3017,0.0196,0.0,-0.0587,-0.1855,-0.5712,-0.8262,-0.8911,-0.8856,-0.8814,-0.8698,-0.6653,-0.41,-0.1121,0.0258,0.2671,0.6156,0.8798,1.0234,-2.3862,-2.4287,-2.1041,0.237,1.1975,1.7922,2.6662,3.1032,3.3772,3.5692,3.9141,4.1932,4.2355,4.1796,4.1779,4.3268,4.005,3.746,3.7841,3.649,3.5061,3.3757,3.3388,3.3004,3.2555,3.2535,3.3454,3.5768,3.5904,3.5299,3.3845,3.2889,3.131,2.8829,2.8,2.6382,2.3923,2.3784,2.1886,1.8089,1.4083,1.2176,1.2093,0.9803,0.8696,0.862,0.7542,0.7041,0.7041,0.8033,0.845,0.862,0.9747,0.9493,0.8645,0.9775,0.9435,0.8499,0.8499,0.8559,0.8705,0.9887,1.1009,1.1889,1.1961,1.2721,1.3491,1.3656,1.2911,1.209,1.2174,1.209,1.2006,1.209,1.3229,1.4369,1.4469,1.5687,1.6461,1.5492,1.615,1.6608,1.5545,1.4522,1.3867,1.3867,1.1831,1.0248,0.9979,0.871,0.7865,0.78,0.5208,0.2546,0.0196,0.0,-0.2048,-0.69,-0.7503,-0.8651,-1.1028,-1.0783,-1.0955,-1.1783,-1.1354,-0.8806,-0.4197,-0.3431,-0.0686,0.3799,0.7436,1.0159,-3.0035,-2.6525,-2.0767,-0.5079,0.5683,1.4695,2.3023,2.9314,3.4303,3.7512,4.0868,4.3407,4.3856,4.3038,4.2443,4.2899,3.9818,3.7397,3.7344,3.6433,3.5654,3.537,3.4891,3.4678,3.4996,3.4956,3.5143,3.5709,3.6158,3.6047,3.5194,3.4978,3.3961,3.1899,3.1582,3.0201,2.7653,2.7594,2.6173,2.3329,1.8922,1.5872,1.415,1.2555,1.1478,1.0737,0.9644,0.8721,0.7955,0.7706,0.7542,0.7628,0.8056,0.7885,0.7628,0.8056,0.7885,0.804,1.1705,1.2835,1.2867,1.3287,1.3243,1.3036,1.3036,1.3294,1.3565,1.3565,1.332,1.3085,1.3085,1.259,1.2176,1.2921,1.2985,1.3372,1.4806,1.5488,1.5813,1.5405,1.5644,1.5673,1.4954,1.4549,1.4227,1.3832,1.1413,0.9516,0.9384,0.8359,0.7574,0.7319,0.3957,0.1304,0.0091,-0.2799,-0.5317,-0.7117,-0.8667,-1.0224,-1.1601,-1.1641,-1.209,-1.2938,-1.2756,-1.1919,-1.0352,-0.714,-0.3914,-0.0772,0.4949,0.957,-3.4478,-2.8745,-2.1626,-0.9892,0.0201,0.949,1.8028,2.5483,3.184,3.6004,3.9967,4.2907,4.3537,4.2695,4.1753,4.1155,3.8602,3.6471,3.5964,3.5565,3.5489,3.5893,3.5694,3.5633,3.5975,3.5381,3.484,3.4535,3.528,3.5535,3.5135,3.5638,3.53,3.3802,3.3748,3.282,3.0865,3.0664,2.9549,2.7428,2.3878,2.0834,1.8351,1.5905,1.3553,1.1408,1.066,0.9444,0.8056,0.8086,0.8266,0.8507,0.9019,0.8576,0.7877,0.8891,0.9355,1.0229,1.446,1.6545,1.7262,1.7457,1.6819,1.5827,1.5669,1.4928,1.43,1.4624,1.4218,1.3729,1.4069,1.366,1.3332,1.4069,1.3974,1.4123,1.5525,1.6165,1.6325,1.5941,1.6165,1.6062,1.5012,1.4827,1.4447,1.3405,1.147,1.0136,1.0136,0.8955,0.7562,0.6003,0.2619,-0.0268,-0.2177,-0.5179,-0.7315,-0.8087,-1.0594,-1.2449,-1.3356,-1.4238,-1.4901,-1.5452,-1.5443,-1.5398,-1.5146,-1.1968,-0.8605,-0.4911,0.101,0.7758,-3.733,-3.1746,-2.5,-1.1678,-0.4186,0.2512,1.2117,1.9914,2.641,3.1081,3.6303,4.0389,4.1297,4.076,3.9685,3.8259,3.6463,3.4928,3.3877,3.4081,3.4644,3.5345,3.5798,3.5839,3.5263,3.3613,3.2631,3.2691,3.3427,3.3843,3.3742,3.4819,3.5078,3.4318,3.4308,3.3966,3.3315,3.2817,3.1648,2.9921,2.8321,2.6416,2.4135,1.9252,1.4513,1.0094,1.0067,0.871,0.6809,0.9096,1.037,1.0998,1.2806,1.1733,0.9514,1.2199,1.3599,1.4529,1.6405,1.8883,2.1341,2.2048,2.1431,2.039,1.978,1.7763,1.5766,1.6705,1.5401,1.4042,1.5204,1.546,1.546,1.5525,1.6245,1.6942,1.7021,1.7865,1.827,1.7257,1.7804,1.7882,1.5766,1.5379,1.4652,1.2508,1.2176,1.2105,1.2105,1.0357,0.7714,0.3904,0.1298,-0.1992,-0.663,-0.71,-0.8087,-1.0327,-1.318,-1.5387,-1.6685,-1.8524,-1.954,-1.9622,-1.9757,-1.9237,-1.8283,-1.7872,-1.4739,-0.8861,-0.4349,0.4709,-3.66,-3.081,-2.4319,-1.2066,-0.5169,0.0977,0.9592,1.6361,2.2581,2.8849,3.3112,3.6475,3.9035,3.8685,3.7477,3.595,3.4666,3.3129,3.1297,3.2098,3.2759,3.2484,3.318,3.2981,3.1333,3.0983,3.0368,2.9438,3.0026,3.0826,3.1653,3.2203,3.2308,3.1886,3.1887,3.1454,3.0617,3.0477,3.0069,2.936,2.7589,2.4192,1.9341,1.6646,1.2014,0.6045,0.4979,0.1801,-0.226,0.3119,0.1292,-0.3792,0.7015,1.0715,0.9439,0.4857,0.2484,0.2863,1.2189,1.6423,1.8529,2.3624,2.3765,2.2238,2.3782,2.2352,2.0023,1.9051,1.8319,1.7922,1.8261,1.742,1.6956,1.8957,1.8653,1.8243,1.9743,2.0266,2.034,2.0023,1.9687,1.9043,1.7719,1.6294,1.5138,1.4571,1.4489,1.3906,1.2259,1.0841,0.8272,0.3986,-0.0086,-0.3724,-0.6764,-0.8458,-1.0575,-1.3387,-1.5133,-1.7574,-2.0894,-2.1565,-2.2561,-2.4227,-2.3539,-2.2874,-2.2419,-2.0196,-1.8689,-1.7567,-0.5949,0.2548,-4.1046,-3.3222,-2.4043,-1.3415,-0.6206,0.0106,0.7208,1.3991,2.0297,2.5422,3.0051,3.3659,3.5489,3.5676,3.4822,3.2539,3.1687,3.0533,2.8304,2.9003,2.9875,3.0134,2.9066,2.7616,2.595,2.6158,2.5848,2.4565,2.5307,2.6144,2.715,2.8233,2.8734,2.842,2.8825,2.8508,2.7443,2.7288,2.6808,2.6049,2.4336,2.0689,1.5379,1.234,0.7416,0.1142,-0.1608,-0.4724,-0.8013,-0.9747,-0.9252,-0.6308,0.3872,0.4391,-0.1676,-1.0162,-0.8508,-0.0797,0.793,1.3944,1.8624,2.3651,2.3983,2.2739,2.466,2.3659,2.1939,2.2264,2.0171,1.8545,2.1424,2.0441,1.9199,2.1612,2.1654,2.1545,2.2652,2.2885,2.2885,2.2885,2.2222,2.1183,1.9667,1.8225,1.7051,1.6674,1.5911,1.4719,1.2921,1.1322,0.9288,0.6659,0.1896,-0.2673,-0.6646,-0.9859,-1.2401,-1.4218,-1.7333,-2.0262,-2.266,-2.4377,-2.6077,-2.7817,-2.7283,-2.6878,-2.6588,-2.4311,-2.3847,-2.4707,-0.7395,0.1862,-4.7355,-3.7463,-2.5284,-1.5686,-0.7823,-0.1108,0.0,1.1944,1.8695,2.1676,2.7104,3.1396,3.1671,3.2448,3.2025,2.867,2.8204,2.7383,2.503,2.5247,2.615,2.7446,2.4254,2.1545,2.0647,2.0868,2.0554,1.9382,1.9985,2.063,2.1191,2.3201,2.4174,2.3954,2.4724,2.465,2.3604,2.3139,2.2238,2.0955,1.9419,1.6263,1.1584,0.7029,0.1865,-0.3769,-0.8346,-1.0316,-1.1263,-2.3701,-1.9088,-0.3799,0.0012,-0.6096,-1.7965,-2.5965,-1.7213,-0.0732,0.4079,1.1347,1.9052,2.2242,2.2522,2.1943,2.3467,2.2531,2.1608,2.4882,2.1312,1.8031,2.4401,2.4031,2.2353,2.4251,2.5303,2.5938,2.6088,2.5976,2.5911,2.5873,2.5109,2.3831,2.1852,2.063,1.9668,1.8743,1.7035,1.535,1.3974,1.1893,1.0411,1.0311,0.5511,-0.0172,-0.6457,-1.107,-1.3879,-1.4558,-1.9726,-2.3029,-2.3542,-2.7162,-2.9637,-3.0663,-3.091,-3.0916,-3.0833,-2.9283,-2.9316,-3.0175,-0.9081,0.1498,0.0,0.0,0.0,0.0,0.0,0.0,0.0,0.6977,1.4419,1.9715,2.4497,2.8241,3.0254,3.0767,2.9799,2.6281,2.5791,2.461,2.1462,2.1823,2.2183,2.1708,2.1,2.0353,2.0182,2.0213,1.9345,1.7262,1.6988,1.6821,1.6635,1.6884,1.7368,1.8147,1.754,1.7492,1.8061,1.7154,1.6461,1.5955,1.4721,1.1358,0.6104,0.2474,-0.1718,-0.6347,-1.0785,-1.2727,-1.3219,-1.9407,-1.9894,-1.6727,-1.6893,-1.9622,-2.2965,-1.9023,-1.4402,-0.86,0.2428,0.811,1.1527,1.8341,1.96,1.8986,2.2061,2.0603,1.8529,2.1248,2.1732,2.2124,2.5346,2.6961,2.8266,3.0383,3.028,2.9945,3.1013,3.0663,2.995,2.9486,2.8114,2.6573,2.4891,2.2441,2.0717,2.0498,1.963,1.8029,1.5365,1.3011,1.1206,1.0396,0.5511,-0.0172,-0.6481,-1.1091,-1.5671,-2.0641,-2.2069,-2.4557,-2.8672,-3.0452,-3.1816,-3.2974,-3.3603,-3.4274,-3.5031,-3.2984,-3.234,-3.2342,-1.254,-0.1705,0.0,0.0,0.0,0.0,0.0,0.0,0.0,0.0,0.0,0.0,0.0,2.8068,2.9307,0.0,2.8441,2.5422,2.4458,2.3082,2.0328,2.0284,1.9554,1.6803,1.6652,1.6646,1.6088,1.6278,1.5751,1.4051,1.372,1.3542,1.3292,1.3473,1.3606,1.3644,1.3501,1.2824,1.1678,1.1177,0.9696,0.7273,0.6147,0.2611,-0.28,-0.4581,-0.7739,-1.191,-1.3632,-1.4714,-1.5358,-1.7552,-1.9325,-2.06,-2.0749,-2.1427,-2.1993,-1.8811,-1.5911,-1.2163,-0.2579,0.3299,0.754,1.3155,1.523,1.5848,1.7483,1.5649,1.405,1.9038,1.9284,1.9595,2.628,2.7906,2.8414,3.0915,3.1791,3.2041,3.1907,3.2526,3.2893,3.2381,3.0914,2.9299,2.7843,2.6026,2.422,2.2661,2.0923,1.8931,1.6389,1.3611,1.1422,1.0444,0.4822,-0.1525,-0.8102,-1.1133,-1.4907,-2.0117,-2.3359,-2.6701,-3.0357,-3.2004,-3.3495,-3.5118,-3.6041,-3.6712,-3.7289,-3.6293,-3.5699,-3.5042,-1.7487,-0.5299,0.0,0.0,0.0,0.0,0.0,0.0,0.0,0.0,0.0,0.0,0.0,0.0,0.0,0.0,0.0,2.4866,2.32,2.1376,1.9201,1.8853,1.7475,1.3698,1.3384,1.3133,1.2261,1.2614,1.2397,1.1261,1.11,1.0957,1.0669,1.0894,1.0666,1.0079,1.0149,0.8907,0.6075,0.5813,0.3686,-0.0437,-0.1826,0.0,-0.9506,-1.0449,-1.2867,-1.6214,-1.5846,-1.6165,-1.6863,-1.6452,-1.7746,-1.9815,-1.8734,-1.8659,-1.9293,-1.9702,-1.7488,-1.3296,-0.6986,-0.0917,0.4667,0.8062,1.0449,1.1955,1.2002,0.9928,0.0,1.6018,1.5748,1.5658,2.5427,2.724,2.7125,2.9423,3.1318,3.2337,3.1343,3.2809,3.4271,3.4211,3.309,3.1757,3.037,2.9686,2.8241,2.4794,2.2325,1.9831,1.6909,1.3973,1.1702,1.0449,0.3908,-0.3061,-0.9704,-1.147,-1.4019,-1.8473,-2.3805,-2.7852,-3.0084,-3.1908,-3.3849,-3.5818,-3.7003,-3.8105,-3.9169,-3.8773,-3.8221,-3.7213,-2.086,-0.7521,0.0,0.0,0.0,0.0,0.0,0.0,0.0,0.0,0.0,0.0,0.0,0.0,0.0,0.0,0.0,0.0,2.0875,1.8417,1.5823,1.5528,1.5345,1.4794,1.3698,1.2833,1.2729,1.2784,1.2225,1.0859,1.0566,0.9896,0.8607,0.7115,0.0,0.0,0.0,0.4122,0.3333,0.239,0.0659,-0.1913,-0.4161,-0.5856,-0.7294,-1.1401,-1.3488,-1.407,-1.5975,-1.68,-1.6784,-1.481,-1.4744,-1.5881,-1.4687,-1.6027,-1.8355,-1.6484,-1.4864,-1.2565,-0.5986,0.0,0.0,0.4641,0.5955,0.6377,0.7287,0.5191,0.3758,0.9605,1.2274,1.4634,2.0067,2.4541,2.7824,2.859,2.9242,2.992,3.1031,3.1848,3.2705,3.3812,3.4078,3.3558,3.1767,3.1851,3.0725,2.6317,2.499,2.236,1.6594,1.434,1.2504,1.0509,0.0,0.0,-0.9826,-1.2139,-1.5467,-2.0681,-2.3279,-2.5785,-2.8216,-2.9583,-3.111,-3.2712,-3.4775,-3.7769,-4.1547,-3.9637,-3.8489,-3.7596,-1.8687,-0.5656,0.0,0.0,0.0,0.0,0.0,0.0,0.0,0.0,0.0,0.0,0.0,0.0,0.0,0.0,0.0,0.0,2.1815,1.9758,1.6258,1.4095,1.2702,1.2101,1.1077,1.0151,0.9277,0.917,0.863,0.7126,0.6827,0.6884,0.7111,0.5551,0.5243,0.6541,0.3741,0.1849,0.097,-0.0291,-0.2001,-0.4226,-0.6472,-0.8021,-0.8933,-1.2847,-1.461,-1.4719,-1.5909,-1.6274,-1.5876,-1.3985,-1.4016,0.0,0.0,0.0,0.0,0.0,-1.5045,-1.2824,-0.8637,-0.4048,0.0342,0.2506,0.4155,0.4921,0.3362,0.2336,0.234,0.5453,0.7879,1.0822,1.622,1.9571,2.1919,2.3418,2.4723,2.609,2.7665,2.9251,3.1161,3.3836,3.4281,0.0,3.3191,3.3406,3.2668,2.9687,2.7286,2.4405,2.0237,1.656,1.3772,1.2249,0.3758,-0.4625,-1.1604,-1.4069,0.0,0.0,0.0,-2.7321,-3.0152,-3.1992,0.0,0.0,0.0,0.0,0.0,0.0,0.0,0.0,-1.8415,-0.678,0.0,0.0,0.0,0.0,0.0,0.0,0.0,0.0,0.0,0.0,0.0,0.0,0.0,0.0,0.0,0.0,2.2264,2.0314,1.6452,1.383,1.1782,1.0157,0.8773,0.7485,0.6094,0.5926,0.5527,0.4338,0.4227,0.4771,0.5742,0.4242,0.3876,0.492,0.2342,0.0402,-0.0905,-0.2308,-0.3941,-0.5803,-0.8481,-1.0134,-1.0758,-1.3945,-1.5586,-1.5934,-1.5885,-1.5915,-1.5767,-1.4144,-1.4154,-1.511,-1.4348,-1.5349,-1.712,-1.6943,-1.5979,-1.4322,-1.1123,-0.6213,-0.1108,0.0692,0.2422,0.3362,0.0777,0.0347,0.1127,0.2577,0.461,0.7592,1.2764,1.4911,1.612,1.7897,1.942,2.0948,2.2757,2.5045,2.7865,3.1562,3.2577,3.3015,3.3777,3.4599,3.4289,3.1798,2.8956,2.5761,2.2249,1.7801,1.4548,1.3519,0.4047,-0.5523,-1.3838,-1.577,-1.8575,-2.3376,-2.5984,-2.8886,-3.2259,-3.3622,-3.5421,-3.761,-3.5996,-3.5325,0.0,0.0,0.0,0.0,0.0,0.0,0.0,0.0,0.0,0.0,0.0,0.0,0.0,0.0,0.0,0.0,0.0,0.0,0.0,0.0,0.0,0.0,0.0,0.0,1.5247,1.4718,1.3461,1.0267,0.7645,0.5681,0.4435,0.4358,0.4338,0.4227,0.4227,0.4335,0.4338,0.2928,0.2169,0.2278,0.0868,-0.0651,-0.2058,-0.3459,-0.4782,-0.6067,-1.0081,-1.1871,-1.167,-1.4227,-1.6068,-1.7205,-1.5912,-1.6082,-1.7115,-1.5821,-1.5037,-1.4491,-1.3368,-1.4812,-1.7627,-1.712,-1.7492,-1.7503,-1.2038,-0.7781,-0.4334,-0.1033,0.0086,0.0173,0.0,-0.078,-0.1129,0.1121,0.3527,0.6103,0.9561,1.1214,1.226,1.3346,1.3641,1.4252,1.6372,1.8828,2.1848,2.5753,2.8232,3.0529,3.3168,3.5444,3.5448,3.1344,2.9548,0.0,2.0649,1.7041,1.4547,1.3491,0.3425,-0.696,-1.6021,-1.6627,-1.921,-2.5557,-2.675,-2.9173,-3.3392,-3.2753,-3.2546,-3.3073,-3.3705,-3.4417,-3.5034,0.0,0.0,0.0,0.0,0.0,0.0,0.0,0.0,0.0,0.0,0.0,0.0,0.0,0.0,0.0,0.0,0.0,0.0,0.0,0.0,0.0,0.0,0.0,0.0,1.2742,1.2006,0.7611,0.4428,0.1977,0.0693,0.1204,0.1329,0.0315,0.105,0.1909,0.282,0.1522,0.1197,0.2064,-0.1085,-0.3039,-0.3578,-0.4987,-0.6292,-0.743,-0.9602,-1.1,-1.1804,-1.5859,-1.7879,-1.8342,-1.9248,-1.9094,-1.8178,-1.6757,-1.6437,-1.6896,-1.5932,-1.6911,-1.8968,-1.8887,-1.9498,-1.9931,-1.6542,-1.3232,-0.9558,-0.4107,-0.2338,-0.2424,-0.3199,-0.2686,-0.139,0.0172,0.2243,0.4672,0.7428,0.784,0.7718,0.8781,0.9032,0.9829,1.2657,1.5131,1.8188,2.2901,2.5033,2.6065,2.6135,3.2021,3.5126,3.0613,2.9763,2.8178,2.3971,1.9035,1.5235,1.3621,0.3419,-0.6988,-1.6147,-1.7969,-2.073,-2.5724,-2.8162,-3.1002,-3.4521,-3.5592,-3.6745,-3.8057,-3.7691,-3.5409,-3.1096,0.0,0.0,0.0,0.0,0.0,0.0,0.0,0.0,0.0,0.0,0.0,0.0,0.0,0.0,0.0,0.0,0.0,0.0,0.0,0.0,0.0,0.0,0.0,0.0,0.0,0.0,0.5242,0.0267,0.0,-0.3305,-0.313,-0.2712,-0.1823,-0.1027,-0.0313,0.0533,-0.0216,-0.0326,0.0543,-0.2601,-0.4223,-0.4325,-0.5738,-0.7066,-0.8276,-1.0096,-1.139,-1.2273,-1.6842,-1.9225,-1.9703,-2.0997,-2.0744,-1.9611,-1.9064,-1.8566,-1.8169,-1.8121,-1.8899,-1.9991,-1.9873,-2.0695,-2.167,-1.974,-1.7059,-1.3614,-0.894,-0.6329,-0.5197,-0.6354,-0.4178,-0.0962,0.0899,0.3642,0.629,0.7673,0.7209,0.6189,0.5244,0.534,0.6177,0.8324,1.0461,1.3009,1.63,2.0109,2.2741,2.2408,2.9517,3.4023,3.0561,2.9459,2.8181,2.56,2.0449,1.6076,1.3706,0.3736,-0.6628,-1.6066,-1.8597,-2.144,-2.5768,-2.9194,-3.2438,-3.5565,-3.7872,-3.9106,-3.9098,-3.8208,-3.4547,0.0,0.0,0.0,0.0,0.0,0.0,0.0,0.0,0.0,0.0,0.0,0.0,0.0,0.0,0.0,0.0,0.0,0.0,0.0,0.0,0.0,0.0,0.0,0.0,0.0,0.0,0.0,0.2756,-0.4828,0.0,0.0,0.0,0.0,-0.2285,-0.1882,-0.2029,-0.2153,-0.2332,-0.2377,-0.2269,-0.3669,-0.4416,-0.4402,-0.5716,-0.712,-0.871,-1.1391,-1.2797,-1.3122,-1.7227,-1.9862,-2.1019,-2.1117,-2.1117,-2.1117,-2.2334,-2.0921,-1.8161,-1.9739,-2.0587,-2.0783,-2.0348,-2.1381,-2.2832,-2.1823,-1.9478,-1.666,-1.5351,-1.1817,-0.8221,-0.9067,-0.5279,0.0,0.0,0.725,1.0497,0.9738,0.8595,0.6544,0.2126,0.1975,0.2835,0.2992,0.4841,0.6404,0.0,1.3435,1.9994,2.1613,0.0,3.2131,3.0623,2.8573,2.6727,2.5322,2.1031,1.6928,1.3881,0.4389,-0.5833,-1.6051,-1.8614,-2.148,-2.5768,-2.9828,-3.3376,-3.6417,-3.9115,-3.9098,-3.591,-3.5053,0.0,0.0,0.0,0.0,0.0,0.0,0.0,0.0,0.0,0.0,0.0,0.0,0.0,0.0,0.0,0.0,0.0,0.0,0.0,0.0,0.0,0.0,0.0,0.0,0.0,0.0,-0.2173,-0.3927,-0.7808,-1.3611,-1.6082,0.0,0.0,0.0,0.0,0.0,0.0,-0.3185,-0.4687,-0.5274,-0.4499,-0.5797,-0.6287,-0.5627,-0.5952,-0.7491,-1.012,-1.0934,-1.2319,-1.4585,-1.8617,-2.0739,-2.1117,-2.3132,-2.2921,-2.1085,-2.1788,-2.1138,-1.9817,-1.9984,-2.0944,-2.2249,-2.3787,-2.4201,-2.4457,-2.6965,-2.5066,-2.1425,-2.0287,-1.7355,-1.3696,-1.0779,0.0,0.0,0.0,0.0,1.1773,0.5346,-0.042,-0.5133,-0.7148,-0.7211,-0.6047,-0.3415,-0.042,0.1021,0.0,0.453,1.1117,1.4398,2.3145,0.0,2.4132,2.5675,2.6372,2.4125,2.0451,1.7507,1.6153,0.5393,-0.5833,-1.6051,-1.8579,-2.1421,-2.5768,-2.9828,-3.3376,-3.6417,-3.6857,-3.6373,-3.4834,0.0,0.0,0.0,0.0,0.0,0.0,0.0,0.0,0.0,0.0,0.0,0.0,0.0,0.0,0.0,0.0,0.0,0.0,0.0,0.0,0.0,0.0,0.0,0.0,0.0,0.0,0.0,-0.5968,-0.7678,-1.0457,-1.5843,-1.7789,0.0,0.0,0.0,0.0,0.0,0.0,0.0,0.0,0.0,-0.9167,-0.9963,-0.9837,-0.8548,-0.8428,-0.9417,-1.1439,-1.1678,-1.2871,-1.502,-1.9404,-2.1666,-2.2251,-2.4754,-2.5292,-2.4328,-2.4174,-2.3997,-2.365,0.0,0.0,0.0,0.0,-2.3904,-2.3309,-2.4694,-2.3633,-2.1366,-1.9624,0.0,0.0,0.0,0.0,0.0,0.0,0.0,0.9005,0.0,0.0,-0.8618,-1.3447,-1.2803,-1.069,-0.8922,-0.5988,-0.4463,0.0,0.0521,0.862,1.3313,2.0484,0.0,0.0,0.0,2.5778,2.3586,2.0955,1.8746,1.7087,0.6665,-0.4737,-1.5954,-1.8158,-2.0981,-2.5768,-2.9828,-3.291,-3.4751,-3.4715,-3.3137,0.0,0.0,0.0,0.0,0.0,0.0,0.0,0.0,0.0,0.0,0.0,0.0,0.0,0.0,0.0,0.0,0.0,0.0,0.0,0.0,0.0,0.0,0.0,0.0,0.0,0.0,0.0,0.0,0.0,-0.9444,-1.036,0.0,0.0,0.0,0.0,0.0,0.0,0.0,0.0,0.0,0.0,0.0,0.0,0.0,-1.3422,-1.2143,-1.1792,-1.2193,-1.3129,-1.3744,-1.4689,-1.5899,-2.0389,-2.2996,-2.4088,-2.5499,0.0,-2.7615,-2.6644,0.0,0.0,0.0,0.0,0.0,0.0,0.0,0.0,0.0,0.0,0.0,0.0,0.0,0.0,0.0,0.0,0.0,0.0,0.0,0.0,0.0,0.0,-0.9801,-1.6999,-1.565,-1.2831,0.0,-1.1118,-0.9386,-0.927,-0.0709,0.8404,0.0,0.0,0.0,0.0,0.0,0.0,2.3561,2.2003,2.0021,1.7506,0.784,-0.3395,-1.5421,-1.7581,-2.0484,-2.5565,-2.9452,-3.1801,-3.233,-3.2538,0.0,0.0,0.0,0.0,0.0,0.0,0.0,0.0,0.0,0.0,0.0,0.0,0.0,0.0,0.0,0.0,0.0,0.0,0.0,0.0,0.0,0.0,0.0,0.0,0.0,0.0,0.0,0.0,0.0,0.0,0.0,0.0,0.0,0.0,0.0,0.0,0.0,0.0,0.0,0.0,0.0,0.0,0.0,0.0,0.0,0.0,0.0,0.0,0.0,0.0,-1.7931,-1.9315,-2.0969,-2.3435,-2.5229,-2.6269,-2.3654,-2.2681,-2.2851,-2.16,0.0,0.0,0.0,0.0,0.0,0.0,0.0,0.0,0.0,0.0,0.0,0.0,0.0,0.0,0.0,0.0,0.0,0.0,0.0,0.0,0.0,0.0,0.0,0.0,-1.5749,-1.5135,-1.3391,0.0,0.0,0.0,0.0,0.0,0.0,0.0,0.0,0.0,0.0,0.0,2.3669,2.2086,2.0503,1.9285,0.782,-0.3549,-1.3243,-1.7314,-2.0944,-2.4535,-2.7385,-2.9381,0.0,0.0,0.0,0.0,0.0,0.0,0.0,0.0,0.0,0.0,0.0,0.0,0.0,0.0,0.0,0.0,0.0,0.0,0.0,0.0,0.0,0.0,0.0,0.0,0.0,0.0,0.0,0.0,0.0,0.0,0.0,0.0,0.0,0.0,0.0,0.0,0.0,0.0,0.0,0.0,0.0,0.0,0.0,0.0,0.0,0.0,0.0,0.0,0.0,0.0,0.0,0.0,0.0,0.0,0.0,0.0,0.0,0.0,-2.0749,-2.0451,0.0,0.0,0.0,0.0,0.0,0.0,0.0,0.0,0.0,0.0,0.0,0.0,0.0,0.0,0.0,0.0,0.0,0.0,0.0,0.0,0.0,0.0,0.0,0.0,0.0,0.0,0.0,0.0,0.0,0.0,0.0,0.0,0.0,0.0,0.0,0.0,0.0,0.0,0.0,0.0,2.3841,2.2482,2.1102,1.9777,0.8888,-0.2911,-1.4253,-1.6436,-1.8792,-2.2536,-2.5446,0.0,0.0,0.0,0.0,0.0,0.0,0.0,0.0,0.0,0.0,0.0,0.0,0.0,0.0,0.0,0.0,0.0,0.0,0.0,0.0,0.0,0.0,0.0,0.0,0.0,0.0,0.0,0.0,0.0,0.0,0.0,0.0,0.0,0.0,0.0,0.0,0.0,0.0,0.0,0.0,0.0,0.0,0.0,0.0,0.0,0.0,0.0,0.0,0.0,0.0,0.0,0.0,0.0,0.0,0.0,0.0,0.0,0.0,0.0,-1.6861,-1.7514,0.0,0.0,0.0,0.0,0.0,0.0,0.0,0.0,0.0,0.0,0.0,0.0,0.0,0.0,0.0,0.0,0.0,0.0,0.0,0.0,0.0,0.0,0.0,0.0,0.0,0.0,0.0,0.0,0.0,0.0,0.0,0.0,0.0,0.0,0.0,0.0,0.0,0.0,0.0,0.0,2.4295,2.3003,2.1503,1.9745,0.9605,-0.1674,-1.326,-1.4862,-1.6896,-2.063,-2.3464,0.0,0.0,0.0,0.0,0.0,0.0,0.0,0.0,0.0,0.0,0.0,0.0,0.0,0.0,0.0,0.0,0.0,0.0,0.0,0.0,0.0,0.0,0.0,0.0,0.0,0.0,0.0,0.0,0.0,0.0,0.0,0.0,0.0,0.0,0.0,0.0,0.0,0.0,0.0,0.0,0.0,0.0,0.0,0.0,0.0,0.0,0.0,0.0,0.0,0.0,0.0,0.0,0.0,0.0,0.0,0.0,0.0,0.0,0.0,0.0,0.0,0.0,0.0,0.0,0.0,0.0,0.0,0.0,0.0,0.0,0.0,0.0,0.0,0.0,0.0,0.0,0.0,0.0,0.0,0.0,0.0,0.0,0.0,0.0,0.0,0.0,0.0,0.0,0.0,0.0,0.0,0.0,0.0,0.0,0.0,0.0,0.0,0.0,0.0,0.0,0.0,2.5499,2.3635,2.147,1.9627,0.8881,-0.0167,-0.5169,-1.2219,-1.7346,-1.9649,0.0,0.0,0.0,0.0,0.0,0.0,0.0,0.0,0.0,0.0,0.0,0.0,0.0,0.0,0.0,0.0,0.0,0.0,0.0,0.0,0.0,0.0,0.0,0.0,0.0,0.0,0.0,0.0,0.0,0.0,0.0,0.0,0.0,0.0,0.0,0.0,0.0,0.0,0.0,0.0,0.0,0.0,0.0,0.0,0.0,0.0,0.0,0.0,0.0,0.0,0.0,0.0,0.0,0.0,0.0,0.0,0.0,0.0,0.0,0.0,0.0,0.0,0.0,0.0,0.0,0.0,0.0,0.0,0.0,0.0,0.0,0.0,0.0,0.0,0.0,0.0,0.0,0.0,0.0,0.0,0.0,0.0,0.0,0.0,0.0,0.0,0.0,0.0,0.0,0.0,0.0,0.0,0.0,0.0,0.0,0.0,0.0,0.0,0.0,0.0,0.0,0.0,2.5811,2.3696,2.1491,1.974,0.9429,-0.0168,-0.7365,-1.2038,-1.5535,-1.7604,0.0,0.0,0.0,0.0,0.0,0.0,0.0,0.0,0.0,0.0,0.0,0.0,0.0,0.0,0.0,0.0,0.0,0.0,0.0,0.0,0.0,0.0,0.0,0.0,0.0,0.0,0.0,0.0,0.0,0.0,0.0,0.0,0.0,0.0,0.0,0.0,0.0,0.0,0.0,0.0,0.0,0.0,0.0,0.0,0.0,0.0,0.0,0.0,0.0,0.0,0.0,0.0,0.0,0.0,0.0,0.0,0.0,0.0,0.0,0.0,0.0,0.0,0.0,0.0,0.0,0.0,0.0,0.0,0.0,0.0,0.0,0.0,0.0,0.0,0.0,0.0,0.0,0.0,0.0,0.0,0.0,0.0,0.0,0.0,0.0,0.0,0.0,0.0,0.0,0.0,0.0,0.0,0.0,0.0,0.0,0.0,0.0,0.0,0.0,0.0,0.0,0.0,2.5868,2.3865,2.1465,1.8891,0.9277,-0.0,-0.7618,-1.2178,-1.5169,-1.6442,0.0,0.0,0.0,0.0,0.0,0.0,0.0,0.0,0.0,0.0,0.0,0.0,0.0,0.0,0.0,0.0,0.0,0.0,0.0,0.0,0.0,0.0,0.0,0.0,0.0,0.0,0.0,0.0,0.0,0.0,0.0,0.0,0.0,0.0,0.0,0.0,0.0,0.0,0.0,0.0,0.0,0.0,0.0,0.0,0.0,0.0,0.0,0.0,0.0,0.0,0.0,0.0,0.0,0.0,0.0,0.0,0.0,0.0,0.0,0.0,0.0,0.0,0.0,0.0,0.0,0.0,0.0,0.0,0.0,0.0,0.0,0.0,0.0,0.0,0.0,0.0,0.0,0.0,0.0,0.0,0.0,0.0,0.0,0.0,0.0,0.0,0.0,0.0,0.0,0.0,0.0,0.0,0.0,0.0,0.0,0.0,0.0,0.0,0.0,0.0,0.0,0.0,2.5939,2.4278,2.1367,1.6893,0.799,0.0759,-0.3029,-1.2037,-1.7194,0.0,0.0,0.0,0.0,0.0,0.0,0.0,0.0,0.0,0.0,0.0,0.0,0.0,0.0,0.0,0.0,0.0,0.0,0.0,0.0,0.0,0.0,0.0,0.0,0.0,0.0,0.0,0.0,0.0,0.0,0.0,0.0,0.0,0.0,0.0,0.0,0.0,0.0,0.0,0.0,0.0,0.0,0.0,0.0,0.0,0.0,0.0,0.0,0.0,0.0,0.0,0.0,0.0,0.0,0.0,0.0,0.0,0.0,0.0,0.0,0.0,0.0,0.0,0.0,0.0,0.0,0.0,0.0,0.0,0.0,0.0,0.0,0.0,0.0,0.0,0.0,0.0,0.0,0.0,0.0,0.0,0.0,0.0,0.0,0.0,0.0,0.0,0.0,0.0,0.0,0.0,0.0,0.0,0.0,0.0,0.0,0.0,0.0,0.0,0.0,0.0,0.0,0.0,2.5804,2.3103,2.0477,1.8671,0.9639,0.2027,-0.2278,-1.1783,-1.7194,-1.6594,0.0,0.0,0.0,0.0,0.0,0.0,0.0,0.0,0.0,0.0,0.0,0.0,0.0,0.0,0.0,0.0,0.0,0.0,0.0,0.0,0.0,0.0,0.0,0.0,0.0,0.0,0.0,0.0,0.0,0.0,0.0,0.0,0.0,0.0,0.0,0.0,0.0,0.0,0.0,0.0,0.0,0.0,0.0,0.0,0.0,0.0,0.0,0.0,0.0,0.0,0.0,0.0,0.0,0.0,0.0,0.0,0.0,0.0,0.0,0.0,0.0,0.0,0.0,0.0,0.0,0.0,0.0,0.0,0.0,0.0,0.0,0.0,0.0,0.0,0.0,0.0,0.0,0.0,0.0,0.0,0.0,0.0,0.0,0.0,0.0,0.0,0.0,0.0,0.0,0.0,0.0,0.0,0.0,0.0,0.0,0.0,0.0,0.0,0.0,0.0,0.0,0.0,0.0,2.3698,2.1264,1.9517,1.2428,0.5148,-0.1511,-1.2071,-1.8066,-1.7577,0.0,0.0,0.0,0.0,0.0,0.0,0.0,0.0,0.0,0.0,0.0,0.0,0.0,0.0,0.0,0.0,0.0,0.0,0.0,0.0,0.0,0.0,0.0,0.0,0.0,0.0,0.0,0.0,0.0,0.0,0.0,0.0,0.0,0.0,0.0,0.0,0.0,0.0,0.0,0.0,0.0,0.0,0.0,0.0,0.0,0.0,0.0,0.0,0.0,0.0,0.0,0.0,0.0,0.0,0.0,0.0,0.0,0.0,0.0,0.0,0.0,0.0,0.0,0.0,0.0,0.0,0.0,0.0,0.0,0.0,0.0,0.0,0.0,0.0,0.0,0.0,0.0,0.0,0.0,0.0,0.0,0.0,0.0,0.0,0.0,0.0,0.0,0.0,0.0,0.0,0.0,0.0,0.0,0.0,0.0,0.0,0.0,0.0,0.0,0.0,0.0,0.0,0.0,2.5508,2.3098,1.9409,1.5838,0.9414,-0.108,-1.2809,-1.9573,-1.9394,-2.134,0.0,0.0,0.0,0.0,0.0,0.0,0.0,0.0,0.0,0.0,0.0,0.0,0.0,0.0,0.0,0.0,0.0,0.0,0.0,0.0,0.0,0.0,0.0,0.0,0.0,0.0,0.0,0.0,0.0,0.0,0.0,0.0,0.0,0.0,0.0,0.0,0.0,0.0,0.0,0.0,0.0,0.0,0.0,0.0,0.0,0.0,0.0,0.0,0.0,0.0,0.0,0.0,0.0,0.0,0.0,0.0,0.0,0.0,0.0,0.0,0.0,0.0,0.0,0.0,0.0,0.0,0.0,0.0,0.0,0.0,0.0,0.0,0.0,0.0,0.0,0.0,0.0,0.0,0.0,0.0,0.0,0.0,0.0,0.0,0.0,0.0,0.0,0.0,0.0,0.0,0.0,0.0,0.0,0.0,0.0,0.0,0.0,0.0,0.0,0.0,0.0,0.0,2.3714,2.1028,1.7426,1.6433,1.0635,-0.2976,-1.3668,-1.9908,-2.0569,-2.1802,0.0,0.0,0.0,0.0,0.0,0.0,0.0,0.0,0.0,0.0,0.0,0.0,0.0,0.0,0.0,0.0,0.0,0.0,0.0,0.0,0.0,0.0,0.0,0.0,0.0,0.0,0.0,0.0,0.0,0.0,0.0,0.0,0.0,0.0,0.0,0.0,0.0,0.0,0.0,0.0,0.0,0.0,0.0,0.0,0.0,0.0,0.0,0.0,0.0,0.0,0.0,0.0,0.0,0.0,0.0,0.0,0.0,0.0,0.0,0.0,0.0,0.0,0.0,0.0,0.0,0.0,0.0,0.0,0.0,0.0,0.0,0.0,0.0,0.0,0.0,0.0,0.0,0.0,0.0,0.0,0.0,0.0,0.0,0.0,0.0,0.0,0.0,0.0,0.0,0.0,0.0,0.0,0.0,0.0,0.0,0.0,0.0,0.0,0.0,0.0,0.0,0.0,2.3643,2.219,1.8847,1.5933,0.946,-0.2369,-1.2775,-1.9683,-2.207,-2.2901,0.0,0.0,0.0,0.0,0.0,0.0,0.0,0.0,0.0,0.0,0.0,0.0,0.0,0.0,0.0,0.0,0.0,0.0,0.0,0.0,0.0,0.0,0.0,0.0,0.0,0.0,0.0,0.0,0.0,0.0,0.0,0.0,0.0,0.0,0.0,0.0,0.0,0.0,0.0,0.0,0.0,0.0,0.0,0.0,0.0,0.0,0.0,0.0,0.0,0.0,0.0,0.0,0.0,0.0,0.0,0.0,0.0,0.0,0.0,0.0,0.0,0.0,0.0,0.0,0.0,0.0,0.0,0.0,0.0,0.0,0.0,0.0,0.0,0.0,0.0,0.0,0.0,0.0,0.0,0.0,0.0,0.0,0.0,0.0,0.0,0.0,0.0,0.0,0.0,0.0,0.0,0.0,0.0,0.0,0.0,0.0,0.0,0.0,0.0,0.0,0.0,0.0,0.0,2.3702,2.1303,1.4861,0.7201,-0.1613,-1.1896,-1.9497,-2.3511,0.0,0.0,0.0,0.0,0.0,0.0,0.0,0.0,0.0,0.0,0.0,0.0,0.0,0.0,0.0,0.0,0.0,0.0,0.0,0.0,0.0,0.0,0.0,0.0,0.0,0.0,0.0,0.0,0.0,0.0,0.0,0.0,0.0,0.0,0.0,0.0,0.0,0.0,0.0,0.0,0.0,0.0,0.0,0.0,0.0,0.0,0.0,0.0,0.0,0.0,0.0,0.0,0.0,0.0,0.0,0.0,0.0,0.0,0.0,0.0,0.0,0.0,0.0,0.0,0.0,0.0,0.0,0.0,0.0,0.0,0.0,0.0,0.0,0.0,0.0,0.0,0.0,0.0,0.0,0.0,0.0,0.0,0.0,0.0,0.0,0.0,0.0,0.0,0.0,0.0,0.0,0.0,0.0,0.0,0.0,0.0,0.0,0.0,0.0,0.0,0.0,0.0,0.0,0.0,2.085,2.1252,1.397,0.5012,-0.4947,-1.4223,-2.0749,-2.3877,0.0,0.0,0.0,0.0,0.0,0.0,0.0,0.0,0.0,0.0,0.0,0.0,0.0,0.0]}]]]